Wetterdaten: Samstag, 23.09.2017
Datum Zeit Temp. A. Pool Temp. Feuchte A. Luftdruck Regen Wind Richtung Richtung Sonnenschein ET UV Solar Taupunkt Windchill Windben Empfang
23.09.2017 00:00 9,9 C 13,3 C 93 % 1021,9 hPa 0,0 l/m 2,9 km/h (1 Bft) S 184 0 min 0,000 mm 0,0 UV-I 0 W/m 8,8 C 9,9 C 4,8 km/h (1 Bft) 96,30 %
23.09.2017 00:02 9,9 C 13,3 C 93 % 1022,0 hPa 0,0 l/m 2,2 km/h (1 Bft) S 184 0 min 0,000 mm 0,0 UV-I 0 W/m 8,8 C 9,9 C 3,2 km/h (1 Bft) 97,83 %
23.09.2017 00:04 9,9 C 13,3 C 93 % 1021,9 hPa 0,0 l/m 1,6 km/h (1 Bft) S 184 0 min 0,000 mm 0,0 UV-I 0 W/m 8,8 C 9,9 C 3,2 km/h (1 Bft) 97,56 %
23.09.2017 00:06 9,9 C 13,3 C 93 % 1021,9 hPa 0,0 l/m 1,8 km/h (1 Bft) S 184 0 min 0,000 mm 0,0 UV-I 0 W/m 8,8 C 9,9 C 3,2 km/h (1 Bft) 97,87 %
23.09.2017 00:08 9,8 C 13,3 C 93 % 1022,0 hPa 0,0 l/m 1,9 km/h (1 Bft) S 184 0 min 0,000 mm 0,0 UV-I 0 W/m 8,7 C 9,8 C 3,2 km/h (1 Bft) 97,92 %
23.09.2017 00:10 9,8 C 13,3 C 94 % 1022,0 hPa 0,0 l/m 0,6 km/h (0 Bft) S 184 0 min 0,000 mm 0,0 UV-I 0 W/m 8,9 C 9,8 C 3,2 km/h (1 Bft) 97,37 %
23.09.2017 00:12 9,8 C 13,3 C 94 % 1022,0 hPa 0,0 l/m 0,0 km/h (0 Bft) S 184 0 min 0,000 mm 0,0 UV-I 0 W/m 8,9 C 9,8 C 0,0 km/h (0 Bft) 96,23 %
23.09.2017 00:14 9,8 C 13,3 C 94 % 1022,0 hPa 0,0 l/m 0,5 km/h (0 Bft) S 184 0 min 0,000 mm 0,0 UV-I 0 W/m 8,9 C 9,8 C 1,6 km/h (1 Bft) 93,62 %
23.09.2017 00:16 9,8 C 12,8 C 93 % 1022,0 hPa 0,0 l/m 0,2 km/h (0 Bft) S 184 0 min 0,000 mm 0,0 UV-I 0 W/m 8,7 C 9,8 C 1,6 km/h (1 Bft) 98,11 %
23.09.2017 00:18 9,7 C 13,3 C 93 % 1021,9 hPa 0,0 l/m 3,2 km/h (1 Bft) S 184 0 min 0,000 mm 0,0 UV-I 0 W/m 8,6 C 9,7 C 4,8 km/h (1 Bft) 97,87 %
23.09.2017 00:20 9,7 C 12,8 C 93 % 1021,9 hPa 0,0 l/m 3,8 km/h (1 Bft) S 184 0 min 0,000 mm 0,0 UV-I 0 W/m 8,6 C 9,7 C 4,8 km/h (1 Bft) 94,74 %
23.09.2017 00:22 9,6 C 12,8 C 93 % 1021,9 hPa 0,0 l/m 3,2 km/h (1 Bft) S 184 0 min 0,000 mm 0,0 UV-I 0 W/m 8,5 C 9,6 C 4,8 km/h (1 Bft) 97,87 %
23.09.2017 00:24 9,6 C 12,8 C 93 % 1021,9 hPa 0,0 l/m 3,0 km/h (1 Bft) S 184 0 min 0,000 mm 0,0 UV-I 0 W/m 8,5 C 9,6 C 4,8 km/h (1 Bft) 94,00 %
23.09.2017 00:26 9,6 C 12,8 C 93 % 1021,8 hPa 0,0 l/m 2,7 km/h (1 Bft) S 184 0 min 0,000 mm 0,0 UV-I 0 W/m 8,5 C 9,6 C 4,8 km/h (1 Bft) 92,00 %
23.09.2017 00:28 9,5 C 12,8 C 93 % 1021,8 hPa 0,0 l/m 2,8 km/h (1 Bft) S 184 0 min 0,000 mm 0,0 UV-I 0 W/m 8,4 C 9,5 C 4,8 km/h (1 Bft) 95,74 %
23.09.2017 00:30 9,4 C 12,8 C 93 % 1021,9 hPa 0,0 l/m 2,5 km/h (1 Bft) S 184 0 min 0,000 mm 0,0 UV-I 0 W/m 8,3 C 9,4 C 4,8 km/h (1 Bft) 94,29 %
23.09.2017 00:32 9,4 C 12,8 C 93 % 1021,9 hPa 0,0 l/m 2,3 km/h (1 Bft) S 184 0 min 0,000 mm 0,0 UV-I 0 W/m 8,3 C 9,4 C 4,8 km/h (1 Bft) 94,34 %
23.09.2017 00:34 9,4 C 12,8 C 93 % 1022,0 hPa 0,0 l/m 1,5 km/h (1 Bft) S 184 0 min 0,000 mm 0,0 UV-I 0 W/m 8,3 C 9,4 C 3,2 km/h (1 Bft) 94,00 %
23.09.2017 00:36 9,4 C 12,8 C 93 % 1021,9 hPa 0,0 l/m 1,5 km/h (1 Bft) S 184 0 min 0,000 mm 0,0 UV-I 0 W/m 8,3 C 9,4 C 3,2 km/h (1 Bft) 95,74 %
23.09.2017 00:38 9,4 C 12,8 C 93 % 1021,9 hPa 0,0 l/m 1,9 km/h (1 Bft) S 184 0 min 0,000 mm 0,0 UV-I 0 W/m 8,3 C 9,4 C 3,2 km/h (1 Bft) 93,62 %
23.09.2017 00:40 9,3 C 12,8 C 93 % 1021,9 hPa 0,0 l/m 2,4 km/h (1 Bft) S 184 0 min 0,000 mm 0,0 UV-I 0 W/m 8,2 C 9,3 C 3,2 km/h (1 Bft) 93,62 %
23.09.2017 00:42 9,3 C 12,8 C 93 % 1021,9 hPa 0,0 l/m 1,2 km/h (1 Bft) S 184 0 min 0,000 mm 0,0 UV-I 0 W/m 8,2 C 9,3 C 3,2 km/h (1 Bft) 96,00 %
23.09.2017 00:44 9,3 C 12,8 C 93 % 1021,9 hPa 0,0 l/m 0,0 km/h (0 Bft) S 184 0 min 0,000 mm 0,0 UV-I 0 W/m 8,2 C 9,3 C 0,0 km/h (0 Bft) 100,00 %
23.09.2017 00:46 9,3 C 12,8 C 93 % 1021,9 hPa 0,0 l/m 0,0 km/h (0 Bft) S 184 0 min 0,000 mm 0,0 UV-I 0 W/m 8,2 C 9,3 C 0,0 km/h (0 Bft) 95,16 %
23.09.2017 00:48 9,3 C 12,8 C 93 % 1021,9 hPa 0,0 l/m 0,0 km/h (0 Bft) S 184 0 min 0,000 mm 0,0 UV-I 0 W/m 8,2 C 9,3 C 0,0 km/h (0 Bft) 97,87 %
23.09.2017 00:50 9,2 C 12,8 C 93 % 1021,8 hPa 0,0 l/m 0,0 km/h (0 Bft) S 184 0 min 0,000 mm 0,0 UV-I 0 W/m 8,1 C 9,2 C 0,0 km/h (0 Bft) 97,87 %
23.09.2017 00:52 9,2 C 12,8 C 93 % 1021,8 hPa 0,0 l/m 0,0 km/h (0 Bft) S 184 0 min 0,000 mm 0,0 UV-I 0 W/m 8,1 C 9,2 C 0,0 km/h (0 Bft) 97,87 %
23.09.2017 00:54 9,2 C 12,8 C 93 % 1021,8 hPa 0,0 l/m 0,3 km/h (0 Bft) S 184 0 min 0,000 mm 0,0 UV-I 0 W/m 8,1 C 9,2 C 1,6 km/h (1 Bft) 97,87 %
23.09.2017 00:56 9,2 C 12,8 C 93 % 1021,8 hPa 0,0 l/m 2,5 km/h (1 Bft) S 184 0 min 0,000 mm 0,0 UV-I 0 W/m 8,1 C 9,2 C 4,8 km/h (1 Bft) 95,74 %
23.09.2017 00:58 9,2 C 12,8 C 93 % 1021,8 hPa 0,0 l/m 1,8 km/h (1 Bft) S 184 0 min 0,000 mm 0,0 UV-I 0 W/m 8,1 C 9,2 C 4,8 km/h (1 Bft) 98,00 %
23.09.2017 01:00 9,1 C 12,8 C 93 % 1021,7 hPa 0,0 l/m 1,8 km/h (1 Bft) S 184 0 min 0,000 mm 0,0 UV-I 0 W/m 8,0 C 9,1 C 3,2 km/h (1 Bft) 100,00 %
23.09.2017 01:02 9,1 C 12,8 C 93 % 1021,7 hPa 0,0 l/m 3,0 km/h (1 Bft) S 184 0 min 0,000 mm 0,0 UV-I 0 W/m 8,0 C 9,1 C 4,8 km/h (1 Bft) 100,00 %
23.09.2017 01:04 9,1 C 12,8 C 93 % 1021,8 hPa 0,0 l/m 3,9 km/h (1 Bft) S 184 0 min 0,000 mm 0,0 UV-I 0 W/m 8,0 C 9,1 C 4,8 km/h (1 Bft) 100,00 %
23.09.2017 01:06 9,1 C 12,8 C 93 % 1021,8 hPa 0,0 l/m 3,9 km/h (1 Bft) S 184 0 min 0,000 mm 0,0 UV-I 0 W/m 8,0 C 9,1 C 6,4 km/h (2 Bft) 97,87 %
23.09.2017 01:08 9,0 C 12,8 C 93 % 1021,8 hPa 0,0 l/m 3,1 km/h (1 Bft) S 184 0 min 0,000 mm 0,0 UV-I 0 W/m 7,9 C 9,0 C 6,4 km/h (2 Bft) 100,00 %
23.09.2017 01:10 8,9 C 12,8 C 93 % 1021,8 hPa 0,0 l/m 1,9 km/h (1 Bft) S 184 0 min 0,000 mm 0,0 UV-I 0 W/m 7,8 C 8,9 C 3,2 km/h (1 Bft) 100,00 %
23.09.2017 01:12 8,9 C 12,8 C 93 % 1021,8 hPa 0,0 l/m 0,9 km/h (0 Bft) S 184 0 min 0,000 mm 0,0 UV-I 0 W/m 7,8 C 8,9 C 3,2 km/h (1 Bft) 100,00 %
23.09.2017 01:14 8,9 C 12,8 C 93 % 1021,9 hPa 0,0 l/m 0,0 km/h (0 Bft) S 184 0 min 0,000 mm 0,0 UV-I 0 W/m 7,8 C 8,9 C 1,6 km/h (1 Bft) 100,00 %
23.09.2017 01:16 8,9 C 12,8 C 93 % 1021,8 hPa 0,0 l/m 0,5 km/h (0 Bft) S 184 0 min 0,000 mm 0,0 UV-I 0 W/m 7,8 C 8,9 C 1,6 km/h (1 Bft) 97,87 %
23.09.2017 01:18 8,8 C 12,8 C 93 % 1021,9 hPa 0,0 l/m 1,5 km/h (1 Bft) S 184 0 min 0,000 mm 0,0 UV-I 0 W/m 7,7 C 8,8 C 3,2 km/h (1 Bft) 100,00 %
23.09.2017 01:20 8,8 C 12,8 C 93 % 1021,9 hPa 0,0 l/m 0,5 km/h (0 Bft) S 184 0 min 0,000 mm 0,0 UV-I 0 W/m 7,7 C 8,8 C 1,6 km/h (1 Bft) 97,37 %
23.09.2017 01:22 8,8 C 12,8 C 93 % 1021,9 hPa 0,0 l/m 2,0 km/h (1 Bft) S 184 0 min 0,000 mm 0,0 UV-I 0 W/m 7,7 C 8,8 C 3,2 km/h (1 Bft) 100,00 %
23.09.2017 01:24 8,8 C 12,8 C 93 % 1021,9 hPa 0,0 l/m 1,7 km/h (1 Bft) S 184 0 min 0,000 mm 0,0 UV-I 0 W/m 7,7 C 8,8 C 3,2 km/h (1 Bft) 100,00 %
23.09.2017 01:26 8,8 C 12,8 C 93 % 1022,0 hPa 0,0 l/m 1,2 km/h (1 Bft) S 184 0 min 0,000 mm 0,0 UV-I 0 W/m 7,7 C 8,8 C 1,6 km/h (1 Bft) 100,00 %
23.09.2017 01:28 8,8 C 12,8 C 93 % 1022,0 hPa 0,0 l/m 0,1 km/h (0 Bft) S 184 0 min 0,000 mm 0,0 UV-I 0 W/m 7,7 C 8,8 C 1,6 km/h (1 Bft) 100,00 %
23.09.2017 01:30 8,7 C 12,8 C 93 % 1022,0 hPa 0,0 l/m 1,4 km/h (1 Bft) S 184 0 min 0,000 mm 0,0 UV-I 0 W/m 7,6 C 8,7 C 3,2 km/h (1 Bft) 100,00 %
23.09.2017 01:32 8,7 C 12,8 C 93 % 1022,1 hPa 0,0 l/m 2,6 km/h (1 Bft) S 184 0 min 0,000 mm 0,0 UV-I 0 W/m 7,6 C 8,7 C 3,2 km/h (1 Bft) 97,87 %
23.09.2017 01:34 8,7 C 12,8 C 93 % 1022,0 hPa 0,0 l/m 3,3 km/h (1 Bft) S 184 0 min 0,000 mm 0,0 UV-I 0 W/m 7,6 C 8,7 C 4,8 km/h (1 Bft) 100,00 %
23.09.2017 01:36 8,7 C 12,8 C 94 % 1022,0 hPa 0,0 l/m 3,6 km/h (1 Bft) S 186 0 min 0,000 mm 0,0 UV-I 0 W/m 7,8 C 8,7 C 4,8 km/h (1 Bft) 100,00 %
23.09.2017 01:38 8,7 C 12,8 C 93 % 1022,0 hPa 0,0 l/m 3,7 km/h (1 Bft) S-SW 196 0 min 0,000 mm 0,0 UV-I 0 W/m 7,6 C 8,7 C 4,8 km/h (1 Bft) 100,00 %
23.09.2017 01:40 8,7 C 12,8 C 93 % 1022,0 hPa 0,0 l/m 2,9 km/h (1 Bft) S-SW 196 0 min 0,000 mm 0,0 UV-I 0 W/m 7,6 C 8,7 C 4,8 km/h (1 Bft) 98,21 %
23.09.2017 01:42 8,7 C 12,8 C 93 % 1022,0 hPa 0,0 l/m 1,9 km/h (1 Bft) S-SW 196 0 min 0,000 mm 0,0 UV-I 0 W/m 7,6 C 8,7 C 3,2 km/h (1 Bft) 100,00 %
23.09.2017 01:44 8,6 C 12,8 C 93 % 1022,0 hPa 0,0 l/m 1,9 km/h (1 Bft) S-SW 196 0 min 0,000 mm 0,0 UV-I 0 W/m 7,5 C 8,6 C 3,2 km/h (1 Bft) 100,00 %
23.09.2017 01:46 8,6 C 12,8 C 93 % 1022,1 hPa 0,0 l/m 0,5 km/h (0 Bft) S-SW 196 0 min 0,000 mm 0,0 UV-I 0 W/m 7,5 C 8,6 C 1,6 km/h (1 Bft) 100,00 %
23.09.2017 01:48 8,6 C 12,8 C 93 % 1022,1 hPa 0,0 l/m 1,8 km/h (1 Bft) S-SW 196 0 min 0,000 mm 0,0 UV-I 0 W/m 7,5 C 8,6 C 3,2 km/h (1 Bft) 100,00 %
23.09.2017 01:50 8,6 C 12,8 C 93 % 1022,1 hPa 0,0 l/m 2,8 km/h (1 Bft) S-SW 196 0 min 0,000 mm 0,0 UV-I 0 W/m 7,5 C 8,6 C 4,8 km/h (1 Bft) 100,00 %
23.09.2017 01:52 8,5 C 12,8 C 93 % 1022,0 hPa 0,0 l/m 3,1 km/h (1 Bft) S-SW 196 0 min 0,000 mm 0,0 UV-I 0 W/m 7,4 C 8,5 C 4,8 km/h (1 Bft) 100,00 %
23.09.2017 01:54 8,5 C 12,8 C 94 % 1022,0 hPa 0,0 l/m 2,8 km/h (1 Bft) S-SW 196 0 min 0,000 mm 0,0 UV-I 0 W/m 7,6 C 8,5 C 4,8 km/h (1 Bft) 98,57 %
23.09.2017 01:56 8,4 C 12,8 C 93 % 1022,0 hPa 0,0 l/m 1,9 km/h (1 Bft) S-SW 196 0 min 0,000 mm 0,0 UV-I 0 W/m 7,3 C 8,4 C 3,2 km/h (1 Bft) 100,00 %
23.09.2017 01:58 8,4 C 12,8 C 93 % 1022,0 hPa 0,0 l/m 2,1 km/h (1 Bft) S-SW 196 0 min 0,000 mm 0,0 UV-I 0 W/m 7,3 C 8,4 C 3,2 km/h (1 Bft) 98,00 %
23.09.2017 02:00 8,4 C 12,8 C 94 % 1022,0 hPa 0,0 l/m 2,3 km/h (1 Bft) S-SW 196 0 min 0,000 mm 0,0 UV-I 0 W/m 7,5 C 8,4 C 3,2 km/h (1 Bft) 100,00 %
23.09.2017 02:02 8,4 C 12,8 C 94 % 1021,9 hPa 0,0 l/m 2,7 km/h (1 Bft) S-SW 196 0 min 0,000 mm 0,0 UV-I 0 W/m 7,5 C 8,4 C 4,8 km/h (1 Bft) 100,00 %
23.09.2017 02:04 8,3 C 12,8 C 94 % 1022,0 hPa 0,0 l/m 3,5 km/h (1 Bft) S-SW 196 0 min 0,000 mm 0,0 UV-I 0 W/m 7,4 C 8,3 C 4,8 km/h (1 Bft) 100,00 %
23.09.2017 02:06 8,3 C 12,8 C 93 % 1021,9 hPa 0,0 l/m 4,0 km/h (1 Bft) S-SW 196 0 min 0,000 mm 0,0 UV-I 0 W/m 7,2 C 8,3 C 4,8 km/h (1 Bft) 100,00 %
23.09.2017 02:08 8,3 C 12,8 C 94 % 1022,0 hPa 0,0 l/m 4,2 km/h (1 Bft) S-SW 201 0 min 0,000 mm 0,0 UV-I 0 W/m 7,4 C 8,3 C 8,0 km/h (2 Bft) 100,00 %
23.09.2017 02:10 8,3 C 12,8 C 94 % 1022,0 hPa 0,0 l/m 5,0 km/h (1 Bft) S-SW 198 0 min 0,000 mm 0,0 UV-I 0 W/m 7,4 C 8,3 C 6,4 km/h (2 Bft) 100,00 %
23.09.2017 02:12 8,3 C 12,8 C 94 % 1021,9 hPa 0,0 l/m 3,7 km/h (1 Bft) S-SW 193 0 min 0,000 mm 0,0 UV-I 0 W/m 7,4 C 8,3 C 4,8 km/h (1 Bft) 98,11 %
23.09.2017 02:14 8,3 C 12,8 C 94 % 1022,0 hPa 0,0 l/m 4,2 km/h (1 Bft) S 180 0 min 0,000 mm 0,0 UV-I 0 W/m 7,4 C 8,3 C 6,4 km/h (2 Bft) 100,00 %
23.09.2017 02:16 8,3 C 12,8 C 94 % 1021,9 hPa 0,0 l/m 3,2 km/h (1 Bft) S 187 0 min 0,000 mm 0,0 UV-I 0 W/m 7,4 C 8,3 C 8,0 km/h (2 Bft) 95,74 %
23.09.2017 02:18 8,3 C 12,8 C 94 % 1021,9 hPa 0,0 l/m 2,5 km/h (1 Bft) S 187 0 min 0,000 mm 0,0 UV-I 0 W/m 7,4 C 8,3 C 4,8 km/h (1 Bft) 100,00 %
23.09.2017 02:20 8,3 C 12,8 C 94 % 1021,9 hPa 0,0 l/m 2,3 km/h (1 Bft) S 187 0 min 0,000 mm 0,0 UV-I 0 W/m 7,4 C 8,3 C 4,8 km/h (1 Bft) 100,00 %
23.09.2017 02:22 8,3 C 12,8 C 94 % 1021,9 hPa 0,0 l/m 1,3 km/h (1 Bft) S 187 0 min 0,000 mm 0,0 UV-I 0 W/m 7,4 C 8,3 C 3,2 km/h (1 Bft) 100,00 %
23.09.2017 02:24 8,3 C 12,8 C 94 % 1021,9 hPa 0,0 l/m 0,5 km/h (0 Bft) S 187 0 min 0,000 mm 0,0 UV-I 0 W/m 7,4 C 8,3 C 1,6 km/h (1 Bft) 98,00 %
23.09.2017 02:26 8,3 C 12,8 C 94 % 1021,8 hPa 0,0 l/m 0,4 km/h (0 Bft) S 187 0 min 0,000 mm 0,0 UV-I 0 W/m 7,4 C 8,3 C 1,6 km/h (1 Bft) 97,73 %
23.09.2017 02:28 8,2 C 12,8 C 94 % 1021,9 hPa 0,0 l/m 0,3 km/h (0 Bft) S 187 0 min 0,000 mm 0,0 UV-I 0 W/m 7,3 C 8,2 C 1,6 km/h (1 Bft) 97,14 %
23.09.2017 02:30 8,2 C 12,8 C 94 % 1021,9 hPa 0,0 l/m 2,2 km/h (1 Bft) S 187 0 min 0,000 mm 0,0 UV-I 0 W/m 7,3 C 8,2 C 3,2 km/h (1 Bft) 100,00 %
23.09.2017 02:33 8,2 C 12,8 C 94 % 1021,9 hPa 0,0 l/m 2,3 km/h (1 Bft) S 187 0 min 0,000 mm 0,0 UV-I 0 W/m 7,3 C 8,2 C 4,8 km/h (1 Bft) 98,75 %
23.09.2017 02:34 8,2 C 12,8 C 94 % 1021,9 hPa 0,0 l/m 3,4 km/h (1 Bft) S 187 0 min 0,000 mm 0,0 UV-I 0 W/m 7,3 C 8,2 C 4,8 km/h (1 Bft) 100,00 %
23.09.2017 02:36 8,2 C 12,8 C 94 % 1021,9 hPa 0,2 l/m 3,2 km/h (1 Bft) S 187 0 min 0,000 mm 0,0 UV-I 0 W/m 7,3 C 8,2 C 4,8 km/h (1 Bft) 98,11 %
23.09.2017 02:38 8,2 C 12,8 C 94 % 1021,9 hPa 0,0 l/m 2,1 km/h (1 Bft) S 187 0 min 0,000 mm 0,0 UV-I 0 W/m 7,3 C 8,2 C 3,2 km/h (1 Bft) 94,74 %
23.09.2017 02:40 8,2 C 12,8 C 94 % 1021,9 hPa 0,0 l/m 1,4 km/h (1 Bft) S 187 0 min 0,000 mm 0,0 UV-I 0 W/m 7,3 C 8,2 C 3,2 km/h (1 Bft) 96,43 %
23.09.2017 02:42 8,2 C 12,8 C 94 % 1021,9 hPa 0,0 l/m 2,6 km/h (1 Bft) S 187 0 min 0,000 mm 0,0 UV-I 0 W/m 7,3 C 8,2 C 4,8 km/h (1 Bft) 98,00 %
23.09.2017 02:44 8,2 C 12,8 C 94 % 1021,9 hPa 0,0 l/m 3,1 km/h (1 Bft) S 187 0 min 0,000 mm 0,0 UV-I 0 W/m 7,3 C 8,2 C 4,8 km/h (1 Bft) 95,74 %
23.09.2017 02:46 8,1 C 12,8 C 94 % 1021,9 hPa 0,0 l/m 2,8 km/h (1 Bft) S 187 0 min 0,000 mm 0,0 UV-I 0 W/m 7,2 C 8,1 C 4,8 km/h (1 Bft) 97,62 %
23.09.2017 02:48 8,1 C 12,8 C 94 % 1022,0 hPa 0,0 l/m 3,5 km/h (1 Bft) S-SW 199 0 min 0,000 mm 0,0 UV-I 0 W/m 7,2 C 8,1 C 6,4 km/h (2 Bft) 97,87 %
23.09.2017 02:50 8,1 C 12,8 C 94 % 1022,0 hPa 0,0 l/m 3,7 km/h (1 Bft) S-SW 202 0 min 0,000 mm 0,0 UV-I 0 W/m 7,2 C 8,1 C 6,4 km/h (2 Bft) 97,56 %
23.09.2017 02:52 8,1 C 12,8 C 94 % 1022,0 hPa 0,0 l/m 3,3 km/h (1 Bft) S-SW 202 0 min 0,000 mm 0,0 UV-I 0 W/m 7,2 C 8,1 C 4,8 km/h (1 Bft) 98,11 %
23.09.2017 02:54 8,1 C 12,8 C 94 % 1022,0 hPa 0,0 l/m 3,7 km/h (1 Bft) S-SW 205 0 min 0,000 mm 0,0 UV-I 0 W/m 7,2 C 8,1 C 4,8 km/h (1 Bft) 98,00 %
23.09.2017 02:56 8,0 C 12,8 C 94 % 1021,9 hPa 0,0 l/m 3,9 km/h (1 Bft) S-SW 205 0 min 0,000 mm 0,0 UV-I 0 W/m 7,1 C 8,0 C 4,8 km/h (1 Bft) 97,37 %
23.09.2017 02:58 8,0 C 12,8 C 94 % 1021,9 hPa 0,0 l/m 4,0 km/h (1 Bft) S-SW 206 0 min 0,000 mm 0,0 UV-I 0 W/m 7,1 C 8,0 C 6,4 km/h (2 Bft) 98,00 %
23.09.2017 03:00 8,0 C 12,8 C 94 % 1021,9 hPa 0,0 l/m 4,2 km/h (1 Bft) S-SW 207 0 min 0,000 mm 0,0 UV-I 0 W/m 7,1 C 8,0 C 6,4 km/h (2 Bft) 89,36 %
23.09.2017 03:02 8,0 C 12,8 C 94 % 1021,9 hPa 0,0 l/m 3,8 km/h (1 Bft) S-SW 207 0 min 0,000 mm 0,0 UV-I 0 W/m 7,1 C 8,0 C 6,4 km/h (2 Bft) 94,00 %
23.09.2017 03:04 8,0 C 12,8 C 95 % 1021,9 hPa 0,0 l/m 3,4 km/h (1 Bft) S-SW 207 0 min 0,000 mm 0,0 UV-I 0 W/m 7,2 C 8,0 C 4,8 km/h (1 Bft) 93,62 %
23.09.2017 03:06 8,0 C 12,8 C 95 % 1021,9 hPa 0,0 l/m 2,9 km/h (1 Bft) S-SW 207 0 min 0,000 mm 0,0 UV-I 0 W/m 7,2 C 8,0 C 4,8 km/h (1 Bft) 94,74 %
23.09.2017 03:08 8,0 C 12,8 C 94 % 1021,9 hPa 0,0 l/m 2,1 km/h (1 Bft) S-SW 207 0 min 0,000 mm 0,0 UV-I 0 W/m 7,1 C 8,0 C 3,2 km/h (1 Bft) 96,23 %
23.09.2017 03:10 8,0 C 12,8 C 95 % 1021,9 hPa 0,0 l/m 1,7 km/h (1 Bft) S-SW 207 0 min 0,000 mm 0,0 UV-I 0 W/m 7,2 C 8,0 C 3,2 km/h (1 Bft) 94,74 %
23.09.2017 03:12 8,0 C 12,8 C 95 % 1021,9 hPa 0,0 l/m 0,9 km/h (0 Bft) S-SW 207 0 min 0,000 mm 0,0 UV-I 0 W/m 7,2 C 8,0 C 3,2 km/h (1 Bft) 96,23 %
23.09.2017 03:14 8,0 C 12,8 C 95 % 1021,9 hPa 0,0 l/m 0,0 km/h (0 Bft) S-SW 207 0 min 0,000 mm 0,0 UV-I 0 W/m 7,2 C 8,0 C 0,0 km/h (0 Bft) 96,00 %
23.09.2017 03:16 8,0 C 12,8 C 95 % 1021,9 hPa 0,0 l/m 0,0 km/h (0 Bft) S-SW 207 0 min 0,000 mm 0,0 UV-I 0 W/m 7,2 C 8,0 C 1,6 km/h (1 Bft) 97,87 %
23.09.2017 03:18 8,0 C 12,8 C 95 % 1021,9 hPa 0,0 l/m 0,0 km/h (0 Bft) S-SW 207 0 min 0,000 mm 0,0 UV-I 0 W/m 7,2 C 8,0 C 0,0 km/h (0 Bft) 89,36 %
23.09.2017 03:20 8,0 C 12,8 C 95 % 1021,9 hPa 0,0 l/m 0,0 km/h (0 Bft) S-SW 207 0 min 0,000 mm 0,0 UV-I 0 W/m 7,2 C 8,0 C 0,0 km/h (0 Bft) 97,22 %
23.09.2017 03:22 8,0 C 12,8 C 95 % 1022,0 hPa 0,0 l/m 0,0 km/h (0 Bft) S-SW 207 0 min 0,000 mm 0,0 UV-I 0 W/m 7,2 C 8,0 C 0,0 km/h (0 Bft) 94,34 %
23.09.2017 03:24 7,9 C 12,8 C 95 % 1021,9 hPa 0,0 l/m 0,0 km/h (0 Bft) S-SW 207 0 min 0,000 mm 0,0 UV-I 0 W/m 7,1 C 7,9 C 0,0 km/h (0 Bft) 96,15 %
23.09.2017 03:26 7,9 C 12,8 C 95 % 1021,9 hPa 0,0 l/m 0,0 km/h (0 Bft) S-SW 207 0 min 0,000 mm 0,0 UV-I 0 W/m 7,1 C 7,9 C 0,0 km/h (0 Bft) 97,62 %
23.09.2017 03:28 7,9 C 12,8 C 95 % 1022,0 hPa 0,0 l/m 0,0 km/h (0 Bft) S-SW 207 0 min 0,000 mm 0,0 UV-I 0 W/m 7,1 C 7,9 C 1,6 km/h (1 Bft) 98,00 %
23.09.2017 03:30 7,9 C 12,8 C 95 % 1022,0 hPa 0,0 l/m 0,0 km/h (0 Bft) S-SW 207 0 min 0,000 mm 0,0 UV-I 0 W/m 7,1 C 7,9 C 0,0 km/h (0 Bft) 97,87 %
23.09.2017 03:32 7,9 C 12,8 C 95 % 1022,0 hPa 0,0 l/m 0,0 km/h (0 Bft) S-SW 207 0 min 0,000 mm 0,0 UV-I 0 W/m 7,1 C 7,9 C 0,0 km/h (0 Bft) 97,87 %
23.09.2017 03:34 7,8 C 12,8 C 95 % 1021,9 hPa 0,0 l/m 0,0 km/h (0 Bft) S-SW 207 0 min 0,000 mm 0,0 UV-I 0 W/m 7,0 C 7,8 C 1,6 km/h (1 Bft) 93,62 %
23.09.2017 03:36 7,9 C 12,8 C 95 % 1021,9 hPa 0,0 l/m 0,9 km/h (0 Bft) S-SW 207 0 min 0,000 mm 0,0 UV-I 0 W/m 7,1 C 7,9 C 3,2 km/h (1 Bft) 97,73 %
23.09.2017 03:38 7,8 C 12,8 C 95 % 1021,9 hPa 0,0 l/m 0,3 km/h (0 Bft) S-SW 207 0 min 0,000 mm 0,0 UV-I 0 W/m 7,0 C 7,8 C 1,6 km/h (1 Bft) 98,00 %
23.09.2017 03:40 7,8 C 12,8 C 95 % 1021,9 hPa 0,0 l/m 0,5 km/h (0 Bft) S-SW 207 0 min 0,000 mm 0,0 UV-I 0 W/m 7,0 C 7,8 C 1,6 km/h (1 Bft) 98,00 %
23.09.2017 03:42 7,8 C 12,8 C 95 % 1021,9 hPa 0,0 l/m 0,8 km/h (0 Bft) S-SW 207 0 min 0,000 mm 0,0 UV-I 0 W/m 7,0 C 7,8 C 1,6 km/h (1 Bft) 97,56 %
23.09.2017 03:44 7,8 C 12,8 C 95 % 1021,9 hPa 0,0 l/m 2,0 km/h (1 Bft) S-SW 207 0 min 0,000 mm 0,0 UV-I 0 W/m 7,0 C 7,8 C 3,2 km/h (1 Bft) 95,74 %
23.09.2017 03:46 7,8 C 12,8 C 95 % 1021,9 hPa 0,0 l/m 1,3 km/h (1 Bft) S-SW 207 0 min 0,000 mm 0,0 UV-I 0 W/m 7,0 C 7,8 C 3,2 km/h (1 Bft) 95,74 %
23.09.2017 03:48 7,8 C 12,8 C 95 % 1021,9 hPa 0,0 l/m 1,6 km/h (1 Bft) S-SW 207 0 min 0,000 mm 0,0 UV-I 0 W/m 7,0 C 7,8 C 3,2 km/h (1 Bft) 97,73 %
23.09.2017 03:50 7,8 C 12,8 C 95 % 1021,9 hPa 0,0 l/m 2,8 km/h (1 Bft) S-SW 207 0 min 0,000 mm 0,0 UV-I 0 W/m 7,0 C 7,8 C 4,8 km/h (1 Bft) 96,23 %
23.09.2017 03:52 7,7 C 12,8 C 95 % 1021,9 hPa 0,0 l/m 2,5 km/h (1 Bft) S-SW 207 0 min 0,000 mm 0,0 UV-I 0 W/m 7,0 C 7,7 C 3,2 km/h (1 Bft) 96,00 %
23.09.2017 03:54 7,7 C 12,8 C 95 % 1021,9 hPa 0,0 l/m 4,1 km/h (1 Bft) S-SW 207 0 min 0,000 mm 0,0 UV-I 0 W/m 7,0 C 7,7 C 6,4 km/h (2 Bft) 100,00 %
23.09.2017 03:56 7,7 C 12,8 C 95 % 1021,9 hPa 0,0 l/m 3,8 km/h (1 Bft) S-SW 207 0 min 0,000 mm 0,0 UV-I 0 W/m 7,0 C 7,7 C 6,4 km/h (2 Bft) 95,74 %
23.09.2017 03:58 7,7 C 12,8 C 95 % 1021,9 hPa 0,0 l/m 3,3 km/h (1 Bft) S-SW 207 0 min 0,000 mm 0,0 UV-I 0 W/m 7,0 C 7,7 C 4,8 km/h (1 Bft) 100,00 %
23.09.2017 04:00 7,7 C 12,8 C 95 % 1021,9 hPa 0,0 l/m 2,5 km/h (1 Bft) S-SW 207 0 min 0,000 mm 0,0 UV-I 0 W/m 7,0 C 7,7 C 4,8 km/h (1 Bft) 100,00 %
23.09.2017 04:02 7,7 C 12,8 C 95 % 1021,9 hPa 0,0 l/m 3,5 km/h (1 Bft) S-SW 207 0 min 0,000 mm 0,0 UV-I 0 W/m 7,0 C 7,7 C 6,4 km/h (2 Bft) 94,12 %
23.09.2017 04:04 7,6 C 12,8 C 95 % 1021,9 hPa 0,0 l/m 4,3 km/h (1 Bft) S-SW 207 0 min 0,000 mm 0,0 UV-I 0 W/m 6,9 C 7,6 C 4,8 km/h (1 Bft) 96,00 %
23.09.2017 04:06 7,6 C 12,8 C 95 % 1021,9 hPa 0,0 l/m 4,3 km/h (1 Bft) SW 224 0 min 0,000 mm 0,0 UV-I 0 W/m 6,9 C 7,6 C 6,4 km/h (2 Bft) 98,00 %
23.09.2017 04:08 7,6 C 12,8 C 95 % 1021,9 hPa 0,0 l/m 3,9 km/h (1 Bft) SW 221 0 min 0,000 mm 0,0 UV-I 0 W/m 6,9 C 7,6 C 6,4 km/h (2 Bft) 100,00 %
23.09.2017 04:10 7,6 C 12,8 C 95 % 1021,9 hPa 0,0 l/m 4,4 km/h (1 Bft) SW 219 0 min 0,000 mm 0,0 UV-I 0 W/m 6,9 C 7,6 C 6,4 km/h (2 Bft) 98,00 %
23.09.2017 04:12 7,6 C 12,8 C 95 % 1021,8 hPa 0,0 l/m 4,4 km/h (1 Bft) SW 219 0 min 0,000 mm 0,0 UV-I 0 W/m 6,9 C 7,6 C 6,4 km/h (2 Bft) 100,00 %
23.09.2017 04:14 7,6 C 12,8 C 95 % 1021,8 hPa 0,0 l/m 4,1 km/h (1 Bft) SW 219 0 min 0,000 mm 0,0 UV-I 0 W/m 6,9 C 7,6 C 6,4 km/h (2 Bft) 100,00 %
23.09.2017 04:16 7,6 C 12,8 C 95 % 1021,8 hPa 0,0 l/m 4,4 km/h (1 Bft) SW 219 0 min 0,000 mm 0,0 UV-I 0 W/m 6,9 C 7,6 C 6,4 km/h (2 Bft) 100,00 %
23.09.2017 04:18 7,6 C 12,8 C 95 % 1021,8 hPa 0,0 l/m 3,6 km/h (1 Bft) SW 219 0 min 0,000 mm 0,0 UV-I 0 W/m 6,9 C 7,6 C 4,8 km/h (1 Bft) 100,00 %
23.09.2017 04:20 7,6 C 12,8 C 95 % 1021,8 hPa 0,0 l/m 4,0 km/h (1 Bft) SW 219 0 min 0,000 mm 0,0 UV-I 0 W/m 6,9 C 7,6 C 6,4 km/h (2 Bft) 100,00 %
23.09.2017 04:22 7,6 C 12,8 C 95 % 1021,7 hPa 0,0 l/m 4,8 km/h (1 Bft) SW 219 0 min 0,000 mm 0,0 UV-I 0 W/m 6,9 C 7,6 C 6,4 km/h (2 Bft) 100,00 %
23.09.2017 04:24 7,6 C 12,8 C 95 % 1021,7 hPa 0,0 l/m 4,9 km/h (1 Bft) SW 218 0 min 0,000 mm 0,0 UV-I 0 W/m 6,9 C 7,6 C 6,4 km/h (2 Bft) 98,00 %
23.09.2017 04:26 7,6 C 12,8 C 95 % 1021,7 hPa 0,0 l/m 5,8 km/h (2 Bft) SW 217 0 min 0,000 mm 0,0 UV-I 0 W/m 6,9 C 7,6 C 6,4 km/h (2 Bft) 100,00 %
23.09.2017 04:28 7,6 C 12,8 C 95 % 1021,7 hPa 0,0 l/m 4,8 km/h (1 Bft) SW 217 0 min 0,000 mm 0,0 UV-I 0 W/m 6,9 C 7,6 C 6,4 km/h (2 Bft) 100,00 %
23.09.2017 04:30 7,6 C 12,8 C 95 % 1021,7 hPa 0,0 l/m 5,8 km/h (2 Bft) SW 215 0 min 0,000 mm 0,0 UV-I 0 W/m 6,9 C 7,6 C 8,0 km/h (2 Bft) 95,74 %
23.09.2017 04:32 7,7 C 12,8 C 95 % 1021,8 hPa 0,0 l/m 5,5 km/h (1 Bft) SW 218 0 min 0,000 mm 0,0 UV-I 0 W/m 7,0 C 7,7 C 8,0 km/h (2 Bft) 100,00 %
23.09.2017 04:34 7,7 C 12,8 C 95 % 1021,7 hPa 0,0 l/m 5,1 km/h (1 Bft) S-SW 209 0 min 0,000 mm 0,0 UV-I 0 W/m 7,0 C 7,7 C 8,0 km/h (2 Bft) 100,00 %
23.09.2017 04:36 7,7 C 12,8 C 95 % 1021,7 hPa 0,0 l/m 4,8 km/h (1 Bft) S-SW 209 0 min 0,000 mm 0,0 UV-I 0 W/m 7,0 C 7,7 C 6,4 km/h (2 Bft) 100,00 %
23.09.2017 04:38 7,7 C 12,8 C 95 % 1021,7 hPa 0,0 l/m 5,4 km/h (1 Bft) SW 224 0 min 0,000 mm 0,0 UV-I 0 W/m 7,0 C 7,7 C 8,0 km/h (2 Bft) 100,00 %
23.09.2017 04:40 7,7 C 12,8 C 95 % 1021,7 hPa 0,0 l/m 5,4 km/h (1 Bft) SW 223 0 min 0,000 mm 0,0 UV-I 0 W/m 7,0 C 7,7 C 9,7 km/h (2 Bft) 98,11 %
23.09.2017 04:42 7,7 C 12,8 C 95 % 1021,7 hPa 0,0 l/m 4,4 km/h (1 Bft) SW 214 0 min 0,000 mm 0,0 UV-I 0 W/m 7,0 C 7,7 C 8,0 km/h (2 Bft) 97,87 %
23.09.2017 04:44 7,7 C 12,8 C 95 % 1021,7 hPa 0,0 l/m 2,9 km/h (1 Bft) SW 214 0 min 0,000 mm 0,0 UV-I 0 W/m 7,0 C 7,7 C 4,8 km/h (1 Bft) 100,00 %
23.09.2017 04:46 7,7 C 12,8 C 95 % 1021,7 hPa 0,0 l/m 2,6 km/h (1 Bft) SW 214 0 min 0,000 mm 0,0 UV-I 0 W/m 7,0 C 7,7 C 4,8 km/h (1 Bft) 97,44 %
23.09.2017 04:48 7,7 C 12,8 C 95 % 1021,7 hPa 0,0 l/m 2,8 km/h (1 Bft) SW 214 0 min 0,000 mm 0,0 UV-I 0 W/m 7,0 C 7,7 C 4,8 km/h (1 Bft) 96,00 %
23.09.2017 04:50 7,7 C 12,8 C 95 % 1021,7 hPa 0,0 l/m 2,8 km/h (1 Bft) SW 214 0 min 0,000 mm 0,0 UV-I 0 W/m 7,0 C 7,7 C 4,8 km/h (1 Bft) 96,23 %
23.09.2017 04:52 7,7 C 12,8 C 95 % 1021,7 hPa 0,0 l/m 2,9 km/h (1 Bft) SW 214 0 min 0,000 mm 0,0 UV-I 0 W/m 7,0 C 7,7 C 6,4 km/h (2 Bft) 97,56 %
23.09.2017 04:54 7,7 C 12,8 C 95 % 1021,7 hPa 0,0 l/m 3,0 km/h (1 Bft) SW 214 0 min 0,000 mm 0,0 UV-I 0 W/m 7,0 C 7,7 C 4,8 km/h (1 Bft) 93,62 %
23.09.2017 04:56 7,7 C 12,8 C 95 % 1021,7 hPa 0,0 l/m 3,4 km/h (1 Bft) SW 214 0 min 0,000 mm 0,0 UV-I 0 W/m 7,0 C 7,7 C 6,4 km/h (2 Bft) 98,00 %
23.09.2017 04:58 7,7 C 12,8 C 95 % 1021,7 hPa 0,0 l/m 4,0 km/h (1 Bft) SW 214 0 min 0,000 mm 0,0 UV-I 0 W/m 7,0 C 7,7 C 6,4 km/h (2 Bft) 95,12 %
23.09.2017 05:00 7,7 C 12,8 C 95 % 1021,7 hPa 0,0 l/m 3,5 km/h (1 Bft) SW 214 0 min 0,000 mm 0,0 UV-I 0 W/m 7,0 C 7,7 C 6,4 km/h (2 Bft) 97,87 %
23.09.2017 05:02 7,7 C 12,8 C 95 % 1021,7 hPa 0,0 l/m 2,4 km/h (1 Bft) SW 214 0 min 0,000 mm 0,0 UV-I 0 W/m 7,0 C 7,7 C 3,2 km/h (1 Bft) 94,00 %
23.09.2017 05:04 7,7 C 12,8 C 95 % 1021,7 hPa 0,0 l/m 1,6 km/h (1 Bft) SW 214 0 min 0,000 mm 0,0 UV-I 0 W/m 7,0 C 7,7 C 3,2 km/h (1 Bft) 98,00 %
23.09.2017 05:06 7,7 C 12,8 C 95 % 1021,7 hPa 0,0 l/m 2,4 km/h (1 Bft) SW 214 0 min 0,000 mm 0,0 UV-I 0 W/m 7,0 C 7,7 C 3,2 km/h (1 Bft) 97,37 %
23.09.2017 05:08 7,7 C 12,8 C 95 % 1021,6 hPa 0,0 l/m 2,6 km/h (1 Bft) SW 214 0 min 0,000 mm 0,0 UV-I 0 W/m 7,0 C 7,7 C 3,2 km/h (1 Bft) 98,21 %
23.09.2017 05:10 7,7 C 12,8 C 95 % 1021,6 hPa 0,0 l/m 3,3 km/h (1 Bft) SW 214 0 min 0,000 mm 0,0 UV-I 0 W/m 7,0 C 7,7 C 4,8 km/h (1 Bft) 97,37 %
23.09.2017 05:12 7,7 C 12,8 C 95 % 1021,6 hPa 0,0 l/m 3,3 km/h (1 Bft) SW 214 0 min 0,000 mm 0,0 UV-I 0 W/m 7,0 C 7,7 C 4,8 km/h (1 Bft) 97,87 %
23.09.2017 05:14 7,7 C 12,8 C 95 % 1021,6 hPa 0,0 l/m 2,5 km/h (1 Bft) SW 214 0 min 0,000 mm 0,0 UV-I 0 W/m 7,0 C 7,7 C 3,2 km/h (1 Bft) 96,00 %
23.09.2017 05:16 7,7 C 12,8 C 95 % 1021,6 hPa 0,0 l/m 1,2 km/h (1 Bft) SW 214 0 min 0,000 mm 0,0 UV-I 0 W/m 7,0 C 7,7 C 1,6 km/h (1 Bft) 97,87 %
23.09.2017 05:18 7,7 C 12,8 C 95 % 1021,6 hPa 0,0 l/m 0,8 km/h (0 Bft) SW 214 0 min 0,000 mm 0,0 UV-I 0 W/m 7,0 C 7,7 C 1,6 km/h (1 Bft) 95,74 %
23.09.2017 05:20 7,7 C 12,8 C 95 % 1021,6 hPa 0,0 l/m 0,9 km/h (0 Bft) SW 214 0 min 0,000 mm 0,0 UV-I 0 W/m 7,0 C 7,7 C 1,6 km/h (1 Bft) 98,00 %
23.09.2017 05:22 7,6 C 12,8 C 95 % 1021,6 hPa 0,0 l/m 1,0 km/h (0 Bft) SW 214 0 min 0,000 mm 0,0 UV-I 0 W/m 6,9 C 7,6 C 1,6 km/h (1 Bft) 100,00 %
23.09.2017 05:24 7,6 C 12,8 C 95 % 1021,6 hPa 0,0 l/m 0,3 km/h (0 Bft) SW 214 0 min 0,000 mm 0,0 UV-I 0 W/m 6,9 C 7,6 C 1,6 km/h (1 Bft) 100,00 %
23.09.2017 05:26 7,6 C 12,8 C 95 % 1021,6 hPa 0,0 l/m 0,0 km/h (0 Bft) SW 214 0 min 0,000 mm 0,0 UV-I 0 W/m 6,9 C 7,6 C 0,0 km/h (0 Bft) 100,00 %
23.09.2017 05:28 7,5 C 12,8 C 95 % 1021,6 hPa 0,0 l/m 0,0 km/h (0 Bft) SW 214 0 min 0,000 mm 0,0 UV-I 0 W/m 6,8 C 7,5 C 0,0 km/h (0 Bft) 100,00 %
23.09.2017 05:30 7,4 C 12,8 C 95 % 1021,6 hPa 0,0 l/m 0,0 km/h (0 Bft) SW 214 0 min 0,000 mm 0,0 UV-I 0 W/m 6,7 C 7,4 C 0,0 km/h (0 Bft) 100,00 %
23.09.2017 05:32 7,4 C 12,8 C 95 % 1021,6 hPa 0,0 l/m 0,0 km/h (0 Bft) SW 214 0 min 0,000 mm 0,0 UV-I 0 W/m 6,7 C 7,4 C 0,0 km/h (0 Bft) 97,37 %
23.09.2017 05:34 7,4 C 12,8 C 95 % 1021,6 hPa 0,0 l/m 0,0 km/h (0 Bft) SW 214 0 min 0,000 mm 0,0 UV-I 0 W/m 6,7 C 7,4 C 0,0 km/h (0 Bft) 100,00 %
23.09.2017 05:36 7,4 C 12,8 C 95 % 1021,6 hPa 0,0 l/m 0,0 km/h (0 Bft) SW 214 0 min 0,000 mm 0,0 UV-I 0 W/m 6,7 C 7,4 C 0,0 km/h (0 Bft) 100,00 %
23.09.2017 05:38 7,4 C 12,8 C 95 % 1021,6 hPa 0,0 l/m 0,0 km/h (0 Bft) SW 214 0 min 0,000 mm 0,0 UV-I 0 W/m 6,7 C 7,4 C 0,0 km/h (0 Bft) 100,00 %
23.09.2017 05:40 7,3 C 12,8 C 95 % 1021,6 hPa 0,0 l/m 0,0 km/h (0 Bft) SW 214 0 min 0,000 mm 0,0 UV-I 0 W/m 6,6 C 7,3 C 0,0 km/h (0 Bft) 100,00 %
23.09.2017 05:42 7,3 C 12,8 C 95 % 1021,7 hPa 0,0 l/m 0,0 km/h (0 Bft) SW 214 0 min 0,000 mm 0,0 UV-I 0 W/m 6,6 C 7,3 C 0,0 km/h (0 Bft) 100,00 %
23.09.2017 05:44 7,3 C 12,8 C 95 % 1021,6 hPa 0,0 l/m 0,0 km/h (0 Bft) SW 214 0 min 0,000 mm 0,0 UV-I 0 W/m 6,6 C 7,3 C 0,0 km/h (0 Bft) 100,00 %
23.09.2017 05:46 7,3 C 12,8 C 95 % 1021,7 hPa 0,0 l/m 0,0 km/h (0 Bft) SW 214 0 min 0,000 mm 0,0 UV-I 0 W/m 6,6 C 7,3 C 0,0 km/h (0 Bft) 100,00 %
23.09.2017 05:48 7,2 C 12,8 C 95 % 1021,6 hPa 0,0 l/m 0,0 km/h (0 Bft) SW 214 0 min 0,000 mm 0,0 UV-I 0 W/m 6,5 C 7,2 C 0,0 km/h (0 Bft) 100,00 %
23.09.2017 05:50 7,2 C 12,8 C 95 % 1021,7 hPa 0,0 l/m 0,1 km/h (0 Bft) SW 214 0 min 0,000 mm 0,0 UV-I 0 W/m 6,5 C 7,2 C 1,6 km/h (1 Bft) 97,62 %
23.09.2017 05:52 7,2 C 12,8 C 95 % 1021,7 hPa 0,0 l/m 0,0 km/h (0 Bft) SW 214 0 min 0,000 mm 0,0 UV-I 0 W/m 6,5 C 7,2 C 0,0 km/h (0 Bft) 100,00 %
23.09.2017 05:54 7,2 C 12,8 C 95 % 1021,7 hPa 0,0 l/m 0,0 km/h (0 Bft) SW 214 0 min 0,000 mm 0,0 UV-I 0 W/m 6,5 C 7,2 C 0,0 km/h (0 Bft) 100,00 %
23.09.2017 05:56 7,1 C 12,8 C 95 % 1021,7 hPa 0,0 l/m 0,0 km/h (0 Bft) SW 214 0 min 0,000 mm 0,0 UV-I 0 W/m 6,4 C 7,1 C 0,0 km/h (0 Bft) 97,87 %
23.09.2017 05:58 7,1 C 12,8 C 95 % 1021,7 hPa 0,0 l/m 1,1 km/h (1 Bft) SW 214 0 min 0,000 mm 0,0 UV-I 0 W/m 6,4 C 7,1 C 3,2 km/h (1 Bft) 100,00 %
23.09.2017 06:00 7,0 C 12,8 C 95 % 1021,7 hPa 0,0 l/m 2,6 km/h (1 Bft) SW 214 0 min 0,000 mm 0,0 UV-I 0 W/m 6,3 C 7,0 C 4,8 km/h (1 Bft) 100,00 %
23.09.2017 06:02 6,9 C 12,8 C 95 % 1021,6 hPa 0,0 l/m 3,4 km/h (1 Bft) SW 214 0 min 0,000 mm 0,0 UV-I 0 W/m 6,2 C 6,9 C 4,8 km/h (1 Bft) 100,00 %
23.09.2017 06:04 6,9 C 12,8 C 95 % 1021,6 hPa 0,0 l/m 3,8 km/h (1 Bft) SW 214 0 min 0,000 mm 0,0 UV-I 0 W/m 6,2 C 6,9 C 4,8 km/h (1 Bft) 100,00 %
23.09.2017 06:06 6,9 C 12,8 C 95 % 1021,7 hPa 0,0 l/m 3,8 km/h (1 Bft) SW 214 0 min 0,000 mm 0,0 UV-I 0 W/m 6,2 C 6,9 C 6,4 km/h (2 Bft) 100,00 %
23.09.2017 06:08 6,8 C 12,8 C 95 % 1021,7 hPa 0,0 l/m 3,0 km/h (1 Bft) SW 214 0 min 0,000 mm 0,0 UV-I 0 W/m 6,1 C 6,8 C 4,8 km/h (1 Bft) 98,00 %
23.09.2017 06:10 6,8 C 12,8 C 95 % 1021,7 hPa 0,0 l/m 2,8 km/h (1 Bft) SW 214 0 min 0,000 mm 0,0 UV-I 0 W/m 6,1 C 6,8 C 6,4 km/h (2 Bft) 96,00 %
23.09.2017 06:12 6,7 C 12,8 C 95 % 1021,7 hPa 0,0 l/m 3,1 km/h (1 Bft) SW 214 0 min 0,000 mm 0,0 UV-I 0 W/m 6,0 C 6,7 C 4,8 km/h (1 Bft) 97,56 %
23.09.2017 06:14 6,7 C 12,8 C 95 % 1021,7 hPa 0,0 l/m 2,6 km/h (1 Bft) SW 214 0 min 0,000 mm 0,0 UV-I 0 W/m 6,0 C 6,7 C 4,8 km/h (1 Bft) 97,87 %
23.09.2017 06:16 6,7 C 12,8 C 95 % 1021,7 hPa 0,0 l/m 2,7 km/h (1 Bft) SW 214 0 min 0,000 mm 0,0 UV-I 0 W/m 6,0 C 6,7 C 4,8 km/h (1 Bft) 97,37 %
23.09.2017 06:18 6,7 C 12,8 C 95 % 1021,7 hPa 0,0 l/m 2,7 km/h (1 Bft) SW 214 0 min 0,000 mm 0,0 UV-I 0 W/m 6,0 C 6,7 C 4,8 km/h (1 Bft) 98,11 %
23.09.2017 06:20 6,7 C 12,8 C 95 % 1021,7 hPa 0,0 l/m 3,7 km/h (1 Bft) SW 214 0 min 0,000 mm 0,0 UV-I 0 W/m 6,0 C 6,7 C 6,4 km/h (2 Bft) 98,11 %
23.09.2017 06:22 6,7 C 12,8 C 95 % 1021,7 hPa 0,0 l/m 2,5 km/h (1 Bft) SW 214 0 min 0,000 mm 0,0 UV-I 0 W/m 6,0 C 6,7 C 4,8 km/h (1 Bft) 97,14 %
23.09.2017 06:24 6,7 C 12,8 C 95 % 1021,7 hPa 0,0 l/m 0,6 km/h (0 Bft) SW 214 0 min 0,000 mm 0,0 UV-I 0 W/m 6,0 C 6,7 C 3,2 km/h (1 Bft) 96,00 %
23.09.2017 06:26 6,7 C 12,8 C 95 % 1021,7 hPa 0,0 l/m 1,6 km/h (1 Bft) SW 214 0 min 0,000 mm 0,0 UV-I 0 W/m 6,0 C 6,7 C 3,2 km/h (1 Bft) 98,11 %
23.09.2017 06:28 6,7 C 12,8 C 95 % 1021,7 hPa 0,0 l/m 0,6 km/h (0 Bft) SW 214 0 min 0,000 mm 0,0 UV-I 0 W/m 6,0 C 6,7 C 1,6 km/h (1 Bft) 98,00 %
23.09.2017 06:30 6,7 C 12,8 C 95 % 1021,7 hPa 0,0 l/m 2,0 km/h (1 Bft) SW 214 0 min 0,000 mm 0,0 UV-I 0 W/m 6,0 C 6,7 C 3,2 km/h (1 Bft) 97,37 %
23.09.2017 06:32 6,7 C 12,8 C 95 % 1021,7 hPa 0,0 l/m 3,6 km/h (1 Bft) SW 214 0 min 0,000 mm 0,0 UV-I 0 W/m 6,0 C 6,7 C 4,8 km/h (1 Bft) 96,23 %
23.09.2017 06:34 6,7 C 12,8 C 95 % 1021,7 hPa 0,0 l/m 2,6 km/h (1 Bft) SW 214 0 min 0,000 mm 0,0 UV-I 0 W/m 6,0 C 6,7 C 4,8 km/h (1 Bft) 97,87 %
23.09.2017 06:36 6,7 C 12,8 C 95 % 1021,7 hPa 0,0 l/m 1,8 km/h (1 Bft) SW 214 0 min 0,000 mm 0,0 UV-I 0 W/m 6,0 C 6,7 C 3,2 km/h (1 Bft) 98,00 %
23.09.2017 06:38 6,7 C 12,8 C 95 % 1021,7 hPa 0,0 l/m 2,2 km/h (1 Bft) S-SW 211 0 min 0,000 mm 0,0 UV-I 0 W/m 6,0 C 6,7 C 4,8 km/h (1 Bft) 97,22 %
23.09.2017 06:40 6,7 C 12,8 C 95 % 1021,7 hPa 0,0 l/m 2,5 km/h (1 Bft) S-SW 211 0 min 0,000 mm 0,0 UV-I 2 W/m 6,0 C 6,7 C 4,8 km/h (1 Bft) 98,00 %
23.09.2017 06:42 6,7 C 12,8 C 95 % 1021,8 hPa 0,0 l/m 2,2 km/h (1 Bft) S-SW 211 0 min 0,000 mm 0,0 UV-I 5 W/m 6,0 C 6,7 C 4,8 km/h (1 Bft) 97,87 %
23.09.2017 06:44 6,7 C 12,8 C 95 % 1021,8 hPa 0,0 l/m 1,6 km/h (1 Bft) S-SW 211 0 min 0,000 mm 0,0 UV-I 5 W/m 6,0 C 6,7 C 3,2 km/h (1 Bft) 97,87 %
23.09.2017 06:46 6,7 C 12,8 C 95 % 1021,8 hPa 0,0 l/m 2,6 km/h (1 Bft) S-SW 211 0 min 0,000 mm 0,0 UV-I 5 W/m 6,0 C 6,7 C 3,2 km/h (1 Bft) 97,56 %
23.09.2017 06:48 6,7 C 12,8 C 95 % 1021,8 hPa 0,0 l/m 1,8 km/h (1 Bft) S-SW 211 0 min 0,000 mm 0,0 UV-I 7 W/m 6,0 C 6,7 C 3,2 km/h (1 Bft) 98,11 %
23.09.2017 06:50 6,7 C 12,8 C 95 % 1021,8 hPa 0,0 l/m 0,5 km/h (0 Bft) S-SW 211 0 min 0,000 mm 0,0 UV-I 7 W/m 6,0 C 6,7 C 3,2 km/h (1 Bft) 98,11 %
23.09.2017 06:52 6,7 C 12,8 C 95 % 1021,8 hPa 0,0 l/m 0,5 km/h (0 Bft) S-SW 211 0 min 0,000 mm 0,0 UV-I 7 W/m 6,0 C 6,7 C 1,6 km/h (1 Bft) 97,56 %
23.09.2017 06:54 6,7 C 12,8 C 95 % 1021,8 hPa 0,0 l/m 0,5 km/h (0 Bft) S-SW 211 0 min 0,000 mm 0,0 UV-I 8 W/m 6,0 C 6,7 C 1,6 km/h (1 Bft) 96,00 %
23.09.2017 06:56 6,7 C 12,8 C 95 % 1021,9 hPa 0,0 l/m 0,1 km/h (0 Bft) S-SW 211 0 min 0,000 mm 0,0 UV-I 9 W/m 6,0 C 6,7 C 1,6 km/h (1 Bft) 97,87 %
23.09.2017 06:58 6,7 C 12,8 C 96 % 1021,9 hPa 0,0 l/m 0,0 km/h (0 Bft) S-SW 211 0 min 0,000 mm 0,0 UV-I 10 W/m 6,1 C 6,7 C 0,0 km/h (0 Bft) 96,00 %
23.09.2017 07:00 6,7 C 12,8 C 96 % 1022,0 hPa 0,0 l/m 0,7 km/h (0 Bft) S-SW 211 0 min 0,000 mm 0,0 UV-I 11 W/m 6,1 C 6,7 C 3,2 km/h (1 Bft) 92,11 %
23.09.2017 07:02 6,7 C 12,8 C 96 % 1022,0 hPa 0,0 l/m 1,6 km/h (1 Bft) S-SW 211 2 min 0,000 mm 0,0 UV-I 12 W/m 6,1 C 6,7 C 3,2 km/h (1 Bft) 91,49 %
23.09.2017 07:04 6,7 C 12,8 C 96 % 1022,0 hPa 0,0 l/m 1,1 km/h (1 Bft) S-SW 211 2 min 0,000 mm 0,0 UV-I 12 W/m 6,1 C 6,7 C 1,6 km/h (1 Bft) 97,87 %
23.09.2017 07:06 6,8 C 12,8 C 96 % 1022,0 hPa 0,0 l/m 0,1 km/h (0 Bft) S-SW 211 0 min 0,000 mm 0,0 UV-I 14 W/m 6,2 C 6,8 C 1,6 km/h (1 Bft) 98,00 %
23.09.2017 07:08 6,7 C 12,8 C 96 % 1022,0 hPa 0,0 l/m 0,0 km/h (0 Bft) S-SW 211 0 min 0,000 mm 0,0 UV-I 15 W/m 6,1 C 6,7 C 0,0 km/h (0 Bft) 98,00 %
23.09.2017 07:10 6,7 C 12,8 C 96 % 1022,0 hPa 0,0 l/m 0,1 km/h (0 Bft) S-SW 211 0 min 0,000 mm 0,0 UV-I 18 W/m 6,1 C 6,7 C 1,6 km/h (1 Bft) 97,87 %
23.09.2017 07:12 6,7 C 12,8 C 96 % 1022,1 hPa 0,0 l/m 0,7 km/h (0 Bft) S-SW 211 0 min 0,000 mm 0,0 UV-I 19 W/m 6,1 C 6,7 C 1,6 km/h (1 Bft) 97,87 %
23.09.2017 07:14 6,7 C 12,8 C 96 % 1022,1 hPa 0,0 l/m 0,0 km/h (0 Bft) S-SW 211 0 min 0,000 mm 0,0 UV-I 22 W/m 6,1 C 6,7 C 0,0 km/h (0 Bft) 97,87 %
23.09.2017 07:16 6,7 C 12,8 C 95 % 1022,1 hPa 0,0 l/m 0,0 km/h (0 Bft) S-SW 211 0 min 0,000 mm 0,0 UV-I 23 W/m 6,0 C 6,7 C 0,0 km/h (0 Bft) 97,22 %
23.09.2017 07:18 6,7 C 12,8 C 95 % 1022,1 hPa 0,0 l/m 0,0 km/h (0 Bft) S-SW 211 0 min 0,000 mm 0,0 UV-I 23 W/m 6,0 C 6,7 C 0,0 km/h (0 Bft) 96,36 %
23.09.2017 07:20 6,7 C 12,8 C 95 % 1022,1 hPa 0,0 l/m 0,0 km/h (0 Bft) S-SW 211 0 min 0,000 mm 0,0 UV-I 24 W/m 6,0 C 6,7 C 0,0 km/h (0 Bft) 98,00 %
23.09.2017 07:22 6,7 C 12,8 C 95 % 1022,2 hPa 0,0 l/m 0,0 km/h (0 Bft) S-SW 211 0 min 0,000 mm 0,0 UV-I 27 W/m 6,0 C 6,7 C 0,0 km/h (0 Bft) 95,74 %
23.09.2017 07:24 6,7 C 12,8 C 95 % 1022,1 hPa 0,0 l/m 0,0 km/h (0 Bft) S-SW 211 0 min 0,000 mm 0,0 UV-I 29 W/m 6,0 C 6,7 C 0,0 km/h (0 Bft) 95,83 %
23.09.2017 07:26 6,6 C 12,8 C 95 % 1022,2 hPa 0,0 l/m 0,0 km/h (0 Bft) S-SW 211 0 min 0,000 mm 0,0 UV-I 32 W/m 5,9 C 6,6 C 0,0 km/h (0 Bft) 97,87 %
23.09.2017 07:28 6,6 C 12,8 C 95 % 1022,2 hPa 0,0 l/m 0,0 km/h (0 Bft) S-SW 211 0 min 0,000 mm 0,0 UV-I 35 W/m 5,9 C 6,6 C 0,0 km/h (0 Bft) 97,87 %
23.09.2017 07:30 6,6 C 12,8 C 95 % 1022,2 hPa 0,0 l/m 0,0 km/h (0 Bft) S-SW 211 0 min 0,000 mm 0,0 UV-I 37 W/m 5,9 C 6,6 C 0,0 km/h (0 Bft) 97,37 %
23.09.2017 07:32 6,6 C 12,8 C 95 % 1022,3 hPa 0,0 l/m 0,0 km/h (0 Bft) S-SW 211 0 min 0,000 mm 0,0 UV-I 33 W/m 5,9 C 6,6 C 0,0 km/h (0 Bft) 94,00 %
23.09.2017 07:34 6,6 C 12,8 C 95 % 1022,3 hPa 0,0 l/m 0,0 km/h (0 Bft) S-SW 211 0 min 0,000 mm 0,0 UV-I 22 W/m 5,9 C 6,6 C 0,0 km/h (0 Bft) 96,00 %
23.09.2017 07:36 6,6 C 12,8 C 95 % 1022,3 hPa 0,0 l/m 0,2 km/h (0 Bft) S-SW 211 0 min 0,000 mm 0,0 UV-I 21 W/m 5,9 C 6,6 C 1,6 km/h (1 Bft) 97,87 %
23.09.2017 07:38 6,6 C 12,8 C 95 % 1022,3 hPa 0,0 l/m 0,0 km/h (0 Bft) S-SW 211 0 min 0,000 mm 0,0 UV-I 28 W/m 5,9 C 6,6 C 0,0 km/h (0 Bft) 97,14 %
23.09.2017 07:40 6,6 C 12,8 C 96 % 1022,3 hPa 0,0 l/m 0,0 km/h (0 Bft) S-SW 211 0 min 0,000 mm 0,0 UV-I 33 W/m 6,0 C 6,6 C 0,0 km/h (0 Bft) 98,00 %
23.09.2017 07:42 6,6 C 12,8 C 96 % 1022,3 hPa 0,0 l/m 0,0 km/h (0 Bft) S-SW 211 0 min 0,000 mm 0,0 UV-I 34 W/m 6,0 C 6,6 C 0,0 km/h (0 Bft) 98,00 %
23.09.2017 07:44 6,6 C 12,8 C 96 % 1022,4 hPa 0,0 l/m 0,0 km/h (0 Bft) S-SW 211 0 min 0,000 mm 0,0 UV-I 35 W/m 6,0 C 6,6 C 0,0 km/h (0 Bft) 97,87 %
23.09.2017 07:46 6,6 C 12,8 C 96 % 1022,4 hPa 0,0 l/m 0,0 km/h (0 Bft) S-SW 211 0 min 0,000 mm 0,0 UV-I 30 W/m 6,0 C 6,6 C 0,0 km/h (0 Bft) 100,00 %
23.09.2017 07:48 6,6 C 12,8 C 96 % 1022,3 hPa 0,0 l/m 0,0 km/h (0 Bft) S-SW 211 0 min 0,000 mm 0,0 UV-I 42 W/m 6,0 C 6,6 C 0,0 km/h (0 Bft) 100,00 %
23.09.2017 07:50 6,7 C 12,8 C 96 % 1022,2 hPa 0,0 l/m 0,0 km/h (0 Bft) S-SW 211 0 min 0,000 mm 0,0 UV-I 52 W/m 6,1 C 6,7 C 0,0 km/h (0 Bft) 97,87 %
23.09.2017 07:52 6,7 C 12,8 C 96 % 1022,1 hPa 0,0 l/m 0,0 km/h (0 Bft) S-SW 211 0 min 0,000 mm 0,0 UV-I 52 W/m 6,1 C 6,7 C 0,0 km/h (0 Bft) 98,00 %
23.09.2017 07:54 6,7 C 12,8 C 96 % 1022,2 hPa 0,0 l/m 0,0 km/h (0 Bft) S-SW 211 0 min 0,000 mm 0,0 UV-I 56 W/m 6,1 C 6,7 C 0,0 km/h (0 Bft) 97,87 %
23.09.2017 07:56 6,8 C 12,8 C 96 % 1022,2 hPa 0,0 l/m 0,5 km/h (0 Bft) S-SW 211 0 min 0,000 mm 0,0 UV-I 58 W/m 6,2 C 6,8 C 1,6 km/h (1 Bft) 100,00 %
23.09.2017 07:58 6,8 C 12,8 C 96 % 1022,2 hPa 0,0 l/m 0,0 km/h (0 Bft) S-SW 211 0 min 0,000 mm 0,0 UV-I 60 W/m 6,2 C 6,8 C 0,0 km/h (0 Bft) 98,00 %
23.09.2017 08:00 6,9 C 12,8 C 96 % 1022,2 hPa 0,0 l/m 0,0 km/h (0 Bft) S-SW 211 0 min 0,025 mm 0,0 UV-I 53 W/m 6,3 C 6,9 C 0,0 km/h (0 Bft) 100,00 %
23.09.2017 08:02 6,9 C 12,8 C 96 % 1022,2 hPa 0,0 l/m 0,0 km/h (0 Bft) S-SW 211 0 min 0,000 mm 0,0 UV-I 59 W/m 6,3 C 6,9 C 0,0 km/h (0 Bft) 97,87 %
23.09.2017 08:04 7,0 C 12,8 C 96 % 1022,2 hPa 0,0 l/m 0,0 km/h (0 Bft) S-SW 211 0 min 0,000 mm 0,0 UV-I 62 W/m 6,4 C 7,0 C 0,0 km/h (0 Bft) 93,62 %
23.09.2017 08:06 7,1 C 12,8 C 96 % 1022,2 hPa 0,0 l/m 1,1 km/h (1 Bft) S-SW 211 0 min 0,000 mm 0,0 UV-I 42 W/m 6,5 C 7,1 C 3,2 km/h (1 Bft) 100,00 %
23.09.2017 08:08 7,2 C 12,8 C 96 % 1022,1 hPa 0,0 l/m 0,7 km/h (0 Bft) S-SW 211 0 min 0,000 mm 0,0 UV-I 37 W/m 6,6 C 7,2 C 1,6 km/h (1 Bft) 97,14 %
23.09.2017 08:10 7,2 C 12,8 C 96 % 1022,1 hPa 0,0 l/m 0,0 km/h (0 Bft) S-SW 211 0 min 0,000 mm 0,0 UV-I 57 W/m 6,6 C 7,2 C 0,0 km/h (0 Bft) 100,00 %
23.09.2017 08:12 7,2 C 12,8 C 96 % 1022,1 hPa 0,0 l/m 0,0 km/h (0 Bft) S-SW 211 0 min 0,000 mm 0,0 UV-I 60 W/m 6,6 C 7,2 C 0,0 km/h (0 Bft) 98,00 %
23.09.2017 08:14 7,3 C 12,8 C 96 % 1022,1 hPa 0,0 l/m 0,0 km/h (0 Bft) S-SW 211 0 min 0,000 mm 0,0 UV-I 90 W/m 6,7 C 7,3 C 0,0 km/h (0 Bft) 98,11 %
23.09.2017 08:16 7,3 C 12,8 C 96 % 1022,2 hPa 0,0 l/m 0,0 km/h (0 Bft) S-SW 211 0 min 0,000 mm 0,0 UV-I 87 W/m 6,7 C 7,3 C 0,0 km/h (0 Bft) 100,00 %
23.09.2017 08:18 7,3 C 12,8 C 96 % 1022,2 hPa 0,0 l/m 0,0 km/h (0 Bft) S-SW 211 0 min 0,000 mm 0,0 UV-I 85 W/m 6,7 C 7,3 C 0,0 km/h (0 Bft) 100,00 %
23.09.2017 08:20 7,4 C 12,8 C 96 % 1022,2 hPa 0,0 l/m 0,1 km/h (0 Bft) S-SW 211 0 min 0,000 mm 0,0 UV-I 87 W/m 6,8 C 7,4 C 1,6 km/h (1 Bft) 100,00 %
23.09.2017 08:22 7,5 C 12,8 C 96 % 1022,3 hPa 0,0 l/m 0,0 km/h (0 Bft) S-SW 211 0 min 0,000 mm 0,0 UV-I 91 W/m 6,9 C 7,5 C 0,0 km/h (0 Bft) 97,87 %
23.09.2017 08:24 7,6 C 12,8 C 96 % 1022,2 hPa 0,0 l/m 0,0 km/h (0 Bft) S-SW 211 0 min 0,000 mm 0,0 UV-I 101 W/m 7,0 C 7,6 C 0,0 km/h (0 Bft) 100,00 %
23.09.2017 08:25 7,6 C 12,8 C 96 % 1022,2 hPa 0,0 l/m 0,0 km/h (0 Bft) N 0 0 min 0,000 mm 0,0 UV-I 100 W/m 7,0 C 7,6 C 0,0 km/h (0 Bft) 98,25 %
23.09.2017 08:28 7,7 C 12,8 C 97 % 1022,2 hPa 0,0 l/m 2,1 km/h (1 Bft) S-SW 211 0 min 0,000 mm 0,0 UV-I 121 W/m 7,3 C 7,7 C 3,2 km/h (1 Bft) 100,00 %
23.09.2017 08:30 7,8 C 12,8 C 97 % 1022,2 hPa 0,0 l/m 1,8 km/h (1 Bft) S-SW 211 0 min 0,000 mm 0,0 UV-I 116 W/m 7,4 C 7,8 C 3,2 km/h (1 Bft) 100,00 %
23.09.2017 08:32 7,8 C 12,8 C 96 % 1022,3 hPa 0,0 l/m 1,1 km/h (1 Bft) S-SW 211 0 min 0,000 mm 0,0 UV-I 115 W/m 7,2 C 7,8 C 3,2 km/h (1 Bft) 100,00 %
23.09.2017 08:34 7,8 C 12,8 C 96 % 1022,4 hPa 0,0 l/m 0,5 km/h (0 Bft) S-SW 211 0 min 0,000 mm 0,0 UV-I 136 W/m 7,2 C 7,8 C 1,6 km/h (1 Bft) 96,30 %
23.09.2017 08:36 7,9 C 12,8 C 96 % 1022,3 hPa 0,0 l/m 1,6 km/h (1 Bft) S-SW 211 0 min 0,000 mm 0,0 UV-I 148 W/m 7,3 C 7,9 C 4,8 km/h (1 Bft) 100,00 %
23.09.2017 08:38 7,9 C 12,8 C 96 % 1022,4 hPa 0,0 l/m 0,4 km/h (0 Bft) S-SW 211 0 min 0,000 mm 0,0 UV-I 149 W/m 7,3 C 7,9 C 1,6 km/h (1 Bft) 100,00 %
23.09.2017 08:40 8,0 C 12,8 C 97 % 1022,5 hPa 0,0 l/m 0,6 km/h (0 Bft) S-SW 211 0 min 0,000 mm 0,0 UV-I 142 W/m 7,6 C 8,0 C 3,2 km/h (1 Bft) 100,00 %
23.09.2017 08:42 8,1 C 12,8 C 97 % 1022,5 hPa 0,0 l/m 2,3 km/h (1 Bft) S-SW 211 0 min 0,000 mm 0,0 UV-I 140 W/m 7,7 C 8,1 C 4,8 km/h (1 Bft) 100,00 %
23.09.2017 08:44 8,1 C 12,8 C 97 % 1022,5 hPa 0,0 l/m 3,6 km/h (1 Bft) S 175 0 min 0,000 mm 0,0 UV-I 142 W/m 7,7 C 8,1 C 6,4 km/h (2 Bft) 91,49 %
23.09.2017 08:46 8,1 C 12,8 C 96 % 1022,4 hPa 0,0 l/m 3,5 km/h (1 Bft) S 178 0 min 0,000 mm 0,0 UV-I 143 W/m 7,5 C 8,1 C 6,4 km/h (2 Bft) 98,00 %
23.09.2017 08:48 8,2 C 12,8 C 96 % 1022,3 hPa 0,0 l/m 2,0 km/h (1 Bft) S 178 0 min 0,000 mm 0,0 UV-I 141 W/m 7,6 C 8,2 C 4,8 km/h (1 Bft) 100,00 %
23.09.2017 08:50 8,2 C 12,8 C 96 % 1022,4 hPa 0,0 l/m 3,7 km/h (1 Bft) S 188 0 min 0,000 mm 0,0 UV-I 147 W/m 7,6 C 8,2 C 6,4 km/h (2 Bft) 97,87 %
23.09.2017 08:52 8,2 C 12,8 C 96 % 1022,4 hPa 0,0 l/m 4,0 km/h (1 Bft) S-SW 203 0 min 0,000 mm 0,0 UV-I 150 W/m 7,6 C 8,2 C 6,4 km/h (2 Bft) 100,00 %
23.09.2017 08:54 8,2 C 12,8 C 96 % 1022,4 hPa 0,0 l/m 0,4 km/h (0 Bft) S-SW 203 0 min 0,000 mm 0,0 UV-I 155 W/m 7,6 C 8,2 C 1,6 km/h (1 Bft) 100,00 %
23.09.2017 08:56 8,3 C 12,8 C 96 % 1022,4 hPa 0,0 l/m 0,5 km/h (0 Bft) S-SW 203 0 min 0,000 mm 0,0 UV-I 152 W/m 7,7 C 8,3 C 1,6 km/h (1 Bft) 100,00 %
23.09.2017 08:58 8,3 C 12,8 C 96 % 1022,4 hPa 0,0 l/m 1,2 km/h (1 Bft) S-SW 203 0 min 0,000 mm 0,0 UV-I 146 W/m 7,7 C 8,3 C 3,2 km/h (1 Bft) 100,00 %
23.09.2017 09:00 8,3 C 12,8 C 97 % 1022,4 hPa 0,0 l/m 0,4 km/h (0 Bft) S-SW 203 0 min 0,051 mm 0,1 UV-I 139 W/m 7,9 C 8,3 C 1,6 km/h (1 Bft) 98,00 %
23.09.2017 09:02 8,3 C 12,8 C 97 % 1022,4 hPa 0,0 l/m 0,9 km/h (0 Bft) S-SW 203 0 min 0,000 mm 0,5 UV-I 159 W/m 7,9 C 8,3 C 3,2 km/h (1 Bft) 100,00 %
23.09.2017 09:04 8,4 C 12,8 C 97 % 1022,5 hPa 0,0 l/m 4,0 km/h (1 Bft) S-SW 203 0 min 0,000 mm 0,5 UV-I 187 W/m 8,0 C 8,4 C 8,0 km/h (2 Bft) 93,62 %
23.09.2017 09:06 8,5 C 12,8 C 97 % 1022,4 hPa 0,0 l/m 5,1 km/h (1 Bft) S-SW 207 2 min 0,000 mm 0,6 UV-I 216 W/m 8,1 C 8,5 C 6,4 km/h (2 Bft) 98,11 %
23.09.2017 09:08 8,6 C 12,8 C 97 % 1022,4 hPa 0,0 l/m 1,7 km/h (1 Bft) S-SW 211 2 min 0,000 mm 0,6 UV-I 217 W/m 8,2 C 8,6 C 4,8 km/h (1 Bft) 97,37 %
23.09.2017 09:10 8,6 C 12,8 C 97 % 1022,4 hPa 0,0 l/m 2,9 km/h (1 Bft) S-SW 211 2 min 0,000 mm 0,6 UV-I 204 W/m 8,2 C 8,6 C 4,8 km/h (1 Bft) 98,11 %
23.09.2017 09:12 8,7 C 12,8 C 97 % 1022,4 hPa 0,0 l/m 3,1 km/h (1 Bft) SW 233 0 min 0,000 mm 0,6 UV-I 192 W/m 8,3 C 8,7 C 6,4 km/h (2 Bft) 95,74 %
23.09.2017 09:14 8,7 C 12,8 C 97 % 1022,4 hPa 0,0 l/m 2,6 km/h (1 Bft) SW 233 2 min 0,000 mm 0,6 UV-I 219 W/m 8,3 C 8,7 C 4,8 km/h (1 Bft) 98,00 %
23.09.2017 09:16 8,8 C 12,8 C 97 % 1022,4 hPa 0,0 l/m 2,5 km/h (1 Bft) SW 233 2 min 0,000 mm 0,6 UV-I 216 W/m 8,4 C 8,8 C 4,8 km/h (1 Bft) 97,44 %
23.09.2017 09:18 8,8 C 12,8 C 97 % 1022,3 hPa 0,0 l/m 1,6 km/h (1 Bft) SW 233 2 min 0,000 mm 0,6 UV-I 227 W/m 8,4 C 8,8 C 4,8 km/h (1 Bft) 97,87 %
23.09.2017 09:20 8,8 C 12,8 C 97 % 1022,3 hPa 0,0 l/m 5,3 km/h (1 Bft) S-SW 210 2 min 0,000 mm 0,7 UV-I 217 W/m 8,4 C 8,8 C 8,0 km/h (2 Bft) 94,00 %
23.09.2017 09:22 8,9 C 12,8 C 97 % 1022,3 hPa 0,0 l/m 4,8 km/h (1 Bft) SW 226 2 min 0,000 mm 0,7 UV-I 223 W/m 8,4 C 8,9 C 8,0 km/h (2 Bft) 96,23 %
23.09.2017 09:24 8,9 C 12,8 C 97 % 1022,3 hPa 0,0 l/m 6,1 km/h (2 Bft) SW 226 2 min 0,000 mm 0,8 UV-I 277 W/m 8,4 C 8,9 C 8,0 km/h (2 Bft) 97,14 %
23.09.2017 09:26 9,1 C 12,8 C 97 % 1022,3 hPa 0,0 l/m 5,9 km/h (2 Bft) S-SW 211 2 min 0,000 mm 0,8 UV-I 282 W/m 8,6 C 9,1 C 8,0 km/h (2 Bft) 98,21 %
23.09.2017 09:28 9,1 C 12,8 C 97 % 1022,4 hPa 0,0 l/m 4,9 km/h (1 Bft) S-SW 202 2 min 0,000 mm 0,8 UV-I 337 W/m 8,6 C 9,1 C 8,0 km/h (2 Bft) 94,29 %
23.09.2017 09:30 9,2 C 12,8 C 97 % 1022,3 hPa 0,0 l/m 5,3 km/h (1 Bft) S-SW 211 2 min 0,000 mm 0,8 UV-I 338 W/m 8,7 C 9,2 C 8,0 km/h (2 Bft) 96,23 %
23.09.2017 09:32 9,3 C 12,8 C 97 % 1022,2 hPa 0,0 l/m 6,2 km/h (2 Bft) S-SW 212 2 min 0,000 mm 0,9 UV-I 392 W/m 8,8 C 9,3 C 9,7 km/h (2 Bft) 91,49 %
23.09.2017 09:34 9,4 C 12,8 C 97 % 1022,3 hPa 0,0 l/m 5,4 km/h (1 Bft) S-SW 211 2 min 0,000 mm 1,0 UV-I 394 W/m 8,9 C 9,4 C 8,0 km/h (2 Bft) 96,23 %
23.09.2017 09:36 9,6 C 12,8 C 97 % 1022,4 hPa 0,0 l/m 3,5 km/h (1 Bft) S-SW 202 2 min 0,000 mm 1,0 UV-I 410 W/m 9,1 C 9,6 C 6,4 km/h (2 Bft) 95,12 %
23.09.2017 09:38 9,7 C 12,8 C 97 % 1022,4 hPa 0,0 l/m 3,0 km/h (1 Bft) SW 231 2 min 0,000 mm 1,0 UV-I 370 W/m 9,2 C 9,7 C 6,4 km/h (2 Bft) 94,34 %
23.09.2017 09:40 9,8 C 12,8 C 97 % 1022,5 hPa 0,0 l/m 1,2 km/h (1 Bft) SW 231 2 min 0,000 mm 1,0 UV-I 294 W/m 9,3 C 9,8 C 3,2 km/h (1 Bft) 97,56 %
23.09.2017 09:42 9,8 C 12,8 C 97 % 1022,5 hPa 0,0 l/m 1,1 km/h (1 Bft) NO 37 0 min 0,000 mm 0,8 UV-I 179 W/m 9,3 C 9,8 C 3,2 km/h (1 Bft) 94,00 %
23.09.2017 09:44 10,0 C 12,8 C 97 % 1022,5 hPa 0,0 l/m 0,2 km/h (0 Bft) NO 36 0 min 0,000 mm 0,8 UV-I 140 W/m 9,5 C 10,0 C 1,6 km/h (1 Bft) 95,74 %
23.09.2017 09:46 10,1 C 12,8 C 97 % 1022,4 hPa 0,0 l/m 0,1 km/h (0 Bft) NO 35 0 min 0,000 mm 0,8 UV-I 129 W/m 9,6 C 10,1 C 1,6 km/h (1 Bft) 97,73 %
23.09.2017 09:48 10,1 C 12,8 C 97 % 1022,4 hPa 0,0 l/m 1,9 km/h (1 Bft) N-NW 338 0 min 0,000 mm 0,9 UV-I 128 W/m 9,6 C 10,1 C 3,2 km/h (1 Bft) 92,31 %
23.09.2017 09:50 10,2 C 12,8 C 97 % 1022,3 hPa 0,0 l/m 3,3 km/h (1 Bft) S-SW 207 0 min 0,000 mm 1,0 UV-I 179 W/m 9,7 C 10,2 C 6,4 km/h (2 Bft) 95,24 %
23.09.2017 09:52 10,2 C 12,8 C 97 % 1022,3 hPa 0,0 l/m 4,3 km/h (1 Bft) W-SW 254 0 min 0,000 mm 1,0 UV-I 181 W/m 9,7 C 10,2 C 6,4 km/h (2 Bft) 98,11 %
23.09.2017 09:54 10,2 C 12,8 C 97 % 1022,4 hPa 0,0 l/m 2,1 km/h (1 Bft) W-SW 258 0 min 0,000 mm 1,1 UV-I 205 W/m 9,7 C 10,2 C 4,8 km/h (1 Bft) 98,00 %
23.09.2017 09:56 10,2 C 12,8 C 97 % 1022,4 hPa 0,0 l/m 0,7 km/h (0 Bft) N-NO 17 0 min 0,000 mm 1,1 UV-I 221 W/m 9,7 C 10,2 C 3,2 km/h (1 Bft) 95,74 %
23.09.2017 09:58 10,2 C 12,8 C 97 % 1022,4 hPa 0,0 l/m 1,4 km/h (1 Bft) N-NO 15 0 min 0,000 mm 1,1 UV-I 227 W/m 9,7 C 10,2 C 4,8 km/h (1 Bft) 98,00 %
23.09.2017 10:00 10,3 C 12,8 C 97 % 1022,4 hPa 0,0 l/m 5,0 km/h (1 Bft) N-NO 30 0 min 0,102 mm 1,1 UV-I 236 W/m 9,8 C 10,3 C 8,0 km/h (2 Bft) 95,12 %
23.09.2017 10:02 10,4 C 12,8 C 97 % 1022,3 hPa 0,0 l/m 4,3 km/h (1 Bft) N-NO 26 0 min 0,000 mm 1,1 UV-I 234 W/m 9,9 C 10,4 C 8,0 km/h (2 Bft) 98,11 %
23.09.2017 10:04 10,4 C 12,8 C 97 % 1022,4 hPa 0,0 l/m 3,7 km/h (1 Bft) NO 36 0 min 0,000 mm 1,1 UV-I 204 W/m 9,9 C 10,4 C 6,4 km/h (2 Bft) 96,23 %
23.09.2017 10:06 10,5 C 12,8 C 97 % 1022,3 hPa 0,0 l/m 1,9 km/h (1 Bft) NO 36 0 min 0,000 mm 1,1 UV-I 206 W/m 10,0 C 10,5 C 4,8 km/h (1 Bft) 97,56 %
23.09.2017 10:08 10,6 C 12,8 C 97 % 1022,3 hPa 0,0 l/m 0,4 km/h (0 Bft) N-NO 23 0 min 0,000 mm 1,1 UV-I 225 W/m 10,1 C 10,6 C 3,2 km/h (1 Bft) 97,87 %
23.09.2017 10:10 10,6 C 12,8 C 97 % 1022,3 hPa 0,0 l/m 0,2 km/h (0 Bft) N-NO 22 0 min 0,000 mm 1,2 UV-I 200 W/m 10,1 C 10,6 C 1,6 km/h (1 Bft) 95,74 %
23.09.2017 10:12 10,6 C 12,8 C 97 % 1022,3 hPa 0,0 l/m 1,6 km/h (1 Bft) W-NW 294 0 min 0,000 mm 1,2 UV-I 203 W/m 10,1 C 10,6 C 6,4 km/h (2 Bft) 94,29 %
23.09.2017 10:14 10,6 C 12,8 C 97 % 1022,3 hPa 0,0 l/m 0,5 km/h (0 Bft) W-NW 292 2 min 0,000 mm 1,4 UV-I 279 W/m 10,1 C 10,6 C 3,2 km/h (1 Bft) 96,43 %
23.09.2017 10:16 10,7 C 12,8 C 97 % 1022,3 hPa 0,0 l/m 1,5 km/h (1 Bft) W-NW 298 2 min 0,000 mm 1,6 UV-I 458 W/m 10,2 C 10,7 C 4,8 km/h (1 Bft) 97,87 %
23.09.2017 10:18 10,7 C 12,8 C 97 % 1022,3 hPa 0,0 l/m 0,6 km/h (0 Bft) W-NW 298 2 min 0,000 mm 1,6 UV-I 455 W/m 10,2 C 10,7 C 1,6 km/h (1 Bft) 98,00 %
23.09.2017 10:20 10,8 C 12,8 C 97 % 1022,3 hPa 0,0 l/m 0,4 km/h (0 Bft) W-NW 298 2 min 0,000 mm 1,6 UV-I 493 W/m 10,3 C 10,8 C 1,6 km/h (1 Bft) 97,56 %
23.09.2017 10:22 10,9 C 12,8 C 97 % 1022,2 hPa 0,0 l/m 1,3 km/h (1 Bft) W-NW 298 2 min 0,000 mm 1,7 UV-I 525 W/m 10,4 C 10,9 C 3,2 km/h (1 Bft) 98,11 %
23.09.2017 10:24 10,9 C 12,8 C 97 % 1022,2 hPa 0,0 l/m 3,2 km/h (1 Bft) S-SW 193 2 min 0,000 mm 1,6 UV-I 476 W/m 10,4 C 10,9 C 6,4 km/h (2 Bft) 97,87 %
23.09.2017 10:26 11,1 C 12,8 C 97 % 1022,2 hPa 0,0 l/m 3,9 km/h (1 Bft) W 268 2 min 0,000 mm 1,5 UV-I 397 W/m 10,6 C 11,1 C 6,4 km/h (2 Bft) 97,37 %
23.09.2017 10:28 11,1 C 12,8 C 97 % 1022,2 hPa 0,0 l/m 2,5 km/h (1 Bft) W 268 2 min 0,000 mm 1,4 UV-I 310 W/m 10,6 C 11,1 C 4,8 km/h (1 Bft) 96,23 %
23.09.2017 10:30 11,2 C 12,8 C 97 % 1022,1 hPa 0,0 l/m 2,7 km/h (1 Bft) W 269 0 min 0,000 mm 1,3 UV-I 283 W/m 10,7 C 11,2 C 4,8 km/h (1 Bft) 98,00 %
23.09.2017 10:32 11,2 C 12,8 C 97 % 1022,1 hPa 0,0 l/m 0,3 km/h (0 Bft) W 269 0 min 0,000 mm 1,2 UV-I 254 W/m 10,7 C 11,2 C 3,2 km/h (1 Bft) 100,00 %
23.09.2017 10:34 11,3 C 12,8 C 97 % 1022,1 hPa 0,0 l/m 0,4 km/h (0 Bft) W 269 0 min 0,000 mm 1,2 UV-I 237 W/m 10,8 C 11,3 C 3,2 km/h (1 Bft) 98,44 %
23.09.2017 10:36 11,3 C 12,8 C 97 % 1022,0 hPa 0,0 l/m 2,2 km/h (1 Bft) W-SW 250 0 min 0,000 mm 1,2 UV-I 233 W/m 10,8 C 11,3 C 6,4 km/h (2 Bft) 98,00 %
23.09.2017 10:38 11,4 C 12,8 C 97 % 1022,0 hPa 0,0 l/m 5,4 km/h (1 Bft) W-SW 257 0 min 0,000 mm 1,2 UV-I 237 W/m 10,9 C 11,4 C 8,0 km/h (2 Bft) 97,92 %
23.09.2017 10:40 11,6 C 12,8 C 97 % 1021,9 hPa 0,0 l/m 4,9 km/h (1 Bft) W-SW 252 0 min 0,000 mm 1,2 UV-I 244 W/m 11,1 C 11,6 C 9,7 km/h (2 Bft) 97,87 %
23.09.2017 10:42 11,6 C 12,8 C 97 % 1021,9 hPa 0,0 l/m 3,5 km/h (1 Bft) W-SW 246 0 min 0,000 mm 1,3 UV-I 249 W/m 11,1 C 11,6 C 6,4 km/h (2 Bft) 97,37 %
23.09.2017 10:44 11,7 C 12,8 C 97 % 1021,9 hPa 0,0 l/m 5,8 km/h (2 Bft) W-SW 240 0 min 0,000 mm 1,3 UV-I 254 W/m 11,2 C 11,7 C 11,3 km/h (2 Bft) 98,00 %
23.09.2017 10:46 11,8 C 12,8 C 97 % 1021,9 hPa 0,0 l/m 8,5 km/h (2 Bft) W 262 0 min 0,000 mm 1,3 UV-I 265 W/m 11,3 C 10,4 C 12,9 km/h (3 Bft) 98,00 %
23.09.2017 10:48 11,8 C 12,8 C 96 % 1021,9 hPa 0,0 l/m 6,0 km/h (2 Bft) SW 228 0 min 0,000 mm 1,4 UV-I 275 W/m 11,2 C 11,8 C 8,0 km/h (2 Bft) 95,12 %
23.09.2017 10:50 11,9 C 12,8 C 96 % 1021,9 hPa 0,0 l/m 2,0 km/h (1 Bft) SW 229 0 min 0,000 mm 1,4 UV-I 276 W/m 11,3 C 11,9 C 4,8 km/h (1 Bft) 95,74 %
23.09.2017 10:52 11,9 C 12,8 C 96 % 1021,9 hPa 0,0 l/m 4,0 km/h (1 Bft) W-NW 288 0 min 0,000 mm 1,4 UV-I 273 W/m 11,3 C 11,9 C 6,4 km/h (2 Bft) 98,00 %
23.09.2017 10:54 12,1 C 12,8 C 96 % 1021,9 hPa 0,0 l/m 0,7 km/h (0 Bft) W 280 0 min 0,000 mm 1,5 UV-I 283 W/m 11,5 C 12,1 C 3,2 km/h (1 Bft) 100,00 %
23.09.2017 10:56 12,1 C 12,8 C 96 % 1021,9 hPa 0,0 l/m 1,7 km/h (1 Bft) W 280 0 min 0,000 mm 1,5 UV-I 287 W/m 11,5 C 12,1 C 4,8 km/h (1 Bft) 97,37 %
23.09.2017 10:58 12,2 C 12,8 C 96 % 1021,8 hPa 0,0 l/m 3,8 km/h (1 Bft) W 281 0 min 0,000 mm 1,6 UV-I 310 W/m 11,6 C 12,2 C 4,8 km/h (1 Bft) 95,45 %
23.09.2017 11:00 12,2 C 12,8 C 96 % 1021,8 hPa 0,0 l/m 0,6 km/h (0 Bft) W 281 2 min 0,152 mm 1,6 UV-I 322 W/m 11,6 C 12,2 C 3,2 km/h (1 Bft) 96,43 %
23.09.2017 11:02 12,3 C 12,8 C 96 % 1021,8 hPa 0,0 l/m 1,8 km/h (1 Bft) NW 321 0 min 0,000 mm 1,7 UV-I 318 W/m 11,7 C 12,3 C 6,4 km/h (2 Bft) 97,37 %
23.09.2017 11:04 12,3 C 12,8 C 95 % 1021,8 hPa 0,0 l/m 1,7 km/h (1 Bft) W-NW 303 2 min 0,000 mm 1,8 UV-I 364 W/m 11,5 C 12,3 C 3,2 km/h (1 Bft) 92,86 %
23.09.2017 11:06 12,4 C 12,8 C 95 % 1021,9 hPa 0,0 l/m 0,3 km/h (0 Bft) W-NW 303 2 min 0,000 mm 1,7 UV-I 364 W/m 11,6 C 12,4 C 3,2 km/h (1 Bft) 94,74 %
23.09.2017 11:08 12,4 C 12,8 C 95 % 1021,9 hPa 0,0 l/m 1,4 km/h (1 Bft) NW 304 0 min 0,000 mm 1,6 UV-I 306 W/m 11,6 C 12,4 C 3,2 km/h (1 Bft) 98,21 %
23.09.2017 11:10 12,6 C 12,8 C 95 % 1022,0 hPa 0,0 l/m 1,5 km/h (1 Bft) N-NO 12 0 min 0,000 mm 1,7 UV-I 282 W/m 11,8 C 12,6 C 6,4 km/h (2 Bft) 96,30 %
23.09.2017 11:12 12,7 C 12,8 C 94 % 1021,9 hPa 0,0 l/m 2,2 km/h (1 Bft) N 350 0 min 0,000 mm 1,8 UV-I 306 W/m 11,8 C 12,7 C 4,8 km/h (1 Bft) 97,01 %
23.09.2017 11:14 12,8 C 12,8 C 94 % 1021,9 hPa 0,0 l/m 2,6 km/h (1 Bft) N-NO 17 2 min 0,000 mm 2,1 UV-I 363 W/m 11,9 C 12,8 C 4,8 km/h (1 Bft) 97,62 %
23.09.2017 11:16 12,9 C 12,8 C 94 % 1021,9 hPa 0,0 l/m 1,1 km/h (1 Bft) N 9 2 min 0,000 mm 2,1 UV-I 490 W/m 12,0 C 12,9 C 3,2 km/h (1 Bft) 98,00 %
23.09.2017 11:18 13,1 C 12,8 C 94 % 1021,9 hPa 0,0 l/m 1,5 km/h (1 Bft) N-NW 346 2 min 0,000 mm 2,5 UV-I 538 W/m 12,2 C 13,1 C 4,8 km/h (1 Bft) 96,00 %
23.09.2017 11:20 13,2 C 12,8 C 93 % 1021,9 hPa 0,0 l/m 3,0 km/h (1 Bft) N-NO 28 2 min 0,000 mm 2,4 UV-I 573 W/m 12,1 C 13,2 C 4,8 km/h (1 Bft) 97,37 %
23.09.2017 11:22 13,3 C 12,8 C 93 % 1022,0 hPa 0,0 l/m 4,7 km/h (1 Bft) N-NO 30 2 min 0,000 mm 2,4 UV-I 715 W/m 12,2 C 13,3 C 8,0 km/h (2 Bft) 96,00 %
23.09.2017 11:24 13,4 C 12,8 C 93 % 1021,9 hPa 0,0 l/m 3,5 km/h (1 Bft) N 5 2 min 0,000 mm 2,7 UV-I 699 W/m 12,3 C 13,4 C 6,4 km/h (2 Bft) 98,00 %
23.09.2017 11:26 13,6 C 12,8 C 93 % 1021,9 hPa 0,0 l/m 1,5 km/h (1 Bft) N 355 2 min 0,000 mm 2,7 UV-I 696 W/m 12,5 C 13,6 C 4,8 km/h (1 Bft) 97,87 %
23.09.2017 11:28 13,7 C 12,8 C 92 % 1021,9 hPa 0,0 l/m 7,3 km/h (2 Bft) N-NO 28 2 min 0,000 mm 2,5 UV-I 715 W/m 12,4 C 13,2 C 16,1 km/h (3 Bft) 100,00 %
23.09.2017 11:30 13,8 C 12,8 C 92 % 1021,9 hPa 0,0 l/m 7,2 km/h (2 Bft) N-NO 27 2 min 0,000 mm 2,6 UV-I 715 W/m 12,5 C 13,3 C 16,1 km/h (3 Bft) 100,00 %
23.09.2017 11:32 13,8 C 12,8 C 92 % 1021,9 hPa 0,0 l/m 6,8 km/h (2 Bft) N 350 2 min 0,000 mm 2,7 UV-I 696 W/m 12,5 C 13,6 C 9,7 km/h (2 Bft) 100,00 %
23.09.2017 11:34 13,9 C 12,8 C 91 % 1021,9 hPa 0,0 l/m 1,8 km/h (1 Bft) N 351 2 min 0,000 mm 2,8 UV-I 690 W/m 12,5 C 13,9 C 4,8 km/h (1 Bft) 100,00 %
23.09.2017 11:36 14,0 C 12,8 C 90 % 1021,8 hPa 0,0 l/m 2,0 km/h (1 Bft) N-NO 13 2 min 0,000 mm 2,8 UV-I 692 W/m 12,4 C 14,0 C 4,8 km/h (1 Bft) 100,00 %
23.09.2017 11:38 14,1 C 12,8 C 90 % 1021,8 hPa 0,0 l/m 1,5 km/h (1 Bft) N-NO 13 2 min 0,000 mm 2,8 UV-I 672 W/m 12,5 C 14,1 C 3,2 km/h (1 Bft) 98,00 %
23.09.2017 11:40 14,2 C 12,8 C 89 % 1021,8 hPa 0,0 l/m 0,9 km/h (0 Bft) N-NO 15 2 min 0,000 mm 2,9 UV-I 617 W/m 12,4 C 14,2 C 4,8 km/h (1 Bft) 100,00 %
23.09.2017 11:42 14,3 C 12,8 C 89 % 1021,7 hPa 0,0 l/m 0,6 km/h (0 Bft) W-NW 294 2 min 0,000 mm 3,0 UV-I 641 W/m 12,5 C 14,3 C 3,2 km/h (1 Bft) 100,00 %
23.09.2017 11:44 14,4 C 12,8 C 90 % 1021,7 hPa 0,0 l/m 1,9 km/h (1 Bft) W-NW 294 2 min 0,000 mm 3,0 UV-I 666 W/m 12,8 C 14,4 C 4,8 km/h (1 Bft) 97,56 %
23.09.2017 11:46 14,5 C 12,8 C 88 % 1021,7 hPa 0,0 l/m 4,4 km/h (1 Bft) W-SW 248 2 min 0,000 mm 3,0 UV-I 663 W/m 12,5 C 14,5 C 6,4 km/h (2 Bft) 100,00 %
23.09.2017 11:48 14,6 C 12,8 C 88 % 1021,7 hPa 0,0 l/m 2,0 km/h (1 Bft) W-NW 293 2 min 0,000 mm 3,0 UV-I 666 W/m 12,6 C 14,6 C 6,4 km/h (2 Bft) 100,00 %
23.09.2017 11:50 14,7 C 12,8 C 86 % 1021,7 hPa 0,0 l/m 2,7 km/h (1 Bft) W 265 2 min 0,000 mm 3,1 UV-I 668 W/m 12,4 C 14,7 C 4,8 km/h (1 Bft) 98,00 %
23.09.2017 11:52 14,8 C 12,8 C 85 % 1021,7 hPa 0,0 l/m 1,2 km/h (1 Bft) NW 324 2 min 0,000 mm 3,1 UV-I 663 W/m 12,3 C 14,8 C 3,2 km/h (1 Bft) 97,92 %
23.09.2017 11:54 14,8 C 12,8 C 84 % 1021,7 hPa 0,0 l/m 0,6 km/h (0 Bft) N-NW 327 2 min 0,000 mm 3,1 UV-I 667 W/m 12,1 C 14,8 C 3,2 km/h (1 Bft) 97,87 %
23.09.2017 11:56 14,9 C 12,8 C 83 % 1021,7 hPa 0,0 l/m 2,7 km/h (1 Bft) W-NW 294 2 min 0,000 mm 3,1 UV-I 667 W/m 12,0 C 14,9 C 6,4 km/h (2 Bft) 97,87 %
23.09.2017 11:58 15,1 C 12,8 C 81 % 1021,7 hPa 0,0 l/m 3,1 km/h (1 Bft) NW 326 2 min 0,000 mm 3,1 UV-I 661 W/m 11,9 C 15,1 C 6,4 km/h (2 Bft) 100,00 %
23.09.2017 12:00 15,2 C 12,8 C 82 % 1021,6 hPa 0,0 l/m 1,6 km/h (1 Bft) NW 312 2 min 0,280 mm 3,1 UV-I 659 W/m 12,1 C 15,2 C 4,8 km/h (1 Bft) 96,43 %
23.09.2017 12:02 15,3 C 12,8 C 82 % 1021,6 hPa 0,0 l/m 1,5 km/h (1 Bft) NW 319 2 min 0,000 mm 3,1 UV-I 664 W/m 12,2 C 15,3 C 3,2 km/h (1 Bft) 100,00 %
23.09.2017 12:04 15,3 C 12,8 C 82 % 1021,6 hPa 0,0 l/m 1,9 km/h (1 Bft) N 355 2 min 0,000 mm 3,1 UV-I 660 W/m 12,2 C 15,3 C 4,8 km/h (1 Bft) 100,00 %
23.09.2017 12:06 15,4 C 12,8 C 82 % 1021,6 hPa 0,0 l/m 2,7 km/h (1 Bft) W-SW 257 2 min 0,000 mm 3,2 UV-I 663 W/m 12,3 C 15,4 C 6,4 km/h (2 Bft) 97,87 %
23.09.2017 12:08 15,5 C 12,8 C 81 % 1021,6 hPa 0,0 l/m 2,1 km/h (1 Bft) N-NW 341 2 min 0,000 mm 3,1 UV-I 650 W/m 12,3 C 15,5 C 4,8 km/h (1 Bft) 100,00 %
23.09.2017 12:10 15,7 C 12,8 C 87 % 1021,6 hPa 0,0 l/m 2,2 km/h (1 Bft) N-NW 329 2 min 0,000 mm 3,2 UV-I 654 W/m 13,5 C 15,7 C 4,8 km/h (1 Bft) 100,00 %
23.09.2017 12:12 15,7 C 12,8 C 83 % 1021,6 hPa 0,0 l/m 0,6 km/h (0 Bft) N-NW 342 2 min 0,000 mm 3,2 UV-I 661 W/m 12,8 C 15,7 C 1,6 km/h (1 Bft) 97,87 %
23.09.2017 12:14 15,7 C 12,8 C 80 % 1021,6 hPa 0,0 l/m 3,8 km/h (1 Bft) W 274 2 min 0,000 mm 3,2 UV-I 663 W/m 12,3 C 15,7 C 12,9 km/h (3 Bft) 100,00 %
23.09.2017 12:16 15,7 C 12,8 C 78 % 1021,5 hPa 0,0 l/m 4,9 km/h (1 Bft) NW 306 2 min 0,000 mm 3,2 UV-I 660 W/m 11,9 C 15,7 C 6,4 km/h (2 Bft) 100,00 %
23.09.2017 12:18 15,7 C 12,8 C 76 % 1021,5 hPa 0,0 l/m 2,7 km/h (1 Bft) W-NW 294 2 min 0,000 mm 3,3 UV-I 669 W/m 11,5 C 15,7 C 6,4 km/h (2 Bft) 100,00 %
23.09.2017 12:20 15,7 C 12,8 C 77 % 1021,5 hPa 0,0 l/m 3,4 km/h (1 Bft) W-SW 256 2 min 0,000 mm 3,3 UV-I 666 W/m 11,7 C 15,7 C 6,4 km/h (2 Bft) 100,00 %
23.09.2017 12:22 15,7 C 12,8 C 79 % 1021,5 hPa 0,0 l/m 3,7 km/h (1 Bft) W-NW 289 2 min 0,000 mm 3,2 UV-I 659 W/m 12,1 C 15,7 C 6,4 km/h (2 Bft) 100,00 %
23.09.2017 12:24 15,8 C 12,8 C 73 % 1021,5 hPa 0,0 l/m 1,9 km/h (1 Bft) NW 304 2 min 0,000 mm 3,3 UV-I 667 W/m 11,0 C 15,8 C 4,8 km/h (1 Bft) 100,00 %
23.09.2017 12:26 15,8 C 12,8 C 74 % 1021,5 hPa 0,0 l/m 2,8 km/h (1 Bft) N 349 2 min 0,000 mm 3,3 UV-I 669 W/m 11,2 C 15,8 C 4,8 km/h (1 Bft) 100,00 %
23.09.2017 12:28 15,9 C 12,8 C 74 % 1021,5 hPa 0,0 l/m 4,0 km/h (1 Bft) W-NW 285 2 min 0,000 mm 3,3 UV-I 669 W/m 11,3 C 15,9 C 6,4 km/h (2 Bft) 100,00 %
23.09.2017 12:30 16,0 C 12,8 C 71 % 1021,5 hPa 0,0 l/m 5,3 km/h (1 Bft) W-SW 257 2 min 0,000 mm 3,3 UV-I 668 W/m 10,7 C 16,0 C 11,3 km/h (2 Bft) 100,00 %
23.09.2017 12:32 16,1 C 12,8 C 67 % 1021,5 hPa 0,0 l/m 5,3 km/h (1 Bft) NW 305 2 min 0,000 mm 3,3 UV-I 668 W/m 10,0 C 16,1 C 11,3 km/h (2 Bft) 100,00 %
23.09.2017 12:34 16,1 C 12,8 C 67 % 1021,5 hPa 0,0 l/m 4,1 km/h (1 Bft) W 273 2 min 0,000 mm 3,3 UV-I 670 W/m 10,0 C 16,1 C 8,0 km/h (2 Bft) 98,00 %
23.09.2017 12:36 16,2 C 12,8 C 69 % 1021,4 hPa 0,0 l/m 3,9 km/h (1 Bft) W-NW 299 2 min 0,000 mm 3,3 UV-I 668 W/m 10,5 C 16,2 C 6,4 km/h (2 Bft) 100,00 %
23.09.2017 12:38 16,3 C 12,8 C 72 % 1021,4 hPa 0,0 l/m 2,1 km/h (1 Bft) N-NW 328 2 min 0,000 mm 3,3 UV-I 666 W/m 11,2 C 16,3 C 4,8 km/h (1 Bft) 100,00 %
23.09.2017 12:40 16,4 C 12,8 C 72 % 1021,3 hPa 0,0 l/m 2,4 km/h (1 Bft) W 281 2 min 0,000 mm 3,3 UV-I 667 W/m 11,3 C 16,4 C 4,8 km/h (1 Bft) 100,00 %
23.09.2017 12:42 16,5 C 12,8 C 70 % 1021,3 hPa 0,0 l/m 2,1 km/h (1 Bft) W-NW 290 2 min 0,000 mm 3,3 UV-I 668 W/m 11,0 C 16,5 C 4,8 km/h (1 Bft) 100,00 %
23.09.2017 12:44 16,6 C 12,8 C 70 % 1021,3 hPa 0,0 l/m 4,4 km/h (1 Bft) W-NW 292 2 min 0,000 mm 3,3 UV-I 665 W/m 11,1 C 16,6 C 8,0 km/h (2 Bft) 100,00 %
23.09.2017 12:46 16,7 C 12,8 C 70 % 1021,3 hPa 0,0 l/m 3,0 km/h (1 Bft) N-NW 332 2 min 0,000 mm 3,3 UV-I 664 W/m 11,2 C 16,7 C 8,0 km/h (2 Bft) 100,00 %
23.09.2017 12:48 16,7 C 12,8 C 71 % 1021,3 hPa 0,0 l/m 3,7 km/h (1 Bft) N 360 2 min 0,000 mm 3,3 UV-I 656 W/m 11,4 C 16,7 C 6,4 km/h (2 Bft) 95,74 %
23.09.2017 12:50 16,7 C 12,8 C 71 % 1021,2 hPa 0,0 l/m 4,9 km/h (1 Bft) NW 307 2 min 0,000 mm 3,3 UV-I 662 W/m 11,4 C 16,7 C 16,1 km/h (3 Bft) 96,00 %
23.09.2017 12:52 16,7 C 12,8 C 71 % 1021,3 hPa 0,0 l/m 5,4 km/h (1 Bft) W 270 2 min 0,000 mm 3,3 UV-I 665 W/m 11,4 C 16,7 C 11,3 km/h (2 Bft) 98,00 %
23.09.2017 12:54 16,8 C 12,8 C 66 % 1021,2 hPa 0,0 l/m 2,2 km/h (1 Bft) W-SW 257 2 min 0,000 mm 3,4 UV-I 671 W/m 10,4 C 16,8 C 6,4 km/h (2 Bft) 97,56 %
23.09.2017 12:56 16,6 C 12,8 C 66 % 1021,2 hPa 0,0 l/m 3,9 km/h (1 Bft) W 259 2 min 0,000 mm 3,4 UV-I 673 W/m 10,2 C 16,6 C 8,0 km/h (2 Bft) 98,00 %
23.09.2017 12:58 16,4 C 12,8 C 65 % 1021,2 hPa 0,0 l/m 8,0 km/h (2 Bft) W-NW 293 2 min 0,000 mm 3,4 UV-I 680 W/m 9,8 C 15,6 C 12,9 km/h (3 Bft) 98,11 %
23.09.2017 13:00 16,4 C 12,8 C 65 % 1021,2 hPa 0,0 l/m 4,8 km/h (1 Bft) W-SW 244 2 min 0,355 mm 3,4 UV-I 677 W/m 9,8 C 16,4 C 9,7 km/h (2 Bft) 97,37 %
23.09.2017 13:02 16,4 C 12,8 C 65 % 1021,2 hPa 0,0 l/m 9,0 km/h (2 Bft) W-SW 257 2 min 0,000 mm 3,3 UV-I 671 W/m 9,8 C 15,1 C 14,5 km/h (3 Bft) 97,87 %
23.09.2017 13:04 16,6 C 12,8 C 66 % 1021,2 hPa 0,0 l/m 5,4 km/h (1 Bft) NW 305 2 min 0,000 mm 3,3 UV-I 667 W/m 10,2 C 16,6 C 9,7 km/h (2 Bft) 96,00 %
23.09.2017 13:06 16,6 C 12,8 C 63 % 1021,1 hPa 0,0 l/m 5,1 km/h (1 Bft) W 267 2 min 0,000 mm 3,3 UV-I 671 W/m 9,5 C 16,6 C 11,3 km/h (2 Bft) 96,67 %
23.09.2017 13:08 16,7 C 12,8 C 63 % 1021,1 hPa 0,0 l/m 10,2 km/h (2 Bft) W-NW 300 2 min 0,000 mm 3,3 UV-I 668 W/m 9,6 C 14,9 C 14,5 km/h (3 Bft) 96,43 %
23.09.2017 13:10 16,6 C 12,8 C 63 % 1021,0 hPa 0,0 l/m 6,8 km/h (2 Bft) W-SW 246 2 min 0,000 mm 3,3 UV-I 668 W/m 9,5 C 16,4 C 11,3 km/h (2 Bft) 98,28 %
23.09.2017 13:12 16,7 C 12,8 C 66 % 1021,0 hPa 0,0 l/m 5,0 km/h (1 Bft) W-SW 248 2 min 0,000 mm 3,3 UV-I 659 W/m 10,3 C 16,7 C 9,7 km/h (2 Bft) 97,44 %
23.09.2017 13:14 16,8 C 12,8 C 67 % 1021,0 hPa 0,0 l/m 4,6 km/h (1 Bft) W-SW 248 2 min 0,000 mm 3,3 UV-I 665 W/m 10,6 C 16,8 C 9,7 km/h (2 Bft) 98,11 %
23.09.2017 13:16 16,9 C 12,8 C 62 % 1021,0 hPa 0,0 l/m 5,5 km/h (1 Bft) W 267 2 min 0,000 mm 3,3 UV-I 666 W/m 9,6 C 16,9 C 12,9 km/h (3 Bft) 98,00 %
23.09.2017 13:18 16,8 C 12,8 C 61 % 1021,0 hPa 0,0 l/m 8,6 km/h (2 Bft) W-SW 257 2 min 0,000 mm 3,3 UV-I 664 W/m 9,2 C 15,7 C 12,9 km/h (3 Bft) 100,00 %
23.09.2017 13:20 16,8 C 12,8 C 65 % 1021,0 hPa 0,0 l/m 5,4 km/h (1 Bft) W-NW 292 2 min 0,000 mm 3,3 UV-I 660 W/m 10,2 C 16,8 C 9,7 km/h (2 Bft) 100,00 %
23.09.2017 13:22 17,0 C 12,8 C 62 % 1021,0 hPa 0,0 l/m 7,8 km/h (2 Bft) W-SW 244 2 min 0,000 mm 3,3 UV-I 656 W/m 9,7 C 16,3 C 16,1 km/h (3 Bft) 96,23 %
23.09.2017 13:24 17,0 C 12,8 C 63 % 1020,9 hPa 0,0 l/m 10,1 km/h (2 Bft) W-SW 244 2 min 0,000 mm 3,3 UV-I 659 W/m 9,9 C 15,3 C 19,3 km/h (3 Bft) 100,00 %
23.09.2017 13:26 17,0 C 12,8 C 62 % 1020,9 hPa 0,0 l/m 10,2 km/h (2 Bft) W 270 2 min 0,000 mm 3,2 UV-I 659 W/m 9,7 C 15,2 C 16,1 km/h (3 Bft) 100,00 %
23.09.2017 13:28 17,0 C 12,8 C 59 % 1020,9 hPa 0,0 l/m 5,6 km/h (1 Bft) NW 317 2 min 0,000 mm 3,2 UV-I 656 W/m 8,9 C 17,0 C 11,3 km/h (2 Bft) 100,00 %
23.09.2017 13:30 16,9 C 12,8 C 59 % 1020,9 hPa 0,0 l/m 3,5 km/h (1 Bft) NW 321 2 min 0,000 mm 3,2 UV-I 651 W/m 8,8 C 16,9 C 9,7 km/h (2 Bft) 100,00 %
23.09.2017 13:32 16,9 C 12,8 C 61 % 1020,9 hPa 0,0 l/m 3,7 km/h (1 Bft) SW 227 2 min 0,000 mm 3,2 UV-I 644 W/m 9,3 C 16,9 C 8,0 km/h (2 Bft) 100,00 %
23.09.2017 13:34 16,9 C 12,8 C 59 % 1020,8 hPa 0,0 l/m 9,0 km/h (2 Bft) W-NW 288 2 min 0,000 mm 3,2 UV-I 640 W/m 8,8 C 15,6 C 16,1 km/h (3 Bft) 97,37 %
23.09.2017 13:36 17,0 C 12,8 C 61 % 1020,8 hPa 0,0 l/m 6,5 km/h (2 Bft) W-NW 282 2 min 0,000 mm 3,2 UV-I 645 W/m 9,4 C 17,0 C 11,3 km/h (2 Bft) 100,00 %
23.09.2017 13:38 17,2 C 12,8 C 63 % 1020,7 hPa 0,0 l/m 2,4 km/h (1 Bft) O 82 2 min 0,000 mm 3,1 UV-I 639 W/m 10,1 C 17,2 C 4,8 km/h (1 Bft) 100,00 %
23.09.2017 13:40 17,3 C 12,8 C 61 % 1020,7 hPa 0,0 l/m 2,8 km/h (1 Bft) S-SO 161 2 min 0,000 mm 3,1 UV-I 647 W/m 9,7 C 17,3 C 6,4 km/h (2 Bft) 98,57 %
23.09.2017 13:42 17,4 C 12,8 C 63 % 1020,7 hPa 0,0 l/m 3,5 km/h (1 Bft) SW 227 2 min 0,000 mm 3,1 UV-I 635 W/m 10,3 C 17,4 C 11,3 km/h (2 Bft) 100,00 %
23.09.2017 13:44 17,5 C 12,8 C 62 % 1020,6 hPa 0,0 l/m 1,8 km/h (1 Bft) W 280 2 min 0,000 mm 3,1 UV-I 634 W/m 10,1 C 17,5 C 4,8 km/h (1 Bft) 100,00 %
23.09.2017 13:46 17,5 C 12,8 C 61 % 1020,6 hPa 0,0 l/m 2,6 km/h (1 Bft) W-SW 244 2 min 0,000 mm 3,1 UV-I 625 W/m 9,9 C 17,5 C 4,8 km/h (1 Bft) 100,00 %
23.09.2017 13:48 17,6 C 12,8 C 64 % 1020,6 hPa 0,0 l/m 4,2 km/h (1 Bft) W-SW 246 2 min 0,000 mm 3,1 UV-I 632 W/m 10,7 C 17,6 C 6,4 km/h (2 Bft) 100,00 %
23.09.2017 13:50 17,6 C 12,8 C 59 % 1020,6 hPa 0,0 l/m 7,5 km/h (2 Bft) W-SW 242 2 min 0,000 mm 3,1 UV-I 634 W/m 9,5 C 17,1 C 12,9 km/h (3 Bft) 100,00 %
23.09.2017 13:52 17,5 C 12,8 C 60 % 1020,6 hPa 0,0 l/m 3,7 km/h (1 Bft) NW 320 2 min 0,000 mm 3,1 UV-I 632 W/m 9,6 C 17,5 C 6,4 km/h (2 Bft) 100,00 %
23.09.2017 13:54 17,5 C 12,8 C 61 % 1020,6 hPa 0,0 l/m 2,5 km/h (1 Bft) S-SW 196 2 min 0,000 mm 3,1 UV-I 632 W/m 9,9 C 17,5 C 6,4 km/h (2 Bft) 100,00 %
23.09.2017 13:56 17,6 C 12,8 C 61 % 1020,6 hPa 0,0 l/m 6,3 km/h (2 Bft) W-SW 253 2 min 0,000 mm 3,0 UV-I 616 W/m 10,0 C 17,6 C 11,3 km/h (2 Bft) 98,11 %
23.09.2017 13:58 17,7 C 12,8 C 62 % 1020,6 hPa 0,0 l/m 4,1 km/h (1 Bft) W-NW 288 2 min 0,000 mm 3,0 UV-I 630 W/m 10,3 C 17,7 C 9,7 km/h (2 Bft) 100,00 %
23.09.2017 14:00 17,6 C 12,8 C 58 % 1020,5 hPa 0,0 l/m 7,1 km/h (2 Bft) SW 236 2 min 0,381 mm 3,0 UV-I 644 W/m 9,2 C 17,3 C 14,5 km/h (3 Bft) 97,87 %
23.09.2017 14:02 17,6 C 12,8 C 59 % 1020,5 hPa 0,0 l/m 4,4 km/h (1 Bft) W 263 2 min 0,000 mm 3,0 UV-I 640 W/m 9,5 C 17,6 C 9,7 km/h (2 Bft) 100,00 %
23.09.2017 14:04 17,6 C 12,8 C 59 % 1020,5 hPa 0,0 l/m 5,1 km/h (1 Bft) W-NW 284 2 min 0,000 mm 2,9 UV-I 628 W/m 9,5 C 17,6 C 9,7 km/h (2 Bft) 100,00 %
23.09.2017 14:06 17,6 C 12,8 C 59 % 1020,5 hPa 0,0 l/m 5,0 km/h (1 Bft) W-SW 255 2 min 0,000 mm 2,9 UV-I 629 W/m 9,5 C 17,6 C 9,7 km/h (2 Bft) 98,11 %
23.09.2017 14:08 17,6 C 12,8 C 60 % 1020,4 hPa 0,0 l/m 3,3 km/h (1 Bft) NW 320 2 min 0,000 mm 2,9 UV-I 629 W/m 9,7 C 17,6 C 8,0 km/h (2 Bft) 100,00 %
23.09.2017 14:10 17,6 C 12,8 C 60 % 1020,4 hPa 0,0 l/m 3,0 km/h (1 Bft) N-NW 337 2 min 0,000 mm 2,8 UV-I 612 W/m 9,7 C 17,6 C 6,4 km/h (2 Bft) 100,00 %
23.09.2017 14:12 17,6 C 12,8 C 62 % 1020,4 hPa 0,0 l/m 2,6 km/h (1 Bft) W-NW 298 2 min 0,000 mm 2,8 UV-I 618 W/m 10,2 C 17,6 C 4,8 km/h (1 Bft) 100,00 %
23.09.2017 14:14 17,6 C 12,8 C 60 % 1020,4 hPa 0,0 l/m 2,9 km/h (1 Bft) W-SW 248 2 min 0,000 mm 2,4 UV-I 579 W/m 9,7 C 17,6 C 8,0 km/h (2 Bft) 100,00 %
23.09.2017 14:16 17,5 C 12,8 C 60 % 1020,5 hPa 0,0 l/m 6,3 km/h (2 Bft) W-NW 282 2 min 0,000 mm 2,6 UV-I 373 W/m 9,6 C 17,5 C 12,9 km/h (3 Bft) 100,00 %
23.09.2017 14:18 17,6 C 12,8 C 59 % 1020,5 hPa 0,0 l/m 3,9 km/h (1 Bft) NW 310 2 min 0,000 mm 2,7 UV-I 574 W/m 9,5 C 17,6 C 11,3 km/h (2 Bft) 97,87 %
23.09.2017 14:20 17,4 C 12,8 C 59 % 1020,5 hPa 0,0 l/m 2,8 km/h (1 Bft) N-NW 339 2 min 0,000 mm 2,7 UV-I 605 W/m 9,3 C 17,4 C 6,4 km/h (2 Bft) 100,00 %
23.09.2017 14:22 17,6 C 12,8 C 60 % 1020,4 hPa 0,0 l/m 4,7 km/h (1 Bft) W 277 2 min 0,000 mm 2,7 UV-I 623 W/m 9,7 C 17,6 C 11,3 km/h (2 Bft) 97,87 %
23.09.2017 14:24 17,7 C 12,8 C 58 % 1020,4 hPa 0,0 l/m 6,5 km/h (2 Bft) W 281 2 min 0,000 mm 2,7 UV-I 621 W/m 9,3 C 17,7 C 11,3 km/h (2 Bft) 100,00 %
23.09.2017 14:26 17,7 C 12,8 C 59 % 1020,4 hPa 0,0 l/m 5,1 km/h (1 Bft) NW 321 2 min 0,000 mm 2,7 UV-I 612 W/m 9,6 C 17,7 C 11,3 km/h (2 Bft) 97,73 %
23.09.2017 14:28 17,8 C 12,8 C 59 % 1020,4 hPa 0,0 l/m 3,9 km/h (1 Bft) NW 325 2 min 0,000 mm 2,6 UV-I 601 W/m 9,7 C 17,8 C 6,4 km/h (2 Bft) 100,00 %
23.09.2017 14:30 17,9 C 12,8 C 60 % 1020,3 hPa 0,0 l/m 0,9 km/h (0 Bft) NW 313 2 min 0,000 mm 2,6 UV-I 594 W/m 10,0 C 17,9 C 3,2 km/h (1 Bft) 100,00 %
23.09.2017 14:32 17,9 C 12,8 C 58 % 1020,3 hPa 0,0 l/m 4,3 km/h (1 Bft) SW 215 2 min 0,000 mm 2,6 UV-I 590 W/m 9,5 C 17,9 C 12,9 km/h (3 Bft) 100,00 %
23.09.2017 14:34 18,2 C 12,8 C 59 % 1020,3 hPa 0,0 l/m 3,3 km/h (1 Bft) SW 221 2 min 0,000 mm 2,6 UV-I 586 W/m 10,1 C 18,2 C 9,7 km/h (2 Bft) 98,00 %
23.09.2017 14:36 18,2 C 12,8 C 57 % 1020,3 hPa 0,0 l/m 6,8 km/h (2 Bft) SW 226 2 min 0,000 mm 2,5 UV-I 579 W/m 9,5 C 18,0 C 12,9 km/h (3 Bft) 96,23 %
23.09.2017 14:38 18,2 C 12,8 C 57 % 1020,1 hPa 0,0 l/m 6,3 km/h (2 Bft) W-SW 245 2 min 0,000 mm 2,5 UV-I 578 W/m 9,5 C 18,2 C 12,9 km/h (3 Bft) 94,74 %
23.09.2017 14:40 18,2 C 12,8 C 61 % 1020,2 hPa 0,0 l/m 2,6 km/h (1 Bft) N-NW 336 2 min 0,000 mm 2,5 UV-I 581 W/m 10,6 C 18,2 C 8,0 km/h (2 Bft) 98,11 %
23.09.2017 14:42 18,2 C 12,8 C 59 % 1020,1 hPa 0,0 l/m 3,8 km/h (1 Bft) W-NW 302 2 min 0,000 mm 2,5 UV-I 570 W/m 10,1 C 18,2 C 8,0 km/h (2 Bft) 96,15 %
23.09.2017 14:44 18,1 C 12,8 C 57 % 1020,2 hPa 0,0 l/m 4,0 km/h (1 Bft) W 266 2 min 0,000 mm 2,4 UV-I 562 W/m 9,4 C 18,1 C 8,0 km/h (2 Bft) 96,77 %
23.09.2017 14:46 18,0 C 12,8 C 58 % 1020,2 hPa 0,0 l/m 2,2 km/h (1 Bft) O-NO 73 2 min 0,000 mm 2,4 UV-I 559 W/m 9,6 C 18,0 C 4,8 km/h (1 Bft) 97,87 %
23.09.2017 14:48 18,1 C 12,8 C 60 % 1020,2 hPa 0,0 l/m 4,8 km/h (1 Bft) SW 229 2 min 0,000 mm 2,4 UV-I 557 W/m 10,2 C 18,1 C 8,0 km/h (2 Bft) 96,15 %
23.09.2017 14:50 18,2 C 12,8 C 58 % 1020,1 hPa 0,0 l/m 4,1 km/h (1 Bft) SW 232 2 min 0,000 mm 2,4 UV-I 560 W/m 9,8 C 18,2 C 8,0 km/h (2 Bft) 100,00 %
23.09.2017 14:52 18,2 C 12,8 C 60 % 1020,1 hPa 0,0 l/m 2,8 km/h (1 Bft) N-NW 346 2 min 0,000 mm 2,3 UV-I 547 W/m 10,3 C 18,2 C 6,4 km/h (2 Bft) 96,23 %
23.09.2017 14:54 18,2 C 12,8 C 61 % 1020,1 hPa 0,0 l/m 4,2 km/h (1 Bft) N-NW 348 2 min 0,000 mm 2,3 UV-I 546 W/m 10,6 C 18,2 C 8,0 km/h (2 Bft) 96,00 %
23.09.2017 14:56 18,2 C 12,8 C 57 % 1020,1 hPa 0,0 l/m 6,7 km/h (2 Bft) W-NW 298 2 min 0,000 mm 2,2 UV-I 533 W/m 9,5 C 18,1 C 12,9 km/h (3 Bft) 97,56 %
23.09.2017 14:58 18,1 C 12,8 C 57 % 1020,0 hPa 0,0 l/m 3,3 km/h (1 Bft) W-SW 257 2 min 0,000 mm 2,2 UV-I 539 W/m 9,4 C 18,1 C 4,8 km/h (1 Bft) 98,00 %
23.09.2017 15:00 18,2 C 12,8 C 58 % 1020,0 hPa 0,0 l/m 1,4 km/h (1 Bft) W-SW 255 2 min 0,330 mm 2,2 UV-I 542 W/m 9,8 C 18,2 C 3,2 km/h (1 Bft) 96,00 %
23.09.2017 15:02 18,3 C 12,8 C 62 % 1020,0 hPa 0,0 l/m 4,0 km/h (1 Bft) W 281 2 min 0,000 mm 2,2 UV-I 545 W/m 10,9 C 18,3 C 6,4 km/h (2 Bft) 97,37 %
23.09.2017 15:04 18,4 C 12,8 C 59 % 1020,0 hPa 0,0 l/m 8,5 km/h (2 Bft) SW 232 2 min 0,000 mm 2,2 UV-I 537 W/m 10,2 C 17,5 C 14,5 km/h (3 Bft) 97,78 %
23.09.2017 15:06 18,5 C 12,8 C 57 % 1020,0 hPa 0,0 l/m 9,4 km/h (2 Bft) W-SW 242 2 min 0,000 mm 2,2 UV-I 530 W/m 9,8 C 17,2 C 14,5 km/h (3 Bft) 98,00 %
23.09.2017 15:08 18,6 C 12,8 C 57 % 1020,0 hPa 0,0 l/m 11,4 km/h (2 Bft) W-SW 238 2 min 0,000 mm 2,1 UV-I 530 W/m 9,9 C 16,6 C 14,5 km/h (3 Bft) 97,56 %
23.09.2017 15:10 18,4 C 12,8 C 54 % 1019,9 hPa 0,0 l/m 6,3 km/h (2 Bft) W-SW 252 2 min 0,000 mm 2,1 UV-I 525 W/m 8,9 C 18,4 C 11,3 km/h (2 Bft) 100,00 %
23.09.2017 15:12 18,3 C 12,8 C 56 % 1019,9 hPa 0,0 l/m 4,7 km/h (1 Bft) NW 320 2 min 0,000 mm 2,1 UV-I 522 W/m 9,4 C 18,3 C 9,7 km/h (2 Bft) 97,44 %
23.09.2017 15:14 18,2 C 12,8 C 58 % 1019,9 hPa 0,0 l/m 2,8 km/h (1 Bft) N 11 2 min 0,000 mm 2,0 UV-I 520 W/m 9,8 C 18,2 C 6,4 km/h (2 Bft) 100,00 %
23.09.2017 15:16 18,3 C 12,8 C 57 % 1019,9 hPa 0,0 l/m 3,7 km/h (1 Bft) W-NW 300 2 min 0,000 mm 2,0 UV-I 517 W/m 9,6 C 18,3 C 6,4 km/h (2 Bft) 97,73 %
23.09.2017 15:18 18,3 C 12,8 C 55 % 1019,8 hPa 0,0 l/m 4,7 km/h (1 Bft) W 279 2 min 0,000 mm 2,0 UV-I 511 W/m 9,1 C 18,3 C 8,0 km/h (2 Bft) 100,00 %
23.09.2017 15:20 18,3 C 12,8 C 57 % 1019,8 hPa 0,0 l/m 8,2 km/h (2 Bft) W-SW 246 2 min 0,000 mm 2,0 UV-I 508 W/m 9,6 C 17,5 C 14,5 km/h (3 Bft) 100,00 %
23.09.2017 15:22 18,4 C 12,8 C 55 % 1019,8 hPa 0,0 l/m 5,9 km/h (2 Bft) W-SW 250 2 min 0,000 mm 1,9 UV-I 504 W/m 9,2 C 18,4 C 9,7 km/h (2 Bft) 98,00 %
23.09.2017 15:24 18,4 C 12,8 C 54 % 1019,8 hPa 0,0 l/m 6,9 km/h (2 Bft) W 281 2 min 0,000 mm 1,9 UV-I 502 W/m 8,9 C 18,2 C 14,5 km/h (3 Bft) 100,00 %
23.09.2017 15:26 18,4 C 12,8 C 54 % 1019,7 hPa 0,0 l/m 7,4 km/h (2 Bft) W-SW 258 2 min 0,000 mm 1,9 UV-I 495 W/m 8,9 C 17,9 C 11,3 km/h (2 Bft) 100,00 %
23.09.2017 15:28 18,4 C 12,8 C 57 % 1019,7 hPa 0,0 l/m 6,7 km/h (2 Bft) W 263 2 min 0,000 mm 1,8 UV-I 482 W/m 9,7 C 18,3 C 12,9 km/h (3 Bft) 98,00 %
23.09.2017 15:30 18,6 C 12,8 C 58 % 1019,7 hPa 0,0 l/m 7,8 km/h (2 Bft) W-SW 248 2 min 0,000 mm 1,8 UV-I 484 W/m 10,2 C 18,0 C 14,5 km/h (3 Bft) 100,00 %
23.09.2017 15:32 18,7 C 12,8 C 56 % 1019,7 hPa 0,0 l/m 6,2 km/h (2 Bft) SW 227 2 min 0,000 mm 1,8 UV-I 481 W/m 9,7 C 18,7 C 11,3 km/h (2 Bft) 100,00 %
23.09.2017 15:34 18,6 C 12,8 C 54 % 1019,7 hPa 0,0 l/m 8,3 km/h (2 Bft) W 261 2 min 0,000 mm 1,7 UV-I 474 W/m 9,1 C 17,8 C 16,1 km/h (3 Bft) 97,56 %
23.09.2017 15:36 18,5 C 12,8 C 52 % 1019,6 hPa 0,0 l/m 5,9 km/h (2 Bft) W-SW 247 2 min 0,000 mm 1,7 UV-I 477 W/m 8,5 C 18,5 C 12,9 km/h (3 Bft) 100,00 %
23.09.2017 15:38 18,5 C 12,8 C 55 % 1019,6 hPa 0,0 l/m 3,7 km/h (1 Bft) W-SW 245 2 min 0,000 mm 1,7 UV-I 475 W/m 9,3 C 18,5 C 8,0 km/h (2 Bft) 97,37 %
23.09.2017 15:40 18,4 C 12,8 C 53 % 1019,6 hPa 0,0 l/m 7,1 km/h (2 Bft) W 273 2 min 0,000 mm 1,6 UV-I 466 W/m 8,6 C 18,1 C 12,9 km/h (3 Bft) 100,00 %
23.09.2017 15:42 18,5 C 12,8 C 54 % 1019,6 hPa 0,0 l/m 9,4 km/h (2 Bft) SW 227 2 min 0,000 mm 1,6 UV-I 457 W/m 9,0 C 17,2 C 14,5 km/h (3 Bft) 94,87 %
23.09.2017 15:44 18,5 C 12,8 C 52 % 1019,6 hPa 0,0 l/m 7,0 km/h (2 Bft) W-SW 245 2 min 0,000 mm 1,6 UV-I 448 W/m 8,5 C 18,2 C 19,3 km/h (3 Bft) 98,08 %
23.09.2017 15:46 18,4 C 12,8 C 52 % 1019,5 hPa 0,0 l/m 7,4 km/h (2 Bft) SW 225 2 min 0,000 mm 1,5 UV-I 445 W/m 8,4 C 17,9 C 12,9 km/h (3 Bft) 100,00 %
23.09.2017 15:48 18,5 C 12,8 C 50 % 1019,5 hPa 0,0 l/m 10,0 km/h (2 Bft) W-SW 238 2 min 0,000 mm 1,5 UV-I 453 W/m 7,9 C 17,0 C 14,5 km/h (3 Bft) 100,00 %
23.09.2017 15:50 18,5 C 12,8 C 50 % 1019,5 hPa 0,0 l/m 8,8 km/h (2 Bft) W-SW 250 2 min 0,000 mm 1,5 UV-I 446 W/m 7,9 C 17,4 C 14,5 km/h (3 Bft) 100,00 %
23.09.2017 15:52 18,5 C 12,8 C 52 % 1019,5 hPa 0,0 l/m 7,4 km/h (2 Bft) W-SW 244 2 min 0,000 mm 1,5 UV-I 437 W/m 8,5 C 18,0 C 12,9 km/h (3 Bft) 100,00 %
23.09.2017 15:54 18,6 C 12,8 C 52 % 1019,4 hPa 0,0 l/m 6,5 km/h (2 Bft) W-SW 258 2 min 0,000 mm 1,4 UV-I 432 W/m 8,5 C 18,6 C 12,9 km/h (3 Bft) 100,00 %
23.09.2017 15:56 18,5 C 12,8 C 53 % 1019,4 hPa 0,0 l/m 3,9 km/h (1 Bft) W-NW 284 2 min 0,000 mm 1,4 UV-I 428 W/m 8,7 C 18,5 C 9,7 km/h (2 Bft) 100,00 %
23.09.2017 15:58 18,4 C 12,8 C 53 % 1019,4 hPa 0,0 l/m 4,6 km/h (1 Bft) W 277 2 min 0,000 mm 1,4 UV-I 421 W/m 8,6 C 18,4 C 11,3 km/h (2 Bft) 100,00 %
23.09.2017 16:00 18,4 C 12,8 C 54 % 1019,4 hPa 0,0 l/m 3,4 km/h (1 Bft) SW 225 2 min 0,305 mm 1,4 UV-I 419 W/m 8,9 C 18,4 C 6,4 km/h (2 Bft) 100,00 %
23.09.2017 16:02 18,5 C 12,8 C 53 % 1019,4 hPa 0,0 l/m 2,6 km/h (1 Bft) SW 217 2 min 0,000 mm 1,3 UV-I 417 W/m 8,7 C 18,5 C 6,4 km/h (2 Bft) 100,00 %
23.09.2017 16:04 18,5 C 12,8 C 53 % 1019,3 hPa 0,0 l/m 4,5 km/h (1 Bft) W-SW 240 2 min 0,000 mm 1,3 UV-I 412 W/m 8,7 C 18,5 C 9,7 km/h (2 Bft) 100,00 %
23.09.2017 16:06 18,5 C 12,8 C 55 % 1019,3 hPa 0,0 l/m 1,4 km/h (1 Bft) W-NW 284 2 min 0,000 mm 1,3 UV-I 407 W/m 9,3 C 18,5 C 3,2 km/h (1 Bft) 100,00 %
23.09.2017 16:08 18,6 C 12,8 C 54 % 1019,3 hPa 0,0 l/m 5,1 km/h (1 Bft) SW 222 2 min 0,000 mm 1,2 UV-I 396 W/m 9,1 C 18,6 C 12,9 km/h (3 Bft) 100,00 %
23.09.2017 16:10 18,6 C 12,8 C 54 % 1019,2 hPa 0,0 l/m 5,4 km/h (1 Bft) W-SW 255 2 min 0,000 mm 1,2 UV-I 390 W/m 9,1 C 18,6 C 11,3 km/h (2 Bft) 100,00 %
23.09.2017 16:12 18,6 C 12,8 C 53 % 1019,3 hPa 0,0 l/m 7,1 km/h (2 Bft) W-SW 238 2 min 0,000 mm 1,2 UV-I 387 W/m 8,8 C 18,3 C 12,9 km/h (3 Bft) 100,00 %
23.09.2017 16:14 18,6 C 12,8 C 51 % 1019,3 hPa 0,0 l/m 6,5 km/h (2 Bft) NW 319 2 min 0,000 mm 1,2 UV-I 383 W/m 8,3 C 18,6 C 11,3 km/h (2 Bft) 100,00 %
23.09.2017 16:16 18,6 C 12,8 C 51 % 1019,3 hPa 0,0 l/m 5,0 km/h (1 Bft) SW 232 2 min 0,000 mm 1,1 UV-I 376 W/m 8,3 C 18,6 C 11,3 km/h (2 Bft) 98,11 %
23.09.2017 16:18 18,4 C 12,8 C 50 % 1019,3 hPa 0,0 l/m 5,4 km/h (1 Bft) W-SW 244 2 min 0,000 mm 1,1 UV-I 372 W/m 7,8 C 18,4 C 9,7 km/h (2 Bft) 100,00 %
23.09.2017 16:20 18,4 C 12,8 C 51 % 1019,3 hPa 0,0 l/m 4,2 km/h (1 Bft) W-NW 298 2 min 0,000 mm 1,1 UV-I 364 W/m 8,1 C 18,4 C 6,4 km/h (2 Bft) 100,00 %
23.09.2017 16:22 18,3 C 12,8 C 51 % 1019,2 hPa 0,0 l/m 3,7 km/h (1 Bft) W-NW 290 2 min 0,000 mm 1,1 UV-I 360 W/m 8,0 C 18,3 C 9,7 km/h (2 Bft) 100,00 %
23.09.2017 16:24 18,3 C 12,8 C 52 % 1019,1 hPa 0,0 l/m 4,9 km/h (1 Bft) W-SW 249 2 min 0,000 mm 1,0 UV-I 352 W/m 8,3 C 18,3 C 8,0 km/h (2 Bft) 100,00 %
23.09.2017 16:26 18,3 C 12,8 C 52 % 1019,1 hPa 0,0 l/m 5,7 km/h (1 Bft) W-SW 243 2 min 0,000 mm 1,0 UV-I 350 W/m 8,3 C 18,3 C 9,7 km/h (2 Bft) 100,00 %
23.09.2017 16:28 18,3 C 12,8 C 52 % 1019,1 hPa 0,0 l/m 7,1 km/h (2 Bft) W 261 2 min 0,000 mm 1,0 UV-I 346 W/m 8,3 C 18,0 C 14,5 km/h (3 Bft) 100,00 %
23.09.2017 16:30 18,3 C 12,8 C 53 % 1019,1 hPa 0,0 l/m 7,5 km/h (2 Bft) W 266 2 min 0,000 mm 1,0 UV-I 340 W/m 8,6 C 17,8 C 11,3 km/h (2 Bft) 97,56 %
23.09.2017 16:32 18,4 C 12,8 C 55 % 1019,0 hPa 0,0 l/m 4,5 km/h (1 Bft) NW 323 2 min 0,000 mm 0,9 UV-I 336 W/m 9,2 C 18,4 C 6,4 km/h (2 Bft) 97,87 %
23.09.2017 16:34 18,3 C 12,8 C 54 % 1019,0 hPa 0,0 l/m 4,7 km/h (1 Bft) W-SW 247 2 min 0,000 mm 0,9 UV-I 332 W/m 8,8 C 18,3 C 9,7 km/h (2 Bft) 96,23 %
23.09.2017 16:36 18,3 C 12,8 C 58 % 1019,0 hPa 0,0 l/m 2,7 km/h (1 Bft) W 265 2 min 0,000 mm 0,9 UV-I 326 W/m 9,9 C 18,3 C 8,0 km/h (2 Bft) 97,73 %
23.09.2017 16:38 18,3 C 12,8 C 56 % 1019,0 hPa 0,0 l/m 3,9 km/h (1 Bft) W 277 2 min 0,000 mm 0,9 UV-I 320 W/m 9,4 C 18,3 C 4,8 km/h (1 Bft) 97,56 %
23.09.2017 16:40 18,4 C 12,8 C 57 % 1019,0 hPa 0,0 l/m 4,7 km/h (1 Bft) SW 231 2 min 0,000 mm 0,8 UV-I 318 W/m 9,7 C 18,4 C 9,7 km/h (2 Bft) 98,11 %
23.09.2017 16:42 18,5 C 12,8 C 55 % 1018,9 hPa 0,0 l/m 6,6 km/h (2 Bft) SW 227 2 min 0,000 mm 0,8 UV-I 312 W/m 9,3 C 18,4 C 12,9 km/h (3 Bft) 98,00 %
23.09.2017 16:44 18,5 C 12,8 C 53 % 1019,0 hPa 0,0 l/m 7,9 km/h (2 Bft) W-SW 241 2 min 0,000 mm 0,8 UV-I 305 W/m 8,7 C 17,8 C 12,9 km/h (3 Bft) 94,74 %
23.09.2017 16:46 18,5 C 12,8 C 54 % 1019,0 hPa 0,0 l/m 6,0 km/h (2 Bft) W-SW 255 2 min 0,000 mm 0,8 UV-I 297 W/m 9,0 C 18,5 C 9,7 km/h (2 Bft) 98,21 %
23.09.2017 16:48 18,4 C 12,8 C 54 % 1019,0 hPa 0,0 l/m 8,0 km/h (2 Bft) SW 228 2 min 0,000 mm 0,7 UV-I 288 W/m 8,9 C 17,7 C 11,3 km/h (2 Bft) 97,56 %
23.09.2017 16:50 18,3 C 12,8 C 56 % 1018,9 hPa 0,0 l/m 7,8 km/h (2 Bft) SW 234 2 min 0,000 mm 0,7 UV-I 285 W/m 9,4 C 17,7 C 11,3 km/h (2 Bft) 96,00 %
23.09.2017 16:52 18,3 C 12,8 C 56 % 1019,0 hPa 0,0 l/m 8,0 km/h (2 Bft) W-SW 254 2 min 0,000 mm 0,7 UV-I 282 W/m 9,4 C 17,6 C 12,9 km/h (3 Bft) 100,00 %
23.09.2017 16:54 18,3 C 12,8 C 56 % 1019,0 hPa 0,0 l/m 8,1 km/h (2 Bft) W-SW 257 2 min 0,000 mm 0,7 UV-I 279 W/m 9,4 C 17,5 C 12,9 km/h (3 Bft) 94,00 %
23.09.2017 16:56 18,3 C 12,8 C 55 % 1019,0 hPa 0,0 l/m 8,6 km/h (2 Bft) W 275 2 min 0,000 mm 0,7 UV-I 276 W/m 9,1 C 17,3 C 16,1 km/h (3 Bft) 97,87 %
23.09.2017 16:58 18,4 C 12,8 C 56 % 1019,0 hPa 0,0 l/m 2,8 km/h (1 Bft) W-SW 246 2 min 0,000 mm 0,6 UV-I 272 W/m 9,5 C 18,4 C 6,4 km/h (2 Bft) 97,87 %
23.09.2017 17:00 18,4 C 12,8 C 58 % 1019,0 hPa 0,0 l/m 3,0 km/h (1 Bft) W 274 2 min 0,229 mm 0,6 UV-I 264 W/m 10,0 C 18,4 C 9,7 km/h (2 Bft) 100,00 %
23.09.2017 17:02 18,3 C 12,8 C 56 % 1019,0 hPa 0,0 l/m 2,8 km/h (1 Bft) W-NW 294 2 min 0,000 mm 0,6 UV-I 255 W/m 9,4 C 18,3 C 4,8 km/h (1 Bft) 100,00 %
23.09.2017 17:04 18,3 C 12,8 C 56 % 1019,0 hPa 0,0 l/m 2,9 km/h (1 Bft) W-NW 288 2 min 0,000 mm 0,6 UV-I 249 W/m 9,4 C 18,3 C 4,8 km/h (1 Bft) 97,87 %
23.09.2017 17:06 18,2 C 12,8 C 55 % 1019,0 hPa 0,0 l/m 2,9 km/h (1 Bft) W-SW 252 2 min 0,000 mm 0,5 UV-I 245 W/m 9,0 C 18,2 C 6,4 km/h (2 Bft) 100,00 %
23.09.2017 17:08 18,2 C 12,8 C 58 % 1019,0 hPa 0,0 l/m 2,5 km/h (1 Bft) NO 39 2 min 0,000 mm 0,5 UV-I 240 W/m 9,8 C 18,2 C 4,8 km/h (1 Bft) 100,00 %
23.09.2017 17:10 18,1 C 12,8 C 57 % 1019,0 hPa 0,0 l/m 1,9 km/h (1 Bft) W 275 2 min 0,000 mm 0,5 UV-I 235 W/m 9,4 C 18,1 C 4,8 km/h (1 Bft) 100,00 %
23.09.2017 17:12 18,0 C 12,8 C 57 % 1019,0 hPa 0,0 l/m 2,9 km/h (1 Bft) W-SW 244 2 min 0,000 mm 0,5 UV-I 229 W/m 9,4 C 18,0 C 4,8 km/h (1 Bft) 97,87 %
23.09.2017 17:14 17,9 C 12,8 C 58 % 1019,1 hPa 0,0 l/m 3,9 km/h (1 Bft) W 281 2 min 0,000 mm 0,5 UV-I 225 W/m 9,5 C 17,9 C 8,0 km/h (2 Bft) 98,21 %
23.09.2017 17:16 17,9 C 12,8 C 57 % 1019,1 hPa 0,0 l/m 5,3 km/h (1 Bft) W 275 2 min 0,000 mm 0,2 UV-I 222 W/m 9,3 C 17,9 C 8,0 km/h (2 Bft) 100,00 %
23.09.2017 17:18 17,9 C 12,8 C 56 % 1019,1 hPa 0,0 l/m 3,6 km/h (1 Bft) W-SW 240 2 min 0,000 mm 0,0 UV-I 217 W/m 9,0 C 17,9 C 9,7 km/h (2 Bft) 100,00 %
23.09.2017 17:20 17,9 C 12,8 C 57 % 1019,1 hPa 0,0 l/m 2,2 km/h (1 Bft) N-NW 327 2 min 0,000 mm 0,0 UV-I 212 W/m 9,3 C 17,9 C 3,2 km/h (1 Bft) 97,37 %
23.09.2017 17:22 17,9 C 12,8 C 57 % 1019,2 hPa 0,0 l/m 2,2 km/h (1 Bft) W-NW 285 2 min 0,000 mm 0,0 UV-I 208 W/m 9,3 C 17,9 C 4,8 km/h (1 Bft) 98,00 %
23.09.2017 17:24 17,9 C 12,8 C 57 % 1019,2 hPa 0,0 l/m 2,1 km/h (1 Bft) W 279 2 min 0,000 mm 0,0 UV-I 202 W/m 9,3 C 17,9 C 4,8 km/h (1 Bft) 95,12 %
23.09.2017 17:26 17,8 C 12,8 C 58 % 1019,2 hPa 0,0 l/m 1,2 km/h (1 Bft) W 280 2 min 0,000 mm 0,0 UV-I 197 W/m 9,4 C 17,8 C 3,2 km/h (1 Bft) 96,23 %
23.09.2017 17:28 17,8 C 12,8 C 57 % 1019,2 hPa 0,0 l/m 1,7 km/h (1 Bft) W 273 2 min 0,000 mm 0,0 UV-I 191 W/m 9,2 C 17,8 C 3,2 km/h (1 Bft) 98,00 %
23.09.2017 17:30 17,8 C 12,8 C 57 % 1019,2 hPa 0,0 l/m 2,4 km/h (1 Bft) W-NW 303 2 min 0,000 mm 0,0 UV-I 184 W/m 9,2 C 17,8 C 4,8 km/h (1 Bft) 97,56 %
23.09.2017 17:32 17,8 C 12,8 C 57 % 1019,2 hPa 0,0 l/m 2,9 km/h (1 Bft) W-SW 238 2 min 0,000 mm 0,0 UV-I 178 W/m 9,2 C 17,8 C 6,4 km/h (2 Bft) 98,00 %
23.09.2017 17:34 17,8 C 12,8 C 59 % 1019,2 hPa 0,2 l/m 2,8 km/h (1 Bft) W-NW 288 2 min 0,000 mm 0,0 UV-I 171 W/m 9,7 C 17,8 C 4,8 km/h (1 Bft) 97,78 %
23.09.2017 17:36 17,8 C 12,8 C 58 % 1019,2 hPa 0,0 l/m 4,7 km/h (1 Bft) W-NW 284 2 min 0,000 mm 0,0 UV-I 167 W/m 9,4 C 17,8 C 8,0 km/h (2 Bft) 96,23 %
23.09.2017 17:38 17,9 C 12,8 C 57 % 1019,2 hPa 0,0 l/m 3,6 km/h (1 Bft) W 276 2 min 0,000 mm 0,0 UV-I 164 W/m 9,3 C 17,9 C 6,4 km/h (2 Bft) 97,37 %
23.09.2017 17:40 17,8 C 12,8 C 58 % 1019,2 hPa 0,0 l/m 2,6 km/h (1 Bft) W 261 2 min 0,000 mm 0,0 UV-I 162 W/m 9,4 C 17,8 C 4,8 km/h (1 Bft) 97,87 %
23.09.2017 17:42 17,7 C 12,8 C 58 % 1019,1 hPa 0,0 l/m 2,9 km/h (1 Bft) W 281 2 min 0,000 mm 0,0 UV-I 162 W/m 9,3 C 17,7 C 4,8 km/h (1 Bft) 96,23 %
23.09.2017 17:44 17,6 C 12,8 C 56 % 1019,2 hPa 0,0 l/m 4,0 km/h (1 Bft) W-SW 256 2 min 0,000 mm 0,0 UV-I 160 W/m 8,7 C 17,6 C 6,4 km/h (2 Bft) 94,87 %
23.09.2017 17:46 17,6 C 12,8 C 58 % 1019,1 hPa 0,0 l/m 3,8 km/h (1 Bft) W 266 2 min 0,000 mm 0,0 UV-I 155 W/m 9,2 C 17,6 C 9,7 km/h (2 Bft) 96,23 %
23.09.2017 17:48 17,6 C 12,8 C 57 % 1019,1 hPa 0,0 l/m 3,2 km/h (1 Bft) W-SW 254 2 min 0,000 mm 0,0 UV-I 149 W/m 9,0 C 17,6 C 6,4 km/h (2 Bft) 97,37 %
23.09.2017 17:50 17,5 C 12,8 C 59 % 1019,1 hPa 0,0 l/m 4,9 km/h (1 Bft) W-NW 285 2 min 0,000 mm 0,0 UV-I 135 W/m 9,4 C 17,5 C 11,3 km/h (2 Bft) 96,23 %
23.09.2017 17:52 17,4 C 12,8 C 59 % 1019,1 hPa 0,0 l/m 3,4 km/h (1 Bft) W-SW 253 0 min 0,000 mm 0,0 UV-I 64 W/m 9,3 C 17,4 C 6,4 km/h (2 Bft) 96,55 %
23.09.2017 17:54 17,4 C 12,8 C 60 % 1019,1 hPa 0,0 l/m 3,5 km/h (1 Bft) W-SW 254 0 min 0,000 mm 0,0 UV-I 68 W/m 9,6 C 17,4 C 6,4 km/h (2 Bft) 97,18 %
23.09.2017 17:56 17,3 C 12,8 C 60 % 1019,0 hPa 0,0 l/m 4,1 km/h (1 Bft) W-NW 292 0 min 0,000 mm 0,0 UV-I 57 W/m 9,5 C 17,3 C 6,4 km/h (2 Bft) 97,56 %
23.09.2017 17:58 17,2 C 12,8 C 60 % 1019,1 hPa 0,0 l/m 3,0 km/h (1 Bft) W 261 0 min 0,000 mm 0,0 UV-I 53 W/m 9,4 C 17,2 C 4,8 km/h (1 Bft) 96,00 %
23.09.2017 18:00 17,1 C 12,8 C 60 % 1019,1 hPa 0,0 l/m 1,9 km/h (1 Bft) W 261 0 min 0,127 mm 0,0 UV-I 50 W/m 9,3 C 17,1 C 3,2 km/h (1 Bft) 95,12 %
23.09.2017 18:02 16,9 C 12,8 C 63 % 1019,1 hPa 0,0 l/m 0,8 km/h (0 Bft) W 261 0 min 0,000 mm 0,0 UV-I 49 W/m 9,8 C 16,9 C 3,2 km/h (1 Bft) 97,87 %
23.09.2017 18:04 16,7 C 12,8 C 62 % 1019,1 hPa 0,0 l/m 1,4 km/h (1 Bft) W 261 0 min 0,000 mm 0,0 UV-I 56 W/m 9,4 C 16,7 C 4,8 km/h (1 Bft) 98,00 %
23.09.2017 18:06 16,6 C 12,8 C 63 % 1019,1 hPa 0,0 l/m 0,0 km/h (0 Bft) W 261 0 min 0,000 mm 0,0 UV-I 59 W/m 9,5 C 16,6 C 0,0 km/h (0 Bft) 97,87 %
23.09.2017 18:08 16,5 C 12,8 C 63 % 1019,1 hPa 0,0 l/m 0,7 km/h (0 Bft) W 261 0 min 0,000 mm 0,0 UV-I 51 W/m 9,4 C 16,5 C 3,2 km/h (1 Bft) 95,74 %
23.09.2017 18:10 16,4 C 12,8 C 64 % 1019,1 hPa 0,0 l/m 0,6 km/h (0 Bft) W 261 0 min 0,000 mm 0,0 UV-I 49 W/m 9,6 C 16,4 C 1,6 km/h (1 Bft) 98,00 %
23.09.2017 18:12 16,3 C 12,8 C 65 % 1019,1 hPa 0,0 l/m 2,0 km/h (1 Bft) W 261 0 min 0,000 mm 0,0 UV-I 45 W/m 9,7 C 16,3 C 4,8 km/h (1 Bft) 97,37 %
23.09.2017 18:14 16,3 C 12,8 C 65 % 1019,1 hPa 0,0 l/m 2,3 km/h (1 Bft) W 261 0 min 0,000 mm 0,0 UV-I 43 W/m 9,7 C 16,3 C 3,2 km/h (1 Bft) 98,00 %
23.09.2017 18:16 16,2 C 12,8 C 66 % 1019,2 hPa 0,0 l/m 0,6 km/h (0 Bft) W 261 0 min 0,000 mm 0,0 UV-I 43 W/m 9,8 C 16,2 C 1,6 km/h (1 Bft) 98,11 %
23.09.2017 18:18 16,1 C 12,8 C 66 % 1019,2 hPa 0,0 l/m 1,0 km/h (0 Bft) W 261 0 min 0,000 mm 0,0 UV-I 42 W/m 9,7 C 16,1 C 3,2 km/h (1 Bft) 95,74 %
23.09.2017 18:20 16,0 C 12,8 C 66 % 1019,2 hPa 0,0 l/m 1,9 km/h (1 Bft) W 261 0 min 0,000 mm 0,0 UV-I 41 W/m 9,7 C 16,0 C 3,2 km/h (1 Bft) 97,37 %
23.09.2017 18:22 15,9 C 12,8 C 67 % 1019,2 hPa 0,0 l/m 2,0 km/h (1 Bft) W 261 0 min 0,000 mm 0,0 UV-I 39 W/m 9,8 C 15,9 C 3,2 km/h (1 Bft) 98,21 %
23.09.2017 18:24 15,9 C 12,8 C 67 % 1019,2 hPa 0,0 l/m 1,6 km/h (1 Bft) W 261 0 min 0,000 mm 0,0 UV-I 35 W/m 9,8 C 15,9 C 3,2 km/h (1 Bft) 97,62 %
23.09.2017 18:26 15,9 C 12,8 C 67 % 1019,2 hPa 0,0 l/m 2,0 km/h (1 Bft) W 261 0 min 0,000 mm 0,0 UV-I 32 W/m 9,8 C 15,9 C 3,2 km/h (1 Bft) 97,56 %
23.09.2017 18:28 15,9 C 12,8 C 67 % 1019,2 hPa 0,0 l/m 2,6 km/h (1 Bft) W 261 0 min 0,000 mm 0,0 UV-I 30 W/m 9,8 C 15,9 C 4,8 km/h (1 Bft) 96,00 %
23.09.2017 18:30 15,9 C 12,8 C 67 % 1019,2 hPa 0,0 l/m 1,6 km/h (1 Bft) W 261 0 min 0,000 mm 0,0 UV-I 27 W/m 9,8 C 15,9 C 3,2 km/h (1 Bft) 94,64 %
23.09.2017 18:32 15,8 C 12,8 C 68 % 1019,3 hPa 0,0 l/m 0,4 km/h (0 Bft) W 261 0 min 0,000 mm 0,0 UV-I 25 W/m 9,9 C 15,8 C 1,6 km/h (1 Bft) 93,62 %
23.09.2017 18:34 15,7 C 12,8 C 69 % 1019,3 hPa 0,0 l/m 0,0 km/h (0 Bft) W 261 0 min 0,000 mm 0,0 UV-I 23 W/m 10,0 C 15,7 C 1,6 km/h (1 Bft) 94,74 %
23.09.2017 18:36 15,5 C 12,8 C 69 % 1019,3 hPa 0,0 l/m 0,0 km/h (0 Bft) W 261 0 min 0,000 mm 0,0 UV-I 22 W/m 9,8 C 15,5 C 0,0 km/h (0 Bft) 94,00 %
23.09.2017 18:38 15,4 C 12,8 C 68 % 1019,3 hPa 0,0 l/m 0,0 km/h (0 Bft) W 261 0 min 0,000 mm 0,0 UV-I 20 W/m 9,5 C 15,4 C 1,6 km/h (1 Bft) 94,00 %
23.09.2017 18:40 15,4 C 12,8 C 69 % 1019,3 hPa 0,0 l/m 0,0 km/h (0 Bft) W 261 0 min 0,000 mm 0,0 UV-I 19 W/m 9,7 C 15,4 C 0,0 km/h (0 Bft) 95,74 %
23.09.2017 18:42 15,4 C 12,8 C 69 % 1019,3 hPa 0,0 l/m 0,2 km/h (0 Bft) W 261 0 min 0,000 mm 0,0 UV-I 17 W/m 9,7 C 15,4 C 1,6 km/h (1 Bft) 94,74 %
23.09.2017 18:44 15,3 C 12,8 C 72 % 1019,3 hPa 0,0 l/m 0,4 km/h (0 Bft) W 261 0 min 0,000 mm 0,0 UV-I 16 W/m 10,3 C 15,3 C 1,6 km/h (1 Bft) 96,23 %
23.09.2017 18:46 15,3 C 12,8 C 74 % 1019,3 hPa 0,0 l/m 0,1 km/h (0 Bft) W 261 2 min 0,000 mm 0,0 UV-I 14 W/m 10,7 C 15,3 C 1,6 km/h (1 Bft) 95,74 %
23.09.2017 18:48 15,1 C 12,8 C 76 % 1019,3 hPa 0,0 l/m 0,0 km/h (0 Bft) W 261 2 min 0,000 mm 0,0 UV-I 13 W/m 10,9 C 15,1 C 0,0 km/h (0 Bft) 95,74 %
23.09.2017 18:50 14,9 C 12,8 C 77 % 1019,3 hPa 0,0 l/m 1,0 km/h (0 Bft) W 261 0 min 0,000 mm 0,0 UV-I 11 W/m 10,9 C 14,9 C 1,6 km/h (1 Bft) 94,00 %
23.09.2017 18:52 14,7 C 12,8 C 79 % 1019,3 hPa 0,0 l/m 0,7 km/h (0 Bft) W 261 0 min 0,000 mm 0,0 UV-I 11 W/m 11,1 C 14,7 C 1,6 km/h (1 Bft) 94,74 %
23.09.2017 18:54 14,4 C 12,8 C 79 % 1019,3 hPa 0,0 l/m 0,1 km/h (0 Bft) W 261 0 min 0,000 mm 0,0 UV-I 10 W/m 10,8 C 14,4 C 1,6 km/h (1 Bft) 93,62 %
23.09.2017 18:56 14,3 C 12,8 C 79 % 1019,3 hPa 0,0 l/m 0,1 km/h (0 Bft) W 261 0 min 0,000 mm 0,0 UV-I 9 W/m 10,7 C 14,3 C 1,6 km/h (1 Bft) 98,11 %
23.09.2017 18:58 14,2 C 12,8 C 80 % 1019,3 hPa 0,0 l/m 0,6 km/h (0 Bft) W 261 0 min 0,000 mm 0,0 UV-I 8 W/m 10,8 C 14,2 C 3,2 km/h (1 Bft) 95,74 %
23.09.2017 19:00 14,1 C 12,8 C 80 % 1019,3 hPa 0,0 l/m 0,3 km/h (0 Bft) W 261 0 min 0,000 mm 0,0 UV-I 7 W/m 10,7 C 14,1 C 1,6 km/h (1 Bft) 95,74 %
23.09.2017 19:02 13,9 C 12,8 C 81 % 1019,2 hPa 0,0 l/m 0,6 km/h (0 Bft) W 261 0 min 0,025 mm 0,0 UV-I 7 W/m 10,7 C 13,9 C 3,2 km/h (1 Bft) 97,44 %
23.09.2017 19:04 13,8 C 12,8 C 82 % 1019,3 hPa 0,0 l/m 1,9 km/h (1 Bft) W 261 0 min 0,000 mm 0,0 UV-I 6 W/m 10,8 C 13,8 C 3,2 km/h (1 Bft) 100,00 %
23.09.2017 19:06 13,7 C 12,8 C 82 % 1019,3 hPa 0,0 l/m 1,1 km/h (1 Bft) W 261 0 min 0,000 mm 0,0 UV-I 5 W/m 10,7 C 13,7 C 3,2 km/h (1 Bft) 100,00 %
23.09.2017 19:08 13,6 C 12,8 C 82 % 1019,3 hPa 0,0 l/m 2,2 km/h (1 Bft) W 261 0 min 0,000 mm 0,0 UV-I 5 W/m 10,6 C 13,6 C 4,8 km/h (1 Bft) 100,00 %
23.09.2017 19:10 13,5 C 12,8 C 82 % 1019,2 hPa 0,0 l/m 2,1 km/h (1 Bft) W 261 0 min 0,000 mm 0,0 UV-I 5 W/m 10,5 C 13,5 C 3,2 km/h (1 Bft) 100,00 %
23.09.2017 19:12 13,4 C 12,8 C 82 % 1019,3 hPa 0,0 l/m 2,3 km/h (1 Bft) SW 228 0 min 0,000 mm 0,0 UV-I 2 W/m 10,4 C 13,4 C 3,2 km/h (1 Bft) 100,00 %
23.09.2017 19:14 13,5 C 12,8 C 82 % 1019,3 hPa 0,0 l/m 2,3 km/h (1 Bft) SW 227 0 min 0,000 mm 0,0 UV-I 0 W/m 10,5 C 13,5 C 3,2 km/h (1 Bft) 100,00 %
23.09.2017 19:16 13,5 C 12,8 C 82 % 1019,3 hPa 0,0 l/m 1,6 km/h (1 Bft) SW 227 0 min 0,000 mm 0,0 UV-I 0 W/m 10,5 C 13,5 C 3,2 km/h (1 Bft) 100,00 %
23.09.2017 19:18 13,4 C 12,8 C 82 % 1019,4 hPa 0,0 l/m 1,5 km/h (1 Bft) SW 227 0 min 0,000 mm 0,0 UV-I 0 W/m 10,4 C 13,4 C 3,2 km/h (1 Bft) 100,00 %
23.09.2017 19:20 13,5 C 12,8 C 81 % 1019,3 hPa 0,0 l/m 1,3 km/h (1 Bft) SW 227 0 min 0,000 mm 0,0 UV-I 0 W/m 10,3 C 13,5 C 3,2 km/h (1 Bft) 100,00 %
23.09.2017 19:22 13,5 C 12,8 C 81 % 1019,4 hPa 0,0 l/m 0,7 km/h (0 Bft) SW 227 0 min 0,000 mm 0,0 UV-I 0 W/m 10,3 C 13,5 C 3,2 km/h (1 Bft) 100,00 %
23.09.2017 19:24 13,4 C 12,8 C 82 % 1019,4 hPa 0,0 l/m 0,9 km/h (0 Bft) SW 227 0 min 0,000 mm 0,0 UV-I 0 W/m 10,4 C 13,4 C 1,6 km/h (1 Bft) 100,00 %
23.09.2017 19:26 13,4 C 12,8 C 82 % 1019,4 hPa 0,0 l/m 1,1 km/h (1 Bft) SW 227 0 min 0,000 mm 0,0 UV-I 0 W/m 10,4 C 13,4 C 3,2 km/h (1 Bft) 100,00 %
23.09.2017 19:28 13,4 C 12,8 C 83 % 1019,4 hPa 0,0 l/m 0,7 km/h (0 Bft) SW 227 0 min 0,000 mm 0,0 UV-I 0 W/m 10,6 C 13,4 C 1,6 km/h (1 Bft) 100,00 %
23.09.2017 19:30 13,3 C 12,8 C 83 % 1019,5 hPa 0,0 l/m 1,3 km/h (1 Bft) SW 227 0 min 0,000 mm 0,0 UV-I 0 W/m 10,5 C 13,3 C 3,2 km/h (1 Bft) 100,00 %
23.09.2017 19:32 13,3 C 12,8 C 83 % 1019,4 hPa 0,0 l/m 0,8 km/h (0 Bft) SW 227 0 min 0,000 mm 0,0 UV-I 0 W/m 10,5 C 13,3 C 1,6 km/h (1 Bft) 97,87 %
23.09.2017 19:34 13,3 C 12,8 C 83 % 1019,4 hPa 0,0 l/m 0,9 km/h (0 Bft) SW 226 0 min 0,000 mm 0,0 UV-I 0 W/m 10,5 C 13,3 C 1,6 km/h (1 Bft) 100,00 %
23.09.2017 19:36 13,3 C 12,8 C 83 % 1019,4 hPa 0,0 l/m 1,6 km/h (1 Bft) SW 217 0 min 0,000 mm 0,0 UV-I 0 W/m 10,5 C 13,3 C 3,2 km/h (1 Bft) 98,08 %
23.09.2017 19:38 13,3 C 12,8 C 83 % 1019,4 hPa 0,0 l/m 1,5 km/h (1 Bft) SW 214 0 min 0,000 mm 0,0 UV-I 0 W/m 10,5 C 13,3 C 3,2 km/h (1 Bft) 97,56 %
23.09.2017 19:40 13,4 C 12,8 C 82 % 1019,4 hPa 0,0 l/m 2,2 km/h (1 Bft) SW 214 0 min 0,000 mm 0,0 UV-I 0 W/m 10,4 C 13,4 C 3,2 km/h (1 Bft) 100,00 %
23.09.2017 19:42 13,5 C 12,8 C 82 % 1019,4 hPa 0,0 l/m 2,1 km/h (1 Bft) S-SW 213 0 min 0,000 mm 0,0 UV-I 0 W/m 10,5 C 13,5 C 4,8 km/h (1 Bft) 100,00 %
23.09.2017 19:44 13,6 C 12,8 C 82 % 1019,4 hPa 0,0 l/m 2,0 km/h (1 Bft) S-SW 213 0 min 0,000 mm 0,0 UV-I 0 W/m 10,6 C 13,6 C 3,2 km/h (1 Bft) 100,00 %
23.09.2017 19:46 13,6 C 12,8 C 82 % 1019,4 hPa 0,0 l/m 2,8 km/h (1 Bft) S-SW 213 0 min 0,000 mm 0,0 UV-I 0 W/m 10,6 C 13,6 C 4,8 km/h (1 Bft) 100,00 %
23.09.2017 19:48 13,6 C 12,8 C 82 % 1019,5 hPa 0,0 l/m 1,8 km/h (1 Bft) S-SW 213 0 min 0,000 mm 0,0 UV-I 0 W/m 10,6 C 13,6 C 3,2 km/h (1 Bft) 94,00 %
23.09.2017 19:50 13,6 C 12,8 C 82 % 1019,4 hPa 0,0 l/m 1,9 km/h (1 Bft) S-SW 213 0 min 0,000 mm 0,0 UV-I 0 W/m 10,6 C 13,6 C 3,2 km/h (1 Bft) 100,00 %
23.09.2017 19:52 13,6 C 12,8 C 82 % 1019,5 hPa 0,0 l/m 0,8 km/h (0 Bft) S-SW 213 0 min 0,000 mm 0,0 UV-I 0 W/m 10,6 C 13,6 C 1,6 km/h (1 Bft) 97,87 %
23.09.2017 19:54 13,6 C 12,8 C 82 % 1019,5 hPa 0,0 l/m 0,4 km/h (0 Bft) S-SW 213 0 min 0,000 mm 0,0 UV-I 0 W/m 10,6 C 13,6 C 1,6 km/h (1 Bft) 100,00 %
23.09.2017 19:56 13,6 C 12,8 C 83 % 1019,5 hPa 0,0 l/m 1,8 km/h (1 Bft) S-SW 213 0 min 0,000 mm 0,0 UV-I 0 W/m 10,8 C 13,6 C 3,2 km/h (1 Bft) 100,00 %
23.09.2017 19:58 13,5 C 12,8 C 83 % 1019,5 hPa 0,0 l/m 0,9 km/h (0 Bft) S-SW 213 0 min 0,000 mm 0,0 UV-I 0 W/m 10,7 C 13,5 C 3,2 km/h (1 Bft) 100,00 %
23.09.2017 20:00 13,4 C 12,8 C 83 % 1019,5 hPa 0,0 l/m 0,7 km/h (0 Bft) S-SW 213 0 min 0,000 mm 0,0 UV-I 0 W/m 10,6 C 13,4 C 3,2 km/h (1 Bft) 100,00 %
23.09.2017 20:02 13,3 C 12,8 C 83 % 1019,5 hPa 0,0 l/m 0,9 km/h (0 Bft) S-SW 213 0 min 0,000 mm 0,0 UV-I 0 W/m 10,5 C 13,3 C 1,6 km/h (1 Bft) 100,00 %
23.09.2017 20:04 13,3 C 12,8 C 82 % 1019,4 hPa 0,0 l/m 1,1 km/h (1 Bft) S-SW 213 0 min 0,000 mm 0,0 UV-I 0 W/m 10,3 C 13,3 C 3,2 km/h (1 Bft) 100,00 %
23.09.2017 20:06 13,3 C 12,8 C 82 % 1019,5 hPa 0,0 l/m 0,7 km/h (0 Bft) S-SW 213 0 min 0,000 mm 0,0 UV-I 0 W/m 10,3 C 13,3 C 3,2 km/h (1 Bft) 100,00 %
23.09.2017 20:08 13,3 C 12,8 C 83 % 1019,4 hPa 0,0 l/m 0,0 km/h (0 Bft) S-SW 213 0 min 0,000 mm 0,0 UV-I 0 W/m 10,5 C 13,3 C 1,6 km/h (1 Bft) 95,74 %
23.09.2017 20:10 13,3 C 12,8 C 83 % 1019,5 hPa 0,0 l/m 0,6 km/h (0 Bft) S-SW 213 0 min 0,000 mm 0,0 UV-I 0 W/m 10,5 C 13,3 C 3,2 km/h (1 Bft) 98,00 %
23.09.2017 20:12 13,3 C 12,8 C 83 % 1019,4 hPa 0,0 l/m 0,8 km/h (0 Bft) S-SW 213 0 min 0,000 mm 0,0 UV-I 0 W/m 10,5 C 13,3 C 3,2 km/h (1 Bft) 100,00 %
23.09.2017 20:14 13,4 C 12,8 C 82 % 1019,4 hPa 0,0 l/m 1,5 km/h (1 Bft) S-SW 213 0 min 0,000 mm 0,0 UV-I 0 W/m 10,4 C 13,4 C 3,2 km/h (1 Bft) 100,00 %
23.09.2017 20:16 13,4 C 12,8 C 82 % 1019,4 hPa 0,0 l/m 1,7 km/h (1 Bft) S-SW 213 0 min 0,000 mm 0,0 UV-I 0 W/m 10,4 C 13,4 C 3,2 km/h (1 Bft) 100,00 %
23.09.2017 20:18 13,5 C 12,8 C 82 % 1019,4 hPa 0,0 l/m 1,1 km/h (1 Bft) S-SW 213 0 min 0,000 mm 0,0 UV-I 0 W/m 10,5 C 13,5 C 4,8 km/h (1 Bft) 100,00 %
23.09.2017 20:20 13,5 C 13,3 C 83 % 1019,4 hPa 0,0 l/m 1,5 km/h (1 Bft) S-SW 213 0 min 0,000 mm 0,0 UV-I 0 W/m 10,7 C 13,5 C 3,2 km/h (1 Bft) 100,00 %
23.09.2017 20:22 13,5 C 12,8 C 83 % 1019,4 hPa 0,0 l/m 2,6 km/h (1 Bft) S-SW 213 0 min 0,000 mm 0,0 UV-I 0 W/m 10,7 C 13,5 C 4,8 km/h (1 Bft) 100,00 %
23.09.2017 20:24 13,5 C 12,8 C 83 % 1019,5 hPa 0,0 l/m 3,5 km/h (1 Bft) S-SW 213 0 min 0,000 mm 0,0 UV-I 0 W/m 10,7 C 13,5 C 6,4 km/h (2 Bft) 98,00 %
23.09.2017 20:26 13,4 C 12,8 C 82 % 1019,5 hPa 0,0 l/m 4,1 km/h (1 Bft) S-SW 213 0 min 0,000 mm 0,0 UV-I 0 W/m 10,4 C 13,4 C 6,4 km/h (2 Bft) 100,00 %
23.09.2017 20:28 13,5 C 12,8 C 83 % 1019,4 hPa 0,0 l/m 2,1 km/h (1 Bft) S-SW 213 0 min 0,000 mm 0,0 UV-I 0 W/m 10,7 C 13,5 C 3,2 km/h (1 Bft) 96,00 %
23.09.2017 20:30 13,5 C 12,8 C 83 % 1019,5 hPa 0,0 l/m 1,2 km/h (1 Bft) S-SW 213 0 min 0,000 mm 0,0 UV-I 0 W/m 10,7 C 13,5 C 3,2 km/h (1 Bft) 100,00 %
23.09.2017 20:32 13,5 C 13,3 C 83 % 1019,5 hPa 0,0 l/m 1,7 km/h (1 Bft) S-SW 213 0 min 0,000 mm 0,0 UV-I 0 W/m 10,7 C 13,5 C 3,2 km/h (1 Bft) 98,00 %
23.09.2017 20:34 13,4 C 12,8 C 83 % 1019,5 hPa 0,0 l/m 1,5 km/h (1 Bft) S-SW 213 0 min 0,000 mm 0,0 UV-I 0 W/m 10,6 C 13,4 C 3,2 km/h (1 Bft) 98,00 %
23.09.2017 20:36 13,4 C 12,8 C 83 % 1019,5 hPa 0,0 l/m 1,2 km/h (1 Bft) S-SW 213 0 min 0,000 mm 0,0 UV-I 0 W/m 10,6 C 13,4 C 3,2 km/h (1 Bft) 100,00 %
23.09.2017 20:38 13,4 C 12,8 C 83 % 1019,5 hPa 0,0 l/m 1,3 km/h (1 Bft) S-SW 213 0 min 0,000 mm 0,0 UV-I 0 W/m 10,6 C 13,4 C 3,2 km/h (1 Bft) 97,87 %
23.09.2017 20:40 13,4 C 12,8 C 84 % 1019,5 hPa 0,0 l/m 1,7 km/h (1 Bft) S-SW 213 0 min 0,000 mm 0,0 UV-I 0 W/m 10,8 C 13,4 C 4,8 km/h (1 Bft) 94,74 %
23.09.2017 20:42 13,4 C 13,3 C 83 % 1019,5 hPa 0,0 l/m 1,5 km/h (1 Bft) S-SW 213 0 min 0,000 mm 0,0 UV-I 0 W/m 10,6 C 13,4 C 3,2 km/h (1 Bft) 96,23 %
23.09.2017 20:44 13,4 C 12,8 C 83 % 1019,5 hPa 0,0 l/m 2,6 km/h (1 Bft) S-SW 213 0 min 0,000 mm 0,0 UV-I 0 W/m 10,6 C 13,4 C 4,8 km/h (1 Bft) 97,87 %
23.09.2017 20:46 13,4 C 13,3 C 84 % 1019,4 hPa 0,0 l/m 2,0 km/h (1 Bft) S-SW 207 0 min 0,000 mm 0,0 UV-I 0 W/m 10,8 C 13,4 C 4,8 km/h (1 Bft) 97,87 %
23.09.2017 20:48 13,4 C 12,8 C 83 % 1019,4 hPa 0,0 l/m 0,9 km/h (0 Bft) S-SW 207 0 min 0,000 mm 0,0 UV-I 0 W/m 10,6 C 13,4 C 3,2 km/h (1 Bft) 97,37 %
23.09.2017 20:50 13,3 C 12,8 C 84 % 1019,4 hPa 0,0 l/m 1,8 km/h (1 Bft) S-SW 207 0 min 0,000 mm 0,0 UV-I 0 W/m 10,7 C 13,3 C 4,8 km/h (1 Bft) 98,21 %
23.09.2017 20:52 13,3 C 13,3 C 84 % 1019,5 hPa 0,0 l/m 2,1 km/h (1 Bft) S-SW 207 0 min 0,000 mm 0,0 UV-I 0 W/m 10,7 C 13,3 C 3,2 km/h (1 Bft) 92,00 %
23.09.2017 20:54 13,3 C 12,8 C 84 % 1019,5 hPa 0,0 l/m 1,8 km/h (1 Bft) S-SW 207 0 min 0,000 mm 0,0 UV-I 0 W/m 10,7 C 13,3 C 3,2 km/h (1 Bft) 97,56 %
23.09.2017 20:56 13,3 C 12,8 C 84 % 1019,5 hPa 0,0 l/m 1,9 km/h (1 Bft) S-SW 207 0 min 0,000 mm 0,0 UV-I 0 W/m 10,7 C 13,3 C 3,2 km/h (1 Bft) 98,00 %
23.09.2017 20:58 13,3 C 13,3 C 84 % 1019,5 hPa 0,0 l/m 2,8 km/h (1 Bft) S-SW 207 0 min 0,000 mm 0,0 UV-I 0 W/m 10,7 C 13,3 C 4,8 km/h (1 Bft) 95,74 %
23.09.2017 21:00 13,3 C 13,3 C 83 % 1019,5 hPa 0,0 l/m 3,0 km/h (1 Bft) S-SW 202 0 min 0,000 mm 0,0 UV-I 0 W/m 10,5 C 13,3 C 4,8 km/h (1 Bft) 97,22 %
23.09.2017 21:02 13,3 C 12,8 C 82 % 1019,5 hPa 0,0 l/m 2,5 km/h (1 Bft) S-SW 202 0 min 0,000 mm 0,0 UV-I 0 W/m 10,3 C 13,3 C 3,2 km/h (1 Bft) 98,11 %
23.09.2017 21:04 13,3 C 12,8 C 82 % 1019,5 hPa 0,0 l/m 1,9 km/h (1 Bft) S-SW 202 0 min 0,000 mm 0,0 UV-I 0 W/m 10,3 C 13,3 C 3,2 km/h (1 Bft) 98,00 %
23.09.2017 21:06 13,4 C 12,8 C 82 % 1019,5 hPa 0,0 l/m 1,8 km/h (1 Bft) S-SW 202 0 min 0,000 mm 0,0 UV-I 0 W/m 10,4 C 13,4 C 3,2 km/h (1 Bft) 95,12 %
23.09.2017 21:08 13,4 C 13,3 C 82 % 1019,5 hPa 0,0 l/m 2,5 km/h (1 Bft) S-SW 202 0 min 0,000 mm 0,0 UV-I 0 W/m 10,4 C 13,4 C 3,2 km/h (1 Bft) 97,87 %
23.09.2017 21:10 13,4 C 12,8 C 82 % 1019,5 hPa 0,0 l/m 2,5 km/h (1 Bft) S 186 0 min 0,000 mm 0,0 UV-I 0 W/m 10,4 C 13,4 C 4,8 km/h (1 Bft) 98,00 %
23.09.2017 21:12 13,4 C 13,3 C 82 % 1019,5 hPa 0,0 l/m 3,4 km/h (1 Bft) S 181 0 min 0,000 mm 0,0 UV-I 0 W/m 10,4 C 13,4 C 4,8 km/h (1 Bft) 98,00 %
23.09.2017 21:14 13,4 C 12,8 C 81 % 1019,5 hPa 0,0 l/m 3,5 km/h (1 Bft) S 169 0 min 0,000 mm 0,0 UV-I 0 W/m 10,2 C 13,4 C 6,4 km/h (2 Bft) 97,87 %
23.09.2017 21:16 13,4 C 13,3 C 81 % 1019,5 hPa 0,0 l/m 4,2 km/h (1 Bft) S 169 0 min 0,000 mm 0,0 UV-I 0 W/m 10,2 C 13,4 C 6,4 km/h (2 Bft) 100,00 %
23.09.2017 21:18 13,5 C 13,3 C 81 % 1019,6 hPa 0,0 l/m 3,8 km/h (1 Bft) S 190 0 min 0,000 mm 0,0 UV-I 0 W/m 10,3 C 13,5 C 8,0 km/h (2 Bft) 100,00 %
23.09.2017 21:20 13,5 C 13,3 C 81 % 1019,6 hPa 0,0 l/m 2,5 km/h (1 Bft) S 178 0 min 0,000 mm 0,0 UV-I 0 W/m 10,3 C 13,5 C 4,8 km/h (1 Bft) 100,00 %
23.09.2017 21:22 13,6 C 13,3 C 81 % 1019,5 hPa 0,0 l/m 2,9 km/h (1 Bft) S 178 0 min 0,000 mm 0,0 UV-I 0 W/m 10,4 C 13,6 C 4,8 km/h (1 Bft) 100,00 %
23.09.2017 21:24 13,6 C 13,3 C 81 % 1019,5 hPa 0,0 l/m 3,0 km/h (1 Bft) S 178 0 min 0,000 mm 0,0 UV-I 0 W/m 10,4 C 13,6 C 6,4 km/h (2 Bft) 100,00 %
23.09.2017 21:26 13,6 C 13,3 C 81 % 1019,5 hPa 0,0 l/m 3,2 km/h (1 Bft) S 178 0 min 0,000 mm 0,0 UV-I 0 W/m 10,4 C 13,6 C 4,8 km/h (1 Bft) 97,87 %
23.09.2017 21:28 13,6 C 13,3 C 81 % 1019,5 hPa 0,0 l/m 3,2 km/h (1 Bft) S 178 0 min 0,000 mm 0,0 UV-I 0 W/m 10,4 C 13,6 C 4,8 km/h (1 Bft) 93,62 %
23.09.2017 21:30 13,6 C 13,3 C 81 % 1019,6 hPa 0,0 l/m 1,1 km/h (1 Bft) S 178 0 min 0,000 mm 0,0 UV-I 0 W/m 10,4 C 13,6 C 3,2 km/h (1 Bft) 100,00 %
23.09.2017 21:32 13,6 C 13,3 C 82 % 1019,5 hPa 0,0 l/m 1,4 km/h (1 Bft) S 178 0 min 0,000 mm 0,0 UV-I 0 W/m 10,6 C 13,6 C 3,2 km/h (1 Bft) 93,62 %
23.09.2017 21:34 13,6 C 13,3 C 82 % 1019,5 hPa 0,0 l/m 1,4 km/h (1 Bft) S 178 0 min 0,000 mm 0,0 UV-I 0 W/m 10,6 C 13,6 C 3,2 km/h (1 Bft) 100,00 %
23.09.2017 21:36 13,6 C 13,3 C 82 % 1019,5 hPa 0,0 l/m 2,6 km/h (1 Bft) S 178 0 min 0,000 mm 0,0 UV-I 0 W/m 10,6 C 13,6 C 3,2 km/h (1 Bft) 100,00 %
23.09.2017 21:38 13,6 C 13,3 C 82 % 1019,5 hPa 0,0 l/m 2,2 km/h (1 Bft) S 178 0 min 0,000 mm 0,0 UV-I 0 W/m 10,6 C 13,6 C 4,8 km/h (1 Bft) 100,00 %
23.09.2017 21:40 13,6 C 13,3 C 82 % 1019,5 hPa 0,0 l/m 2,6 km/h (1 Bft) S 178 0 min 0,000 mm 0,0 UV-I 0 W/m 10,6 C 13,6 C 4,8 km/h (1 Bft) 100,00 %
23.09.2017 21:42 13,6 C 13,3 C 83 % 1019,5 hPa 0,0 l/m 3,8 km/h (1 Bft) S 179 0 min 0,000 mm 0,0 UV-I 0 W/m 10,8 C 13,6 C 6,4 km/h (2 Bft) 98,00 %
23.09.2017 21:44 13,5 C 12,8 C 83 % 1019,5 hPa 0,0 l/m 2,7 km/h (1 Bft) S 179 0 min 0,000 mm 0,0 UV-I 0 W/m 10,7 C 13,5 C 4,8 km/h (1 Bft) 96,00 %
23.09.2017 21:46 13,5 C 13,3 C 83 % 1019,6 hPa 0,0 l/m 4,5 km/h (1 Bft) SW 229 0 min 0,000 mm 0,0 UV-I 0 W/m 10,7 C 13,5 C 8,0 km/h (2 Bft) 97,56 %
23.09.2017 21:48 13,4 C 13,3 C 83 % 1019,6 hPa 0,0 l/m 2,3 km/h (1 Bft) SW 229 0 min 0,000 mm 0,0 UV-I 0 W/m 10,6 C 13,4 C 4,8 km/h (1 Bft) 94,74 %
23.09.2017 21:50 13,4 C 13,3 C 83 % 1019,6 hPa 0,0 l/m 3,5 km/h (1 Bft) SW 229 0 min 0,000 mm 0,0 UV-I 0 W/m 10,6 C 13,4 C 4,8 km/h (1 Bft) 98,11 %
23.09.2017 21:52 13,4 C 13,3 C 83 % 1019,6 hPa 0,0 l/m 3,3 km/h (1 Bft) SW 229 0 min 0,000 mm 0,0 UV-I 0 W/m 10,6 C 13,4 C 4,8 km/h (1 Bft) 98,11 %
23.09.2017 21:54 13,4 C 13,3 C 84 % 1019,6 hPa 0,0 l/m 2,4 km/h (1 Bft) SW 229 0 min 0,000 mm 0,0 UV-I 0 W/m 10,8 C 13,4 C 4,8 km/h (1 Bft) 100,00 %
23.09.2017 21:56 13,3 C 13,3 C 84 % 1019,5 hPa 0,0 l/m 3,7 km/h (1 Bft) SW 228 0 min 0,000 mm 0,0 UV-I 0 W/m 10,7 C 13,3 C 6,4 km/h (2 Bft) 98,39 %
23.09.2017 21:58 13,3 C 13,3 C 84 % 1019,6 hPa 0,0 l/m 3,9 km/h (1 Bft) SW 223 0 min 0,000 mm 0,0 UV-I 0 W/m 10,7 C 13,3 C 6,4 km/h (2 Bft) 95,74 %
23.09.2017 22:00 13,3 C 13,3 C 84 % 1019,6 hPa 0,0 l/m 2,3 km/h (1 Bft) SW 223 0 min 0,000 mm 0,0 UV-I 0 W/m 10,7 C 13,3 C 6,4 km/h (2 Bft) 98,00 %
23.09.2017 22:03 13,2 C 13,3 C 85 % 1019,6 hPa 0,0 l/m 2,5 km/h (1 Bft) SW 220 0 min 0,000 mm 0,0 UV-I 0 W/m 10,7 C 13,2 C 6,4 km/h (2 Bft) 95,95 %
23.09.2017 22:04 13,2 C 13,3 C 85 % 1019,6 hPa 0,0 l/m 4,5 km/h (1 Bft) SW 220 0 min 0,000 mm 0,0 UV-I 0 W/m 10,7 C 13,2 C 6,4 km/h (2 Bft) 100,00 %
23.09.2017 22:06 13,2 C 13,3 C 85 % 1019,6 hPa 0,0 l/m 4,1 km/h (1 Bft) SW 219 0 min 0,000 mm 0,0 UV-I 0 W/m 10,7 C 13,2 C 6,4 km/h (2 Bft) 96,23 %
23.09.2017 22:08 13,2 C 13,3 C 85 % 1019,6 hPa 0,0 l/m 3,4 km/h (1 Bft) SW 219 0 min 0,000 mm 0,0 UV-I 0 W/m 10,7 C 13,2 C 4,8 km/h (1 Bft) 98,00 %
23.09.2017 22:10 13,2 C 13,3 C 85 % 1019,5 hPa 0,0 l/m 4,1 km/h (1 Bft) SW 219 0 min 0,000 mm 0,0 UV-I 0 W/m 10,7 C 13,2 C 6,4 km/h (2 Bft) 94,74 %
23.09.2017 22:12 13,2 C 13,3 C 85 % 1019,5 hPa 0,0 l/m 4,1 km/h (1 Bft) S-SW 196 0 min 0,000 mm 0,0 UV-I 0 W/m 10,7 C 13,2 C 6,4 km/h (2 Bft) 96,00 %
23.09.2017 22:14 13,2 C 13,3 C 85 % 1019,5 hPa 0,0 l/m 3,5 km/h (1 Bft) S-SW 196 0 min 0,000 mm 0,0 UV-I 0 W/m 10,7 C 13,2 C 6,4 km/h (2 Bft) 97,87 %
23.09.2017 22:16 13,2 C 13,3 C 85 % 1019,5 hPa 0,0 l/m 3,8 km/h (1 Bft) S-SW 196 0 min 0,000 mm 0,0 UV-I 0 W/m 10,7 C 13,2 C 4,8 km/h (1 Bft) 96,00 %
23.09.2017 22:18 13,2 C 13,3 C 85 % 1019,5 hPa 0,0 l/m 2,8 km/h (1 Bft) S-SW 196 0 min 0,000 mm 0,0 UV-I 0 W/m 10,7 C 13,2 C 6,4 km/h (2 Bft) 97,87 %
23.09.2017 22:20 13,2 C 13,3 C 85 % 1019,5 hPa 0,0 l/m 3,0 km/h (1 Bft) S-SW 196 0 min 0,000 mm 0,0 UV-I 0 W/m 10,7 C 13,2 C 4,8 km/h (1 Bft) 95,24 %
23.09.2017 22:22 13,1 C 13,3 C 85 % 1019,5 hPa 0,0 l/m 1,9 km/h (1 Bft) S-SW 196 0 min 0,000 mm 0,0 UV-I 0 W/m 10,6 C 13,1 C 4,8 km/h (1 Bft) 97,56 %
23.09.2017 22:24 13,1 C 13,3 C 85 % 1019,5 hPa 0,0 l/m 0,4 km/h (0 Bft) S-SW 196 0 min 0,000 mm 0,0 UV-I 0 W/m 10,6 C 13,1 C 1,6 km/h (1 Bft) 98,00 %
23.09.2017 22:26 13,1 C 13,3 C 85 % 1019,5 hPa 0,0 l/m 0,0 km/h (0 Bft) S-SW 196 0 min 0,000 mm 0,0 UV-I 0 W/m 10,6 C 13,1 C 0,0 km/h (0 Bft) 98,00 %
23.09.2017 22:28 13,0 C 13,3 C 85 % 1019,5 hPa 0,0 l/m 0,4 km/h (0 Bft) S-SW 196 0 min 0,000 mm 0,0 UV-I 0 W/m 10,5 C 13,0 C 1,6 km/h (1 Bft) 96,00 %
23.09.2017 22:30 13,0 C 13,3 C 85 % 1019,5 hPa 0,0 l/m 0,2 km/h (0 Bft) S-SW 196 0 min 0,000 mm 0,0 UV-I 0 W/m 10,5 C 13,0 C 1,6 km/h (1 Bft) 96,00 %
23.09.2017 22:32 12,9 C 13,3 C 85 % 1019,5 hPa 0,0 l/m 0,0 km/h (0 Bft) S-SW 196 0 min 0,000 mm 0,0 UV-I 0 W/m 10,4 C 12,9 C 0,0 km/h (0 Bft) 95,74 %
23.09.2017 22:34 12,9 C 13,3 C 86 % 1019,5 hPa 0,0 l/m 1,0 km/h (0 Bft) S-SW 196 0 min 0,000 mm 0,0 UV-I 0 W/m 10,6 C 12,9 C 3,2 km/h (1 Bft) 95,12 %
23.09.2017 22:36 12,9 C 13,3 C 86 % 1019,5 hPa 0,0 l/m 1,5 km/h (1 Bft) S-SW 196 0 min 0,000 mm 0,0 UV-I 0 W/m 10,6 C 12,9 C 3,2 km/h (1 Bft) 97,56 %
23.09.2017 22:38 12,8 C 13,3 C 86 % 1019,5 hPa 0,0 l/m 2,4 km/h (1 Bft) S-SW 196 0 min 0,000 mm 0,0 UV-I 0 W/m 10,5 C 12,8 C 4,8 km/h (1 Bft) 98,00 %
23.09.2017 22:40 12,8 C 13,3 C 86 % 1019,5 hPa 0,0 l/m 2,5 km/h (1 Bft) S-SW 196 0 min 0,000 mm 0,0 UV-I 0 W/m 10,5 C 12,8 C 3,2 km/h (1 Bft) 98,11 %
23.09.2017 22:42 12,8 C 13,3 C 86 % 1019,5 hPa 0,0 l/m 2,6 km/h (1 Bft) S-SW 196 0 min 0,000 mm 0,0 UV-I 0 W/m 10,5 C 12,8 C 4,8 km/h (1 Bft) 95,74 %
23.09.2017 22:44 12,8 C 13,3 C 86 % 1019,5 hPa 0,0 l/m 3,1 km/h (1 Bft) S-SW 196 0 min 0,000 mm 0,0 UV-I 0 W/m 10,5 C 12,8 C 4,8 km/h (1 Bft) 94,74 %
23.09.2017 22:46 12,8 C 13,3 C 86 % 1019,5 hPa 0,0 l/m 2,3 km/h (1 Bft) S-SW 196 0 min 0,000 mm 0,0 UV-I 0 W/m 10,5 C 12,8 C 3,2 km/h (1 Bft) 94,00 %
23.09.2017 22:48 12,8 C 13,3 C 86 % 1019,5 hPa 0,0 l/m 0,7 km/h (0 Bft) S-SW 196 0 min 0,000 mm 0,0 UV-I 0 W/m 10,5 C 12,8 C 3,2 km/h (1 Bft) 96,00 %
23.09.2017 22:50 12,7 C 13,3 C 86 % 1019,5 hPa 0,0 l/m 0,5 km/h (0 Bft) S-SW 196 0 min 0,000 mm 0,0 UV-I 0 W/m 10,4 C 12,7 C 3,2 km/h (1 Bft) 94,00 %
23.09.2017 22:52 12,6 C 13,3 C 86 % 1019,5 hPa 0,0 l/m 0,1 km/h (0 Bft) S-SW 196 0 min 0,000 mm 0,0 UV-I 0 W/m 10,3 C 12,6 C 1,6 km/h (1 Bft) 95,74 %
23.09.2017 22:54 12,6 C 13,3 C 86 % 1019,5 hPa 0,0 l/m 0,2 km/h (0 Bft) S-SW 196 0 min 0,000 mm 0,0 UV-I 0 W/m 10,3 C 12,6 C 1,6 km/h (1 Bft) 97,22 %
23.09.2017 22:56 12,4 C 13,3 C 87 % 1019,5 hPa 0,0 l/m 0,7 km/h (0 Bft) S-SW 196 0 min 0,000 mm 0,0 UV-I 0 W/m 10,3 C 12,4 C 1,6 km/h (1 Bft) 96,00 %
23.09.2017 22:58 12,4 C 13,3 C 87 % 1019,5 hPa 0,0 l/m 2,0 km/h (1 Bft) S-SW 196 0 min 0,000 mm 0,0 UV-I 0 W/m 10,3 C 12,4 C 3,2 km/h (1 Bft) 97,87 %
23.09.2017 23:00 12,3 C 13,3 C 87 % 1019,5 hPa 0,0 l/m 1,5 km/h (1 Bft) S-SW 196 0 min 0,000 mm 0,0 UV-I 0 W/m 10,2 C 12,3 C 3,2 km/h (1 Bft) 97,56 %
23.09.2017 23:02 12,3 C 13,3 C 87 % 1019,5 hPa 0,0 l/m 0,5 km/h (0 Bft) S-SW 196 0 min 0,000 mm 0,0 UV-I 0 W/m 10,2 C 12,3 C 3,2 km/h (1 Bft) 98,21 %
23.09.2017 23:04 12,2 C 13,3 C 87 % 1019,5 hPa 0,0 l/m 0,0 km/h (0 Bft) S-SW 196 0 min 0,000 mm 0,0 UV-I 0 W/m 10,1 C 12,2 C 1,6 km/h (1 Bft) 97,87 %
23.09.2017 23:06 12,1 C 13,3 C 87 % 1019,5 hPa 0,0 l/m 0,0 km/h (0 Bft) S-SW 196 0 min 0,000 mm 0,0 UV-I 0 W/m 10,0 C 12,1 C 1,6 km/h (1 Bft) 98,00 %
23.09.2017 23:08 12,0 C 13,3 C 88 % 1019,5 hPa 0,0 l/m 1,8 km/h (1 Bft) S-SW 196 0 min 0,000 mm 0,0 UV-I 0 W/m 10,1 C 12,0 C 3,2 km/h (1 Bft) 97,56 %
23.09.2017 23:10 11,9 C 13,3 C 88 % 1019,5 hPa 0,0 l/m 0,5 km/h (0 Bft) S-SW 196 0 min 0,000 mm 0,0 UV-I 0 W/m 10,0 C 11,9 C 1,6 km/h (1 Bft) 96,23 %
23.09.2017 23:12 11,8 C 13,3 C 88 % 1019,5 hPa 0,0 l/m 0,8 km/h (0 Bft) S-SW 196 0 min 0,000 mm 0,0 UV-I 0 W/m 9,9 C 11,8 C 3,2 km/h (1 Bft) 100,00 %
23.09.2017 23:14 11,8 C 13,3 C 89 % 1019,5 hPa 0,0 l/m 0,1 km/h (0 Bft) S-SW 196 0 min 0,000 mm 0,0 UV-I 0 W/m 10,0 C 11,8 C 1,6 km/h (1 Bft) 96,23 %
23.09.2017 23:16 11,7 C 13,3 C 89 % 1019,5 hPa 0,0 l/m 0,4 km/h (0 Bft) S-SW 196 0 min 0,000 mm 0,0 UV-I 0 W/m 9,9 C 11,7 C 1,6 km/h (1 Bft) 100,00 %
23.09.2017 23:18 11,6 C 13,3 C 89 % 1019,5 hPa 0,0 l/m 0,9 km/h (0 Bft) S-SW 196 0 min 0,000 mm 0,0 UV-I 0 W/m 9,8 C 11,6 C 1,6 km/h (1 Bft) 100,00 %
23.09.2017 23:20 11,6 C 13,3 C 89 % 1019,5 hPa 0,0 l/m 0,8 km/h (0 Bft) S-SW 196 0 min 0,000 mm 0,0 UV-I 0 W/m 9,8 C 11,6 C 1,6 km/h (1 Bft) 100,00 %
23.09.2017 23:22 11,6 C 13,3 C 89 % 1019,5 hPa 0,0 l/m 1,1 km/h (1 Bft) S-SW 196 0 min 0,000 mm 0,0 UV-I 0 W/m 9,8 C 11,6 C 3,2 km/h (1 Bft) 100,00 %
23.09.2017 23:24 11,4 C 13,3 C 89 % 1019,5 hPa 0,0 l/m 1,9 km/h (1 Bft) S-SW 196 0 min 0,000 mm 0,0 UV-I 0 W/m 9,7 C 11,4 C 3,2 km/h (1 Bft) 98,00 %
23.09.2017 23:26 11,4 C 13,3 C 89 % 1019,6 hPa 0,0 l/m 1,1 km/h (1 Bft) S-SW 196 0 min 0,000 mm 0,0 UV-I 0 W/m 9,7 C 11,4 C 1,6 km/h (1 Bft) 100,00 %
23.09.2017 23:28 11,4 C 13,3 C 90 % 1019,5 hPa 0,0 l/m 1,1 km/h (1 Bft) S-SW 196 0 min 0,000 mm 0,0 UV-I 0 W/m 9,8 C 11,4 C 3,2 km/h (1 Bft) 100,00 %
23.09.2017 23:30 11,4 C 13,3 C 90 % 1019,5 hPa 0,0 l/m 0,6 km/h (0 Bft) S-SW 196 0 min 0,000 mm 0,0 UV-I 0 W/m 9,8 C 11,4 C 1,6 km/h (1 Bft) 97,87 %
23.09.2017 23:32 11,4 C 13,3 C 90 % 1019,5 hPa 0,0 l/m 0,4 km/h (0 Bft) S-SW 196 0 min 0,000 mm 0,0 UV-I 0 W/m 9,8 C 11,4 C 1,6 km/h (1 Bft) 100,00 %
23.09.2017 23:34 11,4 C 13,3 C 90 % 1019,5 hPa 0,0 l/m 3,5 km/h (1 Bft) S-SW 196 0 min 0,000 mm 0,0 UV-I 0 W/m 9,8 C 11,4 C 6,4 km/h (2 Bft) 100,00 %
23.09.2017 23:36 11,5 C 13,3 C 90 % 1019,5 hPa 0,0 l/m 4,4 km/h (1 Bft) S-SW 196 0 min 0,000 mm 0,0 UV-I 0 W/m 9,9 C 11,5 C 6,4 km/h (2 Bft) 100,00 %
23.09.2017 23:38 11,5 C 13,3 C 90 % 1019,5 hPa 0,0 l/m 4,6 km/h (1 Bft) S-SW 196 0 min 0,000 mm 0,0 UV-I 0 W/m 9,9 C 11,5 C 8,0 km/h (2 Bft) 98,00 %
23.09.2017 23:40 11,6 C 13,3 C 90 % 1019,5 hPa 0,0 l/m 3,2 km/h (1 Bft) S-SW 195 0 min 0,000 mm 0,0 UV-I 0 W/m 10,0 C 11,6 C 6,4 km/h (2 Bft) 100,00 %
23.09.2017 23:42 11,6 C 13,3 C 90 % 1019,5 hPa 0,0 l/m 2,2 km/h (1 Bft) S-SW 195 0 min 0,000 mm 0,0 UV-I 0 W/m 10,0 C 11,6 C 3,2 km/h (1 Bft) 100,00 %
23.09.2017 23:44 11,6 C 13,3 C 90 % 1019,4 hPa 0,0 l/m 3,4 km/h (1 Bft) S-SW 192 0 min 0,000 mm 0,0 UV-I 0 W/m 10,0 C 11,6 C 6,4 km/h (2 Bft) 100,00 %
23.09.2017 23:46 11,6 C 13,3 C 90 % 1019,4 hPa 0,0 l/m 2,3 km/h (1 Bft) S-SW 192 0 min 0,000 mm 0,0 UV-I 0 W/m 10,0 C 11,6 C 4,8 km/h (1 Bft) 100,00 %
23.09.2017 23:48 11,6 C 13,3 C 90 % 1019,4 hPa 0,0 l/m 2,1 km/h (1 Bft) S-SW 192 0 min 0,000 mm 0,0 UV-I 0 W/m 10,0 C 11,6 C 4,8 km/h (1 Bft) 100,00 %
23.09.2017 23:50 11,6 C 13,3 C 89 % 1019,4 hPa 0,0 l/m 2,1 km/h (1 Bft) S-SW 192 0 min 0,000 mm 0,0 UV-I 0 W/m 9,8 C 11,6 C 4,8 km/h (1 Bft) 100,00 %
23.09.2017 23:52 11,6 C 13,3 C 90 % 1019,4 hPa 0,0 l/m 2,1 km/h (1 Bft) S-SW 192 0 min 0,000 mm 0,0 UV-I 0 W/m 10,0 C 11,6 C 4,8 km/h (1 Bft) 100,00 %
23.09.2017 23:54 11,6 C 13,3 C 90 % 1019,4 hPa 0,0 l/m 2,8 km/h (1 Bft) S-SW 192 0 min 0,000 mm 0,0 UV-I 0 W/m 10,0 C 11,6 C 4,8 km/h (1 Bft) 100,00 %
23.09.2017 23:56 11,6 C 13,3 C 90 % 1019,4 hPa 0,0 l/m 2,1 km/h (1 Bft) S-SW 192 0 min 0,000 mm 0,0 UV-I 0 W/m 10,0 C 11,6 C 3,2 km/h (1 Bft) 96,23 %
23.09.2017 23:58 11,6 C 13,3 C 90 % 1019,3 hPa 0,0 l/m 2,0 km/h (1 Bft) S-SW 192 0 min 0,000 mm 0,0 UV-I 0 W/m 10,0 C 11,6 C 3,2 km/h (1 Bft) 100,00 %
_ Min-Zeit 07:38 00:16 15:48 16:42 - 00:12 - - - - - - 07:26 07:26 00:12 03:00
Minimum _ 6,5 C 12,8 C 50 % 1018,9 hPa - 0,0 km/h (0 Bft) - - - - - - 5,9 C 6,6 C 0,0 km/h (0 Bft) 89,36 %
_ Max-Zeit 15:32 00:00 08:28 08:40 02:36 15:08 - - 07:02 14:00 12:54 11:22 12:10 15:32 13:24 00:44
Maximum _ 18,7 C 13,3 C 97 % 1022,5 hPa 0,2 l/m 11,4 km/h
W-SW (2 Bft)
- - 2 min 0,381 mm 3,4 UV-I 715 W/m 13,5 C 18,7 C 19,3 km/h
W-SW (3 Bft)
100,00 %
Durchschnitt _ 12,1 C 12,9 C 83 % 1020,9 hPa #0,4 l/m 2,6 km/h (1 Bft) S-SW - #7:42 h #2,362 mm 2,0 UV-I 333 W/m 9,0 C 12,1 C 5,1 km/h (1 Bft) 97,99 %